<?xml version="1.0" encoding="UTF-8" standalone="no" ?>
<gpx xmlns="http://www.topografix.com/GPX/1/1" xmlns:xsi="http://www.w3.org/2001/XMLSchema-instance" xsi:schemaLocation="http://www.topografix.com/GPX/1/1 http://www.topografix.com/GPX/1/1/gpx.xsd" version="1.1" creator="VisuGPX - https://www.visugpx.com">
  <metadata>
    <name>2026_Relais 3 circuit_nord</name>
  </metadata>
  <trk>
    <name><![CDATA[Relais 3 parcours nord]]></name>
    <trkseg>
      <trkpt lat="44.82222" lon="2.5445">
        <ele>756</ele>
        <time>2024-07-17T18:09:33Z</time>
      </trkpt>
      <trkpt lat="44.82222" lon="2.54447">
        <ele>752</ele>
        <time>2024-07-17T18:10:05Z</time>
      </trkpt>
      <trkpt lat="44.82216" lon="2.54465">
        <ele>751</ele>
        <time>2024-07-17T18:10:07Z</time>
      </trkpt>
      <trkpt lat="44.82219" lon="2.54484">
        <ele>750</ele>
        <time>2024-07-17T18:10:08Z</time>
      </trkpt>
      <trkpt lat="44.82223" lon="2.54502">
        <ele>750</ele>
        <time>2024-07-17T18:10:09Z</time>
      </trkpt>
      <trkpt lat="44.82223" lon="2.54514">
        <ele>749</ele>
        <time>2024-07-17T18:10:10Z</time>
      </trkpt>
      <trkpt lat="44.82219" lon="2.54521">
        <ele>747</ele>
        <time>2024-07-17T18:10:11Z</time>
      </trkpt>
      <trkpt lat="44.82214" lon="2.54525">
        <ele>746</ele>
        <time>2024-07-17T18:10:12Z</time>
      </trkpt>
      <trkpt lat="44.8221" lon="2.54528">
        <ele>745</ele>
        <time>2024-07-17T18:10:13Z</time>
      </trkpt>
      <trkpt lat="44.82206" lon="2.54529">
        <ele>746</ele>
        <time>2024-07-17T18:10:14Z</time>
      </trkpt>
      <trkpt lat="44.82204" lon="2.54524">
        <ele>745</ele>
        <time>2024-07-17T18:10:15Z</time>
      </trkpt>
      <trkpt lat="44.82201" lon="2.5452">
        <ele>744</ele>
        <time>2024-07-17T18:10:16Z</time>
      </trkpt>
      <trkpt lat="44.82198" lon="2.54516">
        <ele>745</ele>
        <time>2024-07-17T18:10:17Z</time>
      </trkpt>
      <trkpt lat="44.82197" lon="2.54508">
        <ele>745</ele>
        <time>2024-07-17T18:10:18Z</time>
      </trkpt>
      <trkpt lat="44.82195" lon="2.545">
        <ele>744</ele>
        <time>2024-07-17T18:10:19Z</time>
      </trkpt>
      <trkpt lat="44.82193" lon="2.54491">
        <ele>745</ele>
        <time>2024-07-17T18:10:20Z</time>
      </trkpt>
      <trkpt lat="44.8219" lon="2.54482">
        <ele>745</ele>
        <time>2024-07-17T18:10:21Z</time>
      </trkpt>
      <trkpt lat="44.82185" lon="2.54472">
        <ele>745</ele>
        <time>2024-07-17T18:10:22Z</time>
      </trkpt>
      <trkpt lat="44.82181" lon="2.54464">
        <ele>744</ele>
        <time>2024-07-17T18:10:23Z</time>
      </trkpt>
      <trkpt lat="44.82176" lon="2.54454">
        <ele>744</ele>
        <time>2024-07-17T18:10:24Z</time>
      </trkpt>
      <trkpt lat="44.82171" lon="2.54447">
        <ele>744</ele>
        <time>2024-07-17T18:10:25Z</time>
      </trkpt>
      <trkpt lat="44.82165" lon="2.54443">
        <ele>745</ele>
        <time>2024-07-17T18:10:26Z</time>
      </trkpt>
      <trkpt lat="44.82161" lon="2.54439">
        <ele>745</ele>
        <time>2024-07-17T18:10:27Z</time>
      </trkpt>
      <trkpt lat="44.82155" lon="2.54438">
        <ele>745</ele>
        <time>2024-07-17T18:10:28Z</time>
      </trkpt>
      <trkpt lat="44.82148" lon="2.5444">
        <ele>745</ele>
        <time>2024-07-17T18:10:29Z</time>
      </trkpt>
      <trkpt lat="44.82142" lon="2.54439">
        <ele>745</ele>
        <time>2024-07-17T18:10:30Z</time>
      </trkpt>
      <trkpt lat="44.82136" lon="2.54438">
        <ele>746</ele>
        <time>2024-07-17T18:10:31Z</time>
      </trkpt>
      <trkpt lat="44.82129" lon="2.54427">
        <ele>747</ele>
        <time>2024-07-17T18:10:33Z</time>
      </trkpt>
      <trkpt lat="44.82121" lon="2.54415">
        <ele>749</ele>
        <time>2024-07-17T18:10:34Z</time>
      </trkpt>
      <trkpt lat="44.82113" lon="2.54401">
        <ele>748</ele>
        <time>2024-07-17T18:10:35Z</time>
      </trkpt>
      <trkpt lat="44.82107" lon="2.54388">
        <ele>749</ele>
        <time>2024-07-17T18:10:36Z</time>
      </trkpt>
      <trkpt lat="44.82103" lon="2.54376">
        <ele>749</ele>
        <time>2024-07-17T18:10:37Z</time>
      </trkpt>
      <trkpt lat="44.82102" lon="2.54363">
        <ele>751</ele>
        <time>2024-07-17T18:10:38Z</time>
      </trkpt>
      <trkpt lat="44.82101" lon="2.54351">
        <ele>752</ele>
        <time>2024-07-17T18:10:39Z</time>
      </trkpt>
      <trkpt lat="44.821" lon="2.54341">
        <ele>751</ele>
        <time>2024-07-17T18:10:40Z</time>
      </trkpt>
      <trkpt lat="44.82099" lon="2.54333">
        <ele>750</ele>
        <time>2024-07-17T18:10:41Z</time>
      </trkpt>
      <trkpt lat="44.82099" lon="2.54323">
        <ele>751</ele>
        <time>2024-07-17T18:10:43Z</time>
      </trkpt>
      <trkpt lat="44.82096" lon="2.54317">
        <ele>751</ele>
        <time>2024-07-17T18:10:44Z</time>
      </trkpt>
      <trkpt lat="44.82096" lon="2.54316">
        <ele>750</ele>
        <time>2024-07-17T18:10:45Z</time>
      </trkpt>
      <trkpt lat="44.82095" lon="2.54314">
        <ele>750</ele>
        <time>2024-07-17T18:10:46Z</time>
      </trkpt>
      <trkpt lat="44.82084" lon="2.54327">
        <ele>749</ele>
        <time>2024-07-17T18:10:48Z</time>
      </trkpt>
      <trkpt lat="44.82075" lon="2.54336">
        <ele>748</ele>
        <time>2024-07-17T18:10:49Z</time>
      </trkpt>
      <trkpt lat="44.82065" lon="2.54342">
        <ele>748</ele>
        <time>2024-07-17T18:10:50Z</time>
      </trkpt>
      <trkpt lat="44.82054" lon="2.54347">
        <ele>746</ele>
        <time>2024-07-17T18:10:51Z</time>
      </trkpt>
      <trkpt lat="44.82043" lon="2.54353">
        <ele>747</ele>
        <time>2024-07-17T18:10:52Z</time>
      </trkpt>
      <trkpt lat="44.82033" lon="2.54359">
        <ele>746</ele>
        <time>2024-07-17T18:10:53Z</time>
      </trkpt>
      <trkpt lat="44.82024" lon="2.54363">
        <ele>745</ele>
        <time>2024-07-17T18:10:54Z</time>
      </trkpt>
      <trkpt lat="44.82015" lon="2.54368">
        <ele>744</ele>
        <time>2024-07-17T18:10:55Z</time>
      </trkpt>
      <trkpt lat="44.82004" lon="2.54372">
        <ele>744</ele>
        <time>2024-07-17T18:10:56Z</time>
      </trkpt>
      <trkpt lat="44.81994" lon="2.54376">
        <ele>744</ele>
        <time>2024-07-17T18:10:57Z</time>
      </trkpt>
      <trkpt lat="44.81984" lon="2.54379">
        <ele>743</ele>
        <time>2024-07-17T18:10:58Z</time>
      </trkpt>
      <trkpt lat="44.81975" lon="2.54383">
        <ele>743</ele>
        <time>2024-07-17T18:10:59Z</time>
      </trkpt>
      <trkpt lat="44.81966" lon="2.54388">
        <ele>742</ele>
        <time>2024-07-17T18:11:00Z</time>
      </trkpt>
      <trkpt lat="44.81955" lon="2.54394">
        <ele>742</ele>
        <time>2024-07-17T18:11:01Z</time>
      </trkpt>
      <trkpt lat="44.81945" lon="2.54403">
        <ele>741</ele>
        <time>2024-07-17T18:11:02Z</time>
      </trkpt>
      <trkpt lat="44.81936" lon="2.54414">
        <ele>739</ele>
        <time>2024-07-17T18:11:03Z</time>
      </trkpt>
      <trkpt lat="44.81926" lon="2.54427">
        <ele>738</ele>
        <time>2024-07-17T18:11:04Z</time>
      </trkpt>
      <trkpt lat="44.81916" lon="2.54439">
        <ele>737</ele>
        <time>2024-07-17T18:11:05Z</time>
      </trkpt>
      <trkpt lat="44.81905" lon="2.5445">
        <ele>737</ele>
        <time>2024-07-17T18:11:06Z</time>
      </trkpt>
      <trkpt lat="44.81895" lon="2.54454">
        <ele>735</ele>
        <time>2024-07-17T18:11:07Z</time>
      </trkpt>
      <trkpt lat="44.81885" lon="2.54458">
        <ele>735</ele>
        <time>2024-07-17T18:11:08Z</time>
      </trkpt>
      <trkpt lat="44.81873" lon="2.54461">
        <ele>735</ele>
        <time>2024-07-17T18:11:09Z</time>
      </trkpt>
      <trkpt lat="44.81863" lon="2.54468">
        <ele>734</ele>
        <time>2024-07-17T18:11:10Z</time>
      </trkpt>
      <trkpt lat="44.81853" lon="2.54473">
        <ele>733</ele>
        <time>2024-07-17T18:11:11Z</time>
      </trkpt>
      <trkpt lat="44.81845" lon="2.54482">
        <ele>734</ele>
        <time>2024-07-17T18:11:12Z</time>
      </trkpt>
      <trkpt lat="44.81837" lon="2.54491">
        <ele>734</ele>
        <time>2024-07-17T18:11:12Z</time>
      </trkpt>
      <trkpt lat="44.8183" lon="2.54502">
        <ele>733</ele>
        <time>2024-07-17T18:11:13Z</time>
      </trkpt>
      <trkpt lat="44.81823" lon="2.54513">
        <ele>734</ele>
        <time>2024-07-17T18:11:14Z</time>
      </trkpt>
      <trkpt lat="44.81817" lon="2.54524">
        <ele>734</ele>
        <time>2024-07-17T18:11:15Z</time>
      </trkpt>
      <trkpt lat="44.81809" lon="2.54539">
        <ele>734</ele>
        <time>2024-07-17T18:11:16Z</time>
      </trkpt>
      <trkpt lat="44.818" lon="2.54553">
        <ele>734</ele>
        <time>2024-07-17T18:11:17Z</time>
      </trkpt>
      <trkpt lat="44.81791" lon="2.54569">
        <ele>735</ele>
        <time>2024-07-17T18:11:18Z</time>
      </trkpt>
      <trkpt lat="44.81781" lon="2.54584">
        <ele>736</ele>
        <time>2024-07-17T18:11:19Z</time>
      </trkpt>
      <trkpt lat="44.8177" lon="2.54599">
        <ele>737</ele>
        <time>2024-07-17T18:11:20Z</time>
      </trkpt>
      <trkpt lat="44.8176" lon="2.54615">
        <ele>737</ele>
        <time>2024-07-17T18:11:21Z</time>
      </trkpt>
      <trkpt lat="44.81749" lon="2.54627">
        <ele>736</ele>
        <time>2024-07-17T18:11:22Z</time>
      </trkpt>
      <trkpt lat="44.81738" lon="2.5464">
        <ele>736</ele>
        <time>2024-07-17T18:11:23Z</time>
      </trkpt>
      <trkpt lat="44.81727" lon="2.54651">
        <ele>736</ele>
        <time>2024-07-17T18:11:24Z</time>
      </trkpt>
      <trkpt lat="44.81715" lon="2.54662">
        <ele>737</ele>
        <time>2024-07-17T18:11:25Z</time>
      </trkpt>
      <trkpt lat="44.81702" lon="2.54674">
        <ele>738</ele>
        <time>2024-07-17T18:11:26Z</time>
      </trkpt>
      <trkpt lat="44.8169" lon="2.54685">
        <ele>739</ele>
        <time>2024-07-17T18:11:27Z</time>
      </trkpt>
      <trkpt lat="44.81678" lon="2.54693">
        <ele>738</ele>
        <time>2024-07-17T18:11:28Z</time>
      </trkpt>
      <trkpt lat="44.81668" lon="2.54701">
        <ele>737</ele>
        <time>2024-07-17T18:11:29Z</time>
      </trkpt>
      <trkpt lat="44.81657" lon="2.54711">
        <ele>737</ele>
        <time>2024-07-17T18:11:30Z</time>
      </trkpt>
      <trkpt lat="44.81645" lon="2.54719">
        <ele>736</ele>
        <time>2024-07-17T18:11:31Z</time>
      </trkpt>
      <trkpt lat="44.81634" lon="2.54728">
        <ele>735</ele>
        <time>2024-07-17T18:11:32Z</time>
      </trkpt>
      <trkpt lat="44.81623" lon="2.54738">
        <ele>735</ele>
        <time>2024-07-17T18:11:33Z</time>
      </trkpt>
      <trkpt lat="44.81613" lon="2.5475">
        <ele>735</ele>
        <time>2024-07-17T18:11:34Z</time>
      </trkpt>
      <trkpt lat="44.81603" lon="2.54763">
        <ele>735</ele>
        <time>2024-07-17T18:11:35Z</time>
      </trkpt>
      <trkpt lat="44.81594" lon="2.54778">
        <ele>735</ele>
        <time>2024-07-17T18:11:36Z</time>
      </trkpt>
      <trkpt lat="44.81587" lon="2.54794">
        <ele>736</ele>
        <time>2024-07-17T18:11:37Z</time>
      </trkpt>
      <trkpt lat="44.8158" lon="2.54811">
        <ele>737</ele>
        <time>2024-07-17T18:11:38Z</time>
      </trkpt>
      <trkpt lat="44.81574" lon="2.54829">
        <ele>736</ele>
        <time>2024-07-17T18:11:39Z</time>
      </trkpt>
      <trkpt lat="44.8157" lon="2.54843">
        <ele>735</ele>
        <time>2024-07-17T18:11:40Z</time>
      </trkpt>
      <trkpt lat="44.81567" lon="2.54857">
        <ele>734</ele>
        <time>2024-07-17T18:11:41Z</time>
      </trkpt>
      <trkpt lat="44.81566" lon="2.54867">
        <ele>734</ele>
        <time>2024-07-17T18:11:42Z</time>
      </trkpt>
      <trkpt lat="44.81565" lon="2.54876">
        <ele>733</ele>
        <time>2024-07-17T18:11:43Z</time>
      </trkpt>
      <trkpt lat="44.81562" lon="2.54884">
        <ele>733</ele>
        <time>2024-07-17T18:11:44Z</time>
      </trkpt>
      <trkpt lat="44.81558" lon="2.54894">
        <ele>733</ele>
        <time>2024-07-17T18:11:45Z</time>
      </trkpt>
      <trkpt lat="44.81554" lon="2.54906">
        <ele>733</ele>
        <time>2024-07-17T18:11:46Z</time>
      </trkpt>
      <trkpt lat="44.81552" lon="2.54922">
        <ele>734</ele>
        <time>2024-07-17T18:11:48Z</time>
      </trkpt>
      <trkpt lat="44.8155" lon="2.54937">
        <ele>734</ele>
        <time>2024-07-17T18:11:49Z</time>
      </trkpt>
      <trkpt lat="44.8155" lon="2.54951">
        <ele>732</ele>
        <time>2024-07-17T18:11:50Z</time>
      </trkpt>
      <trkpt lat="44.8155" lon="2.54963">
        <ele>731</ele>
        <time>2024-07-17T18:11:51Z</time>
      </trkpt>
      <trkpt lat="44.81549" lon="2.54975">
        <ele>731</ele>
        <time>2024-07-17T18:11:52Z</time>
      </trkpt>
      <trkpt lat="44.81546" lon="2.54985">
        <ele>730</ele>
        <time>2024-07-17T18:11:53Z</time>
      </trkpt>
      <trkpt lat="44.81541" lon="2.54996">
        <ele>730</ele>
        <time>2024-07-17T18:11:54Z</time>
      </trkpt>
      <trkpt lat="44.81534" lon="2.55007">
        <ele>730</ele>
        <time>2024-07-17T18:11:55Z</time>
      </trkpt>
      <trkpt lat="44.81526" lon="2.55017">
        <ele>730</ele>
        <time>2024-07-17T18:11:56Z</time>
      </trkpt>
      <trkpt lat="44.81515" lon="2.55026">
        <ele>730</ele>
        <time>2024-07-17T18:11:57Z</time>
      </trkpt>
      <trkpt lat="44.81504" lon="2.55033">
        <ele>729</ele>
        <time>2024-07-17T18:11:58Z</time>
      </trkpt>
      <trkpt lat="44.81492" lon="2.55039">
        <ele>729</ele>
        <time>2024-07-17T18:11:59Z</time>
      </trkpt>
      <trkpt lat="44.81481" lon="2.55045">
        <ele>729</ele>
        <time>2024-07-17T18:12:00Z</time>
      </trkpt>
      <trkpt lat="44.81469" lon="2.55051">
        <ele>728</ele>
        <time>2024-07-17T18:12:01Z</time>
      </trkpt>
      <trkpt lat="44.81457" lon="2.55057">
        <ele>728</ele>
        <time>2024-07-17T18:12:02Z</time>
      </trkpt>
      <trkpt lat="44.81444" lon="2.55064">
        <ele>728</ele>
        <time>2024-07-17T18:12:03Z</time>
      </trkpt>
      <trkpt lat="44.81433" lon="2.55072">
        <ele>728</ele>
        <time>2024-07-17T18:12:04Z</time>
      </trkpt>
      <trkpt lat="44.81421" lon="2.5508">
        <ele>727</ele>
        <time>2024-07-17T18:12:05Z</time>
      </trkpt>
      <trkpt lat="44.8141" lon="2.55087">
        <ele>727</ele>
        <time>2024-07-17T18:12:06Z</time>
      </trkpt>
      <trkpt lat="44.81399" lon="2.55092">
        <ele>727</ele>
        <time>2024-07-17T18:12:07Z</time>
      </trkpt>
      <trkpt lat="44.81389" lon="2.55097">
        <ele>726</ele>
        <time>2024-07-17T18:12:08Z</time>
      </trkpt>
      <trkpt lat="44.8138" lon="2.551">
        <ele>726</ele>
        <time>2024-07-17T18:12:09Z</time>
      </trkpt>
      <trkpt lat="44.81371" lon="2.55102">
        <ele>726</ele>
        <time>2024-07-17T18:12:10Z</time>
      </trkpt>
      <trkpt lat="44.81361" lon="2.55101">
        <ele>726</ele>
        <time>2024-07-17T18:12:11Z</time>
      </trkpt>
      <trkpt lat="44.81351" lon="2.55099">
        <ele>727</ele>
        <time>2024-07-17T18:12:12Z</time>
      </trkpt>
      <trkpt lat="44.81339" lon="2.55094">
        <ele>728</ele>
        <time>2024-07-17T18:12:13Z</time>
      </trkpt>
      <trkpt lat="44.81327" lon="2.55089">
        <ele>729</ele>
        <time>2024-07-17T18:12:14Z</time>
      </trkpt>
      <trkpt lat="44.81315" lon="2.55084">
        <ele>729</ele>
        <time>2024-07-17T18:12:15Z</time>
      </trkpt>
      <trkpt lat="44.81304" lon="2.55078">
        <ele>729</ele>
        <time>2024-07-17T18:12:16Z</time>
      </trkpt>
      <trkpt lat="44.81296" lon="2.55071">
        <ele>729</ele>
        <time>2024-07-17T18:12:17Z</time>
      </trkpt>
      <trkpt lat="44.81289" lon="2.55064">
        <ele>728</ele>
        <time>2024-07-17T18:12:18Z</time>
      </trkpt>
      <trkpt lat="44.81282" lon="2.55054">
        <ele>728</ele>
        <time>2024-07-17T18:12:19Z</time>
      </trkpt>
      <trkpt lat="44.81276" lon="2.55042">
        <ele>728</ele>
        <time>2024-07-17T18:12:20Z</time>
      </trkpt>
      <trkpt lat="44.81268" lon="2.55029">
        <ele>728</ele>
        <time>2024-07-17T18:12:21Z</time>
      </trkpt>
      <trkpt lat="44.8126" lon="2.55017">
        <ele>727</ele>
        <time>2024-07-17T18:12:22Z</time>
      </trkpt>
      <trkpt lat="44.81251" lon="2.55004">
        <ele>726</ele>
        <time>2024-07-17T18:12:23Z</time>
      </trkpt>
      <trkpt lat="44.81242" lon="2.5499">
        <ele>725</ele>
        <time>2024-07-17T18:12:24Z</time>
      </trkpt>
      <trkpt lat="44.81232" lon="2.54977">
        <ele>724</ele>
        <time>2024-07-17T18:12:25Z</time>
      </trkpt>
      <trkpt lat="44.81222" lon="2.54964">
        <ele>723</ele>
        <time>2024-07-17T18:12:26Z</time>
      </trkpt>
      <trkpt lat="44.81213" lon="2.54951">
        <ele>723</ele>
        <time>2024-07-17T18:12:27Z</time>
      </trkpt>
      <trkpt lat="44.81205" lon="2.54938">
        <ele>722</ele>
        <time>2024-07-17T18:12:28Z</time>
      </trkpt>
      <trkpt lat="44.81197" lon="2.54925">
        <ele>721</ele>
        <time>2024-07-17T18:12:29Z</time>
      </trkpt>
      <trkpt lat="44.81198" lon="2.5491">
        <ele>721</ele>
        <time>2024-07-17T18:12:30Z</time>
      </trkpt>
      <trkpt lat="44.81198" lon="2.54898">
        <ele>721</ele>
        <time>2024-07-17T18:12:31Z</time>
      </trkpt>
      <trkpt lat="44.81199" lon="2.54888">
        <ele>721</ele>
        <time>2024-07-17T18:12:32Z</time>
      </trkpt>
      <trkpt lat="44.81201" lon="2.54877">
        <ele>721</ele>
        <time>2024-07-17T18:12:33Z</time>
      </trkpt>
      <trkpt lat="44.81203" lon="2.54867">
        <ele>721</ele>
        <time>2024-07-17T18:12:34Z</time>
      </trkpt>
      <trkpt lat="44.81205" lon="2.54855">
        <ele>720</ele>
        <time>2024-07-17T18:12:35Z</time>
      </trkpt>
      <trkpt lat="44.81206" lon="2.5484">
        <ele>719</ele>
        <time>2024-07-17T18:12:36Z</time>
      </trkpt>
      <trkpt lat="44.81206" lon="2.54839">
        <ele>718</ele>
        <time>2024-07-17T18:12:37Z</time>
      </trkpt>
      <trkpt lat="44.81204" lon="2.54825">
        <ele>718</ele>
        <time>2024-07-17T18:12:38Z</time>
      </trkpt>
      <trkpt lat="44.81192" lon="2.54819">
        <ele>717</ele>
        <time>2024-07-17T18:12:39Z</time>
      </trkpt>
      <trkpt lat="44.81184" lon="2.5481">
        <ele>716</ele>
        <time>2024-07-17T18:12:40Z</time>
      </trkpt>
      <trkpt lat="44.81177" lon="2.54799">
        <ele>715</ele>
        <time>2024-07-17T18:12:41Z</time>
      </trkpt>
      <trkpt lat="44.81172" lon="2.54782">
        <ele>715</ele>
        <time>2024-07-17T18:12:42Z</time>
      </trkpt>
      <trkpt lat="44.81165" lon="2.54769">
        <ele>715</ele>
        <time>2024-07-17T18:12:43Z</time>
      </trkpt>
      <trkpt lat="44.81157" lon="2.54757">
        <ele>715</ele>
        <time>2024-07-17T18:12:44Z</time>
      </trkpt>
      <trkpt lat="44.81151" lon="2.54746">
        <ele>713</ele>
        <time>2024-07-17T18:12:45Z</time>
      </trkpt>
      <trkpt lat="44.81146" lon="2.54739">
        <ele>712</ele>
        <time>2024-07-17T18:12:46Z</time>
      </trkpt>
      <trkpt lat="44.8114" lon="2.54734">
        <ele>712</ele>
        <time>2024-07-17T18:12:47Z</time>
      </trkpt>
      <trkpt lat="44.81135" lon="2.5473">
        <ele>711</ele>
        <time>2024-07-17T18:12:48Z</time>
      </trkpt>
      <trkpt lat="44.81127" lon="2.54731">
        <ele>710</ele>
        <time>2024-07-17T18:12:49Z</time>
      </trkpt>
      <trkpt lat="44.81121" lon="2.54733">
        <ele>709</ele>
        <time>2024-07-17T18:12:50Z</time>
      </trkpt>
      <trkpt lat="44.81114" lon="2.54737">
        <ele>708</ele>
        <time>2024-07-17T18:12:51Z</time>
      </trkpt>
      <trkpt lat="44.81107" lon="2.54741">
        <ele>708</ele>
        <time>2024-07-17T18:12:52Z</time>
      </trkpt>
      <trkpt lat="44.811" lon="2.54746">
        <ele>706</ele>
        <time>2024-07-17T18:12:53Z</time>
      </trkpt>
      <trkpt lat="44.81094" lon="2.54752">
        <ele>706</ele>
        <time>2024-07-17T18:12:54Z</time>
      </trkpt>
      <trkpt lat="44.81088" lon="2.54761">
        <ele>705</ele>
        <time>2024-07-17T18:12:55Z</time>
      </trkpt>
      <trkpt lat="44.81083" lon="2.54774">
        <ele>703</ele>
        <time>2024-07-17T18:12:56Z</time>
      </trkpt>
      <trkpt lat="44.81079" lon="2.54787">
        <ele>703</ele>
        <time>2024-07-17T18:12:57Z</time>
      </trkpt>
      <trkpt lat="44.81075" lon="2.54797">
        <ele>701</ele>
        <time>2024-07-17T18:12:58Z</time>
      </trkpt>
      <trkpt lat="44.8107" lon="2.54805">
        <ele>700</ele>
        <time>2024-07-17T18:12:59Z</time>
      </trkpt>
      <trkpt lat="44.81065" lon="2.54809">
        <ele>700</ele>
        <time>2024-07-17T18:13:00Z</time>
      </trkpt>
      <trkpt lat="44.8106" lon="2.54809">
        <ele>699</ele>
        <time>2024-07-17T18:13:01Z</time>
      </trkpt>
      <trkpt lat="44.81055" lon="2.54805">
        <ele>698</ele>
        <time>2024-07-17T18:13:02Z</time>
      </trkpt>
      <trkpt lat="44.8105" lon="2.54798">
        <ele>698</ele>
        <time>2024-07-17T18:13:03Z</time>
      </trkpt>
      <trkpt lat="44.81042" lon="2.54789">
        <ele>698</ele>
        <time>2024-07-17T18:13:04Z</time>
      </trkpt>
      <trkpt lat="44.81033" lon="2.5478">
        <ele>698</ele>
        <time>2024-07-17T18:13:05Z</time>
      </trkpt>
      <trkpt lat="44.81024" lon="2.5477">
        <ele>697</ele>
        <time>2024-07-17T18:13:06Z</time>
      </trkpt>
      <trkpt lat="44.81013" lon="2.54762">
        <ele>695</ele>
        <time>2024-07-17T18:13:07Z</time>
      </trkpt>
      <trkpt lat="44.81003" lon="2.54755">
        <ele>694</ele>
        <time>2024-07-17T18:13:08Z</time>
      </trkpt>
      <trkpt lat="44.80993" lon="2.54749">
        <ele>693</ele>
        <time>2024-07-17T18:13:09Z</time>
      </trkpt>
      <trkpt lat="44.80983" lon="2.54745">
        <ele>691</ele>
        <time>2024-07-17T18:13:10Z</time>
      </trkpt>
      <trkpt lat="44.80972" lon="2.54743">
        <ele>690</ele>
        <time>2024-07-17T18:13:11Z</time>
      </trkpt>
      <trkpt lat="44.80961" lon="2.54742">
        <ele>689</ele>
        <time>2024-07-17T18:13:12Z</time>
      </trkpt>
      <trkpt lat="44.80949" lon="2.54743">
        <ele>688</ele>
        <time>2024-07-17T18:13:13Z</time>
      </trkpt>
      <trkpt lat="44.80936" lon="2.54743">
        <ele>687</ele>
        <time>2024-07-17T18:13:14Z</time>
      </trkpt>
      <trkpt lat="44.80922" lon="2.54743">
        <ele>686</ele>
        <time>2024-07-17T18:13:15Z</time>
      </trkpt>
      <trkpt lat="44.80908" lon="2.54744">
        <ele>684</ele>
        <time>2024-07-17T18:13:16Z</time>
      </trkpt>
      <trkpt lat="44.80893" lon="2.54744">
        <ele>683</ele>
        <time>2024-07-17T18:13:17Z</time>
      </trkpt>
      <trkpt lat="44.8088" lon="2.5474">
        <ele>681</ele>
        <time>2024-07-17T18:13:18Z</time>
      </trkpt>
      <trkpt lat="44.80873" lon="2.54738">
        <ele>680</ele>
        <time>2024-07-17T18:13:19Z</time>
      </trkpt>
      <trkpt lat="44.80868" lon="2.54735">
        <ele>679</ele>
        <time>2024-07-17T18:13:20Z</time>
      </trkpt>
      <trkpt lat="44.80864" lon="2.54733">
        <ele>677</ele>
        <time>2024-07-17T18:13:21Z</time>
      </trkpt>
      <trkpt lat="44.80859" lon="2.54731">
        <ele>676</ele>
        <time>2024-07-17T18:13:22Z</time>
      </trkpt>
      <trkpt lat="44.80852" lon="2.54726">
        <ele>676</ele>
        <time>2024-07-17T18:13:23Z</time>
      </trkpt>
      <trkpt lat="44.80844" lon="2.54723">
        <ele>674</ele>
        <time>2024-07-17T18:13:24Z</time>
      </trkpt>
      <trkpt lat="44.80835" lon="2.54721">
        <ele>673</ele>
        <time>2024-07-17T18:13:25Z</time>
      </trkpt>
      <trkpt lat="44.80826" lon="2.54721">
        <ele>672</ele>
        <time>2024-07-17T18:13:26Z</time>
      </trkpt>
      <trkpt lat="44.80818" lon="2.54722">
        <ele>670</ele>
        <time>2024-07-17T18:13:27Z</time>
      </trkpt>
      <trkpt lat="44.8081" lon="2.54726">
        <ele>669</ele>
        <time>2024-07-17T18:13:28Z</time>
      </trkpt>
      <trkpt lat="44.80803" lon="2.5473">
        <ele>668</ele>
        <time>2024-07-17T18:13:29Z</time>
      </trkpt>
      <trkpt lat="44.80796" lon="2.54736">
        <ele>668</ele>
        <time>2024-07-17T18:13:30Z</time>
      </trkpt>
      <trkpt lat="44.80789" lon="2.54744">
        <ele>666</ele>
        <time>2024-07-17T18:13:31Z</time>
      </trkpt>
      <trkpt lat="44.80783" lon="2.54754">
        <ele>665</ele>
        <time>2024-07-17T18:13:32Z</time>
      </trkpt>
      <trkpt lat="44.80779" lon="2.54767">
        <ele>663</ele>
        <time>2024-07-17T18:13:33Z</time>
      </trkpt>
      <trkpt lat="44.80774" lon="2.54781">
        <ele>662</ele>
        <time>2024-07-17T18:13:33Z</time>
      </trkpt>
      <trkpt lat="44.8077" lon="2.54796">
        <ele>661</ele>
        <time>2024-07-17T18:13:34Z</time>
      </trkpt>
      <trkpt lat="44.80767" lon="2.5481">
        <ele>660</ele>
        <time>2024-07-17T18:13:35Z</time>
      </trkpt>
      <trkpt lat="44.80764" lon="2.54822">
        <ele>659</ele>
        <time>2024-07-17T18:13:36Z</time>
      </trkpt>
      <trkpt lat="44.80761" lon="2.54834">
        <ele>658</ele>
        <time>2024-07-17T18:13:37Z</time>
      </trkpt>
      <trkpt lat="44.80759" lon="2.54842">
        <ele>656</ele>
        <time>2024-07-17T18:13:38Z</time>
      </trkpt>
      <trkpt lat="44.80758" lon="2.54848">
        <ele>655</ele>
        <time>2024-07-17T18:13:39Z</time>
      </trkpt>
      <trkpt lat="44.80756" lon="2.54854">
        <ele>655</ele>
        <time>2024-07-17T18:13:40Z</time>
      </trkpt>
      <trkpt lat="44.80754" lon="2.54861">
        <ele>655</ele>
        <time>2024-07-17T18:13:41Z</time>
      </trkpt>
      <trkpt lat="44.80752" lon="2.54866">
        <ele>654</ele>
        <time>2024-07-17T18:13:42Z</time>
      </trkpt>
      <trkpt lat="44.8075" lon="2.54873">
        <ele>653</ele>
        <time>2024-07-17T18:13:43Z</time>
      </trkpt>
      <trkpt lat="44.80747" lon="2.54883">
        <ele>653</ele>
        <time>2024-07-17T18:13:44Z</time>
      </trkpt>
      <trkpt lat="44.80743" lon="2.54891">
        <ele>652</ele>
        <time>2024-07-17T18:13:45Z</time>
      </trkpt>
      <trkpt lat="44.80737" lon="2.54903">
        <ele>652</ele>
        <time>2024-07-17T18:13:46Z</time>
      </trkpt>
      <trkpt lat="44.80731" lon="2.54917">
        <ele>650</ele>
        <time>2024-07-17T18:13:47Z</time>
      </trkpt>
      <trkpt lat="44.80724" lon="2.54931">
        <ele>649</ele>
        <time>2024-07-17T18:13:48Z</time>
      </trkpt>
      <trkpt lat="44.80719" lon="2.54944">
        <ele>646</ele>
        <time>2024-07-17T18:13:49Z</time>
      </trkpt>
      <trkpt lat="44.80714" lon="2.54958">
        <ele>645</ele>
        <time>2024-07-17T18:13:50Z</time>
      </trkpt>
      <trkpt lat="44.80709" lon="2.54972">
        <ele>644</ele>
        <time>2024-07-17T18:13:52Z</time>
      </trkpt>
      <trkpt lat="44.80705" lon="2.54988">
        <ele>643</ele>
        <time>2024-07-17T18:13:53Z</time>
      </trkpt>
      <trkpt lat="44.80702" lon="2.55003">
        <ele>643</ele>
        <time>2024-07-17T18:13:54Z</time>
      </trkpt>
      <trkpt lat="44.80702" lon="2.55019">
        <ele>641</ele>
        <time>2024-07-17T18:13:55Z</time>
      </trkpt>
      <trkpt lat="44.80702" lon="2.55035">
        <ele>640</ele>
        <time>2024-07-17T18:13:56Z</time>
      </trkpt>
      <trkpt lat="44.80703" lon="2.55051">
        <ele>640</ele>
        <time>2024-07-17T18:13:57Z</time>
      </trkpt>
      <trkpt lat="44.80706" lon="2.55067">
        <ele>638</ele>
        <time>2024-07-17T18:13:58Z</time>
      </trkpt>
      <trkpt lat="44.80708" lon="2.55082">
        <ele>638</ele>
        <time>2024-07-17T18:13:59Z</time>
      </trkpt>
      <trkpt lat="44.80711" lon="2.55097">
        <ele>637</ele>
        <time>2024-07-17T18:14:00Z</time>
      </trkpt>
      <trkpt lat="44.80711" lon="2.5511">
        <ele>635</ele>
        <time>2024-07-17T18:14:00Z</time>
      </trkpt>
      <trkpt lat="44.80711" lon="2.55119">
        <ele>634</ele>
        <time>2024-07-17T18:14:01Z</time>
      </trkpt>
      <trkpt lat="44.80709" lon="2.55128">
        <ele>634</ele>
        <time>2024-07-17T18:14:03Z</time>
      </trkpt>
      <trkpt lat="44.80706" lon="2.55134">
        <ele>633</ele>
        <time>2024-07-17T18:14:04Z</time>
      </trkpt>
      <trkpt lat="44.80702" lon="2.55135">
        <ele>633</ele>
        <time>2024-07-17T18:14:05Z</time>
      </trkpt>
      <trkpt lat="44.80698" lon="2.55137">
        <ele>632</ele>
        <time>2024-07-17T18:14:06Z</time>
      </trkpt>
      <trkpt lat="44.80692" lon="2.55141">
        <ele>631</ele>
        <time>2024-07-17T18:14:07Z</time>
      </trkpt>
      <trkpt lat="44.80684" lon="2.55147">
        <ele>630</ele>
        <time>2024-07-17T18:14:08Z</time>
      </trkpt>
      <trkpt lat="44.80674" lon="2.55152">
        <ele>628</ele>
        <time>2024-07-17T18:14:09Z</time>
      </trkpt>
      <trkpt lat="44.80665" lon="2.55157">
        <ele>626</ele>
        <time>2024-07-17T18:14:10Z</time>
      </trkpt>
      <trkpt lat="44.80657" lon="2.55163">
        <ele>625</ele>
        <time>2024-07-17T18:14:11Z</time>
      </trkpt>
      <trkpt lat="44.80649" lon="2.55168">
        <ele>623</ele>
        <time>2024-07-17T18:14:12Z</time>
      </trkpt>
      <trkpt lat="44.80641" lon="2.55175">
        <ele>621</ele>
        <time>2024-07-17T18:14:13Z</time>
      </trkpt>
      <trkpt lat="44.80635" lon="2.55183">
        <ele>620</ele>
        <time>2024-07-17T18:14:14Z</time>
      </trkpt>
      <trkpt lat="44.80629" lon="2.55191">
        <ele>618</ele>
        <time>2024-07-17T18:14:15Z</time>
      </trkpt>
      <trkpt lat="44.80586" lon="2.55278">
        <ele>605</ele>
        <time>2024-07-17T18:14:24Z</time>
      </trkpt>
      <trkpt lat="44.80566" lon="2.55318">
        <ele>603</ele>
        <time>2024-07-17T18:14:25Z</time>
      </trkpt>
      <trkpt lat="44.80553" lon="2.55346">
        <ele>602</ele>
        <time>2024-07-17T18:14:26Z</time>
      </trkpt>
      <trkpt lat="44.80544" lon="2.55368">
        <ele>601</ele>
        <time>2024-07-17T18:14:27Z</time>
      </trkpt>
      <trkpt lat="44.80538" lon="2.55382">
        <ele>599</ele>
        <time>2024-07-17T18:14:28Z</time>
      </trkpt>
      <trkpt lat="44.80532" lon="2.55396">
        <ele>597</ele>
        <time>2024-07-17T18:14:29Z</time>
      </trkpt>
      <trkpt lat="44.80527" lon="2.55408">
        <ele>596</ele>
        <time>2024-07-17T18:14:30Z</time>
      </trkpt>
      <trkpt lat="44.8052" lon="2.5542">
        <ele>595</ele>
        <time>2024-07-17T18:14:31Z</time>
      </trkpt>
      <trkpt lat="44.80513" lon="2.55431">
        <ele>593</ele>
        <time>2024-07-17T18:14:32Z</time>
      </trkpt>
      <trkpt lat="44.80504" lon="2.55443">
        <ele>593</ele>
        <time>2024-07-17T18:14:33Z</time>
      </trkpt>
      <trkpt lat="44.80497" lon="2.55454">
        <ele>591</ele>
        <time>2024-07-17T18:14:34Z</time>
      </trkpt>
      <trkpt lat="44.80491" lon="2.55467">
        <ele>590</ele>
        <time>2024-07-17T18:14:35Z</time>
      </trkpt>
      <trkpt lat="44.80484" lon="2.55477">
        <ele>589</ele>
        <time>2024-07-17T18:14:36Z</time>
      </trkpt>
      <trkpt lat="44.80477" lon="2.55489">
        <ele>588</ele>
        <time>2024-07-17T18:14:37Z</time>
      </trkpt>
      <trkpt lat="44.8047" lon="2.55502">
        <ele>586</ele>
        <time>2024-07-17T18:14:38Z</time>
      </trkpt>
      <trkpt lat="44.80463" lon="2.55514">
        <ele>586</ele>
        <time>2024-07-17T18:14:39Z</time>
      </trkpt>
      <trkpt lat="44.80455" lon="2.55526">
        <ele>584</ele>
        <time>2024-07-17T18:14:40Z</time>
      </trkpt>
      <trkpt lat="44.80404" lon="2.55598">
        <ele>640</ele>
        <time>2024-07-17T18:14:48Z</time>
      </trkpt>
      <trkpt lat="44.80371" lon="2.55648">
        <ele>638</ele>
        <time>2024-07-17T18:14:50Z</time>
      </trkpt>
      <trkpt lat="44.80352" lon="2.55677">
        <ele>638</ele>
        <time>2024-07-17T18:14:51Z</time>
      </trkpt>
      <trkpt lat="44.8034" lon="2.55697">
        <ele>638</ele>
        <time>2024-07-17T18:14:52Z</time>
      </trkpt>
      <trkpt lat="44.8033" lon="2.55715">
        <ele>637</ele>
        <time>2024-07-17T18:14:54Z</time>
      </trkpt>
      <trkpt lat="44.80324" lon="2.55728">
        <ele>634</ele>
        <time>2024-07-17T18:14:55Z</time>
      </trkpt>
      <trkpt lat="44.80318" lon="2.55743">
        <ele>634</ele>
        <time>2024-07-17T18:14:56Z</time>
      </trkpt>
      <trkpt lat="44.80314" lon="2.55757">
        <ele>632</ele>
        <time>2024-07-17T18:14:57Z</time>
      </trkpt>
      <trkpt lat="44.8031" lon="2.55774">
        <ele>631</ele>
        <time>2024-07-17T18:14:58Z</time>
      </trkpt>
      <trkpt lat="44.80307" lon="2.55783">
        <ele>629</ele>
        <time>2024-07-17T18:14:59Z</time>
      </trkpt>
      <trkpt lat="44.80301" lon="2.55798">
        <ele>629</ele>
        <time>2024-07-17T18:15:00Z</time>
      </trkpt>
      <trkpt lat="44.8031" lon="2.5578">
        <ele>555</ele>
        <time>2024-07-17T18:15:01Z</time>
      </trkpt>
      <trkpt lat="44.8031" lon="2.55779">
        <ele>554</ele>
        <time>2024-07-17T18:15:02Z</time>
      </trkpt>
      <trkpt lat="44.80307" lon="2.55785">
        <ele>554</ele>
        <time>2024-07-17T18:15:03Z</time>
      </trkpt>
      <trkpt lat="44.80303" lon="2.55794">
        <ele>552</ele>
        <time>2024-07-17T18:15:04Z</time>
      </trkpt>
      <trkpt lat="44.80298" lon="2.55806">
        <ele>551</ele>
        <time>2024-07-17T18:15:05Z</time>
      </trkpt>
      <trkpt lat="44.80291" lon="2.55818">
        <ele>550</ele>
        <time>2024-07-17T18:15:06Z</time>
      </trkpt>
      <trkpt lat="44.80286" lon="2.5583">
        <ele>549</ele>
        <time>2024-07-17T18:15:07Z</time>
      </trkpt>
      <trkpt lat="44.8028" lon="2.5584">
        <ele>547</ele>
        <time>2024-07-17T18:15:08Z</time>
      </trkpt>
      <trkpt lat="44.80275" lon="2.55851">
        <ele>546</ele>
        <time>2024-07-17T18:15:09Z</time>
      </trkpt>
      <trkpt lat="44.80269" lon="2.5586">
        <ele>544</ele>
        <time>2024-07-17T18:15:10Z</time>
      </trkpt>
      <trkpt lat="44.80264" lon="2.55871">
        <ele>543</ele>
        <time>2024-07-17T18:15:11Z</time>
      </trkpt>
      <trkpt lat="44.80259" lon="2.55883">
        <ele>543</ele>
        <time>2024-07-17T18:15:12Z</time>
      </trkpt>
      <trkpt lat="44.80256" lon="2.55895">
        <ele>542</ele>
        <time>2024-07-17T18:15:13Z</time>
      </trkpt>
      <trkpt lat="44.80257" lon="2.55909">
        <ele>541</ele>
        <time>2024-07-17T18:15:14Z</time>
      </trkpt>
      <trkpt lat="44.80256" lon="2.5592">
        <ele>540</ele>
        <time>2024-07-17T18:15:15Z</time>
      </trkpt>
      <trkpt lat="44.80254" lon="2.5593">
        <ele>539</ele>
        <time>2024-07-17T18:15:16Z</time>
      </trkpt>
      <trkpt lat="44.80251" lon="2.55937">
        <ele>539</ele>
        <time>2024-07-17T18:15:17Z</time>
      </trkpt>
      <trkpt lat="44.80247" lon="2.55945">
        <ele>538</ele>
        <time>2024-07-17T18:15:18Z</time>
      </trkpt>
      <trkpt lat="44.80242" lon="2.55954">
        <ele>538</ele>
        <time>2024-07-17T18:15:19Z</time>
      </trkpt>
      <trkpt lat="44.80236" lon="2.55964">
        <ele>537</ele>
        <time>2024-07-17T18:15:20Z</time>
      </trkpt>
      <trkpt lat="44.8023" lon="2.55976">
        <ele>537</ele>
        <time>2024-07-17T18:15:21Z</time>
      </trkpt>
      <trkpt lat="44.80222" lon="2.55991">
        <ele>537</ele>
        <time>2024-07-17T18:15:22Z</time>
      </trkpt>
      <trkpt lat="44.80215" lon="2.56005">
        <ele>536</ele>
        <time>2024-07-17T18:15:23Z</time>
      </trkpt>
      <trkpt lat="44.80208" lon="2.56021">
        <ele>535</ele>
        <time>2024-07-17T18:15:24Z</time>
      </trkpt>
      <trkpt lat="44.80197" lon="2.56034">
        <ele>533</ele>
        <time>2024-07-17T18:15:25Z</time>
      </trkpt>
      <trkpt lat="44.80188" lon="2.56049">
        <ele>532</ele>
        <time>2024-07-17T18:15:26Z</time>
      </trkpt>
      <trkpt lat="44.80179" lon="2.56064">
        <ele>531</ele>
        <time>2024-07-17T18:15:27Z</time>
      </trkpt>
      <trkpt lat="44.8017" lon="2.56079">
        <ele>529</ele>
        <time>2024-07-17T18:15:28Z</time>
      </trkpt>
      <trkpt lat="44.80161" lon="2.56094">
        <ele>528</ele>
        <time>2024-07-17T18:15:29Z</time>
      </trkpt>
      <trkpt lat="44.80151" lon="2.56108">
        <ele>527</ele>
        <time>2024-07-17T18:15:30Z</time>
      </trkpt>
      <trkpt lat="44.8014" lon="2.56122">
        <ele>525</ele>
        <time>2024-07-17T18:15:31Z</time>
      </trkpt>
      <trkpt lat="44.80129" lon="2.56137">
        <ele>524</ele>
        <time>2024-07-17T18:15:32Z</time>
      </trkpt>
      <trkpt lat="44.80117" lon="2.56151">
        <ele>522</ele>
        <time>2024-07-17T18:15:33Z</time>
      </trkpt>
      <trkpt lat="44.80104" lon="2.56163">
        <ele>520</ele>
        <time>2024-07-17T18:15:34Z</time>
      </trkpt>
      <trkpt lat="44.80092" lon="2.56173">
        <ele>517</ele>
        <time>2024-07-17T18:15:35Z</time>
      </trkpt>
      <trkpt lat="44.8008" lon="2.56181">
        <ele>515</ele>
        <time>2024-07-17T18:15:36Z</time>
      </trkpt>
      <trkpt lat="44.80068" lon="2.56184">
        <ele>513</ele>
        <time>2024-07-17T18:15:37Z</time>
      </trkpt>
      <trkpt lat="44.80065" lon="2.56195">
        <ele>511</ele>
        <time>2024-07-17T18:15:38Z</time>
      </trkpt>
      <trkpt lat="44.80076" lon="2.56208">
        <ele>510</ele>
        <time>2024-07-17T18:15:39Z</time>
      </trkpt>
      <trkpt lat="44.80081" lon="2.56216">
        <ele>510</ele>
        <time>2024-07-17T18:15:40Z</time>
      </trkpt>
      <trkpt lat="44.80082" lon="2.56224">
        <ele>510</ele>
        <time>2024-07-17T18:15:41Z</time>
      </trkpt>
      <trkpt lat="44.80081" lon="2.56232">
        <ele>509</ele>
        <time>2024-07-17T18:15:42Z</time>
      </trkpt>
      <trkpt lat="44.8008" lon="2.56241">
        <ele>509</ele>
        <time>2024-07-17T18:15:43Z</time>
      </trkpt>
      <trkpt lat="44.80082" lon="2.56248">
        <ele>509</ele>
        <time>2024-07-17T18:15:44Z</time>
      </trkpt>
      <trkpt lat="44.80084" lon="2.56257">
        <ele>508</ele>
        <time>2024-07-17T18:15:45Z</time>
      </trkpt>
      <trkpt lat="44.80088" lon="2.56265">
        <ele>507</ele>
        <time>2024-07-17T18:15:46Z</time>
      </trkpt>
      <trkpt lat="44.80096" lon="2.56276">
        <ele>507</ele>
        <time>2024-07-17T18:15:47Z</time>
      </trkpt>
      <trkpt lat="44.801" lon="2.56284">
        <ele>506</ele>
        <time>2024-07-17T18:15:48Z</time>
      </trkpt>
      <trkpt lat="44.80103" lon="2.56289">
        <ele>504</ele>
        <time>2024-07-17T18:15:49Z</time>
      </trkpt>
      <trkpt lat="44.80103" lon="2.56294">
        <ele>503</ele>
        <time>2024-07-17T18:15:51Z</time>
      </trkpt>
      <trkpt lat="44.80107" lon="2.56298">
        <ele>502</ele>
        <time>2024-07-17T18:15:53Z</time>
      </trkpt>
      <trkpt lat="44.80108" lon="2.56296">
        <ele>501</ele>
        <time>2024-07-17T18:15:55Z</time>
      </trkpt>
      <trkpt lat="44.80127" lon="2.56301">
        <ele>497</ele>
        <time>2024-07-17T18:15:59Z</time>
      </trkpt>
      <trkpt lat="44.80146" lon="2.56303">
        <ele>498</ele>
        <time>2024-07-17T18:16:00Z</time>
      </trkpt>
      <trkpt lat="44.80164" lon="2.56306">
        <ele>496</ele>
        <time>2024-07-17T18:16:01Z</time>
      </trkpt>
      <trkpt lat="44.80175" lon="2.56307">
        <ele>495</ele>
        <time>2024-07-17T18:16:02Z</time>
      </trkpt>
      <trkpt lat="44.80188" lon="2.56306">
        <ele>494</ele>
        <time>2024-07-17T18:16:03Z</time>
      </trkpt>
      <trkpt lat="44.8021" lon="2.56303">
        <ele>491</ele>
        <time>2024-07-17T18:16:07Z</time>
      </trkpt>
      <trkpt lat="44.80259" lon="2.56297">
        <ele>492</ele>
        <time>2024-07-17T18:16:08Z</time>
      </trkpt>
      <trkpt lat="44.80278" lon="2.56298">
        <ele>492</ele>
        <time>2024-07-17T18:16:09Z</time>
      </trkpt>
      <trkpt lat="44.80301" lon="2.56299">
        <ele>493</ele>
        <time>2024-07-17T18:16:10Z</time>
      </trkpt>
      <trkpt lat="44.80307" lon="2.56298">
        <ele>492</ele>
        <time>2024-07-17T18:16:11Z</time>
      </trkpt>
      <trkpt lat="44.80307" lon="2.56298">
        <ele>492</ele>
        <time>2024-07-17T18:16:12Z</time>
      </trkpt>
      <trkpt lat="44.80303" lon="2.56298">
        <ele>492</ele>
        <time>2024-07-17T18:16:13Z</time>
      </trkpt>
      <trkpt lat="44.80297" lon="2.56297">
        <ele>492</ele>
        <time>2024-07-17T18:16:14Z</time>
      </trkpt>
      <trkpt lat="44.8029" lon="2.56296">
        <ele>491</ele>
        <time>2024-07-17T18:16:15Z</time>
      </trkpt>
      <trkpt lat="44.80283" lon="2.56296">
        <ele>490</ele>
        <time>2024-07-17T18:16:16Z</time>
      </trkpt>
      <trkpt lat="44.80273" lon="2.56298">
        <ele>488</ele>
        <time>2024-07-17T18:16:17Z</time>
      </trkpt>
      <trkpt lat="44.80261" lon="2.56302">
        <ele>487</ele>
        <time>2024-07-17T18:16:18Z</time>
      </trkpt>
      <trkpt lat="44.8025" lon="2.56309">
        <ele>485</ele>
        <time>2024-07-17T18:16:19Z</time>
      </trkpt>
      <trkpt lat="44.80239" lon="2.56317">
        <ele>484</ele>
        <time>2024-07-17T18:16:20Z</time>
      </trkpt>
      <trkpt lat="44.80228" lon="2.56325">
        <ele>482</ele>
        <time>2024-07-17T18:16:21Z</time>
      </trkpt>
      <trkpt lat="44.80219" lon="2.56332">
        <ele>480</ele>
        <time>2024-07-17T18:16:22Z</time>
      </trkpt>
      <trkpt lat="44.80211" lon="2.56339">
        <ele>479</ele>
        <time>2024-07-17T18:16:23Z</time>
      </trkpt>
      <trkpt lat="44.80201" lon="2.56345">
        <ele>476</ele>
        <time>2024-07-17T18:16:24Z</time>
      </trkpt>
      <trkpt lat="44.80192" lon="2.56348">
        <ele>475</ele>
        <time>2024-07-17T18:16:25Z</time>
      </trkpt>
      <trkpt lat="44.80182" lon="2.56352">
        <ele>474</ele>
        <time>2024-07-17T18:16:26Z</time>
      </trkpt>
      <trkpt lat="44.80172" lon="2.56355">
        <ele>472</ele>
        <time>2024-07-17T18:16:27Z</time>
      </trkpt>
      <trkpt lat="44.80161" lon="2.56359">
        <ele>470</ele>
        <time>2024-07-17T18:16:28Z</time>
      </trkpt>
      <trkpt lat="44.8015" lon="2.56362">
        <ele>467</ele>
        <time>2024-07-17T18:16:29Z</time>
      </trkpt>
      <trkpt lat="44.8014" lon="2.56363">
        <ele>464</ele>
        <time>2024-07-17T18:16:30Z</time>
      </trkpt>
      <trkpt lat="44.8013" lon="2.56363">
        <ele>462</ele>
        <time>2024-07-17T18:16:31Z</time>
      </trkpt>
      <trkpt lat="44.8012" lon="2.56363">
        <ele>460</ele>
        <time>2024-07-17T18:16:32Z</time>
      </trkpt>
      <trkpt lat="44.8011" lon="2.56361">
        <ele>459</ele>
        <time>2024-07-17T18:16:33Z</time>
      </trkpt>
      <trkpt lat="44.801" lon="2.56358">
        <ele>457</ele>
        <time>2024-07-17T18:16:34Z</time>
      </trkpt>
      <trkpt lat="44.80091" lon="2.56356">
        <ele>455</ele>
        <time>2024-07-17T18:16:35Z</time>
      </trkpt>
      <trkpt lat="44.80081" lon="2.56355">
        <ele>453</ele>
        <time>2024-07-17T18:16:36Z</time>
      </trkpt>
      <trkpt lat="44.80071" lon="2.56357">
        <ele>452</ele>
        <time>2024-07-17T18:16:37Z</time>
      </trkpt>
      <trkpt lat="44.8006" lon="2.56361">
        <ele>450</ele>
        <time>2024-07-17T18:16:38Z</time>
      </trkpt>
      <trkpt lat="44.80051" lon="2.5636">
        <ele>449</ele>
        <time>2024-07-17T18:16:39Z</time>
      </trkpt>
      <trkpt lat="44.80041" lon="2.56366">
        <ele>447</ele>
        <time>2024-07-17T18:16:40Z</time>
      </trkpt>
      <trkpt lat="44.80031" lon="2.56374">
        <ele>444</ele>
        <time>2024-07-17T18:16:41Z</time>
      </trkpt>
      <trkpt lat="44.80021" lon="2.56381">
        <ele>442</ele>
        <time>2024-07-17T18:16:42Z</time>
      </trkpt>
      <trkpt lat="44.8001" lon="2.56388">
        <ele>441</ele>
        <time>2024-07-17T18:16:43Z</time>
      </trkpt>
      <trkpt lat="44.79999" lon="2.56392">
        <ele>439</ele>
        <time>2024-07-17T18:16:44Z</time>
      </trkpt>
      <trkpt lat="44.79989" lon="2.56394">
        <ele>437</ele>
        <time>2024-07-17T18:16:45Z</time>
      </trkpt>
      <trkpt lat="44.7998" lon="2.56396">
        <ele>436</ele>
        <time>2024-07-17T18:16:46Z</time>
      </trkpt>
      <trkpt lat="44.7997" lon="2.56396">
        <ele>434</ele>
        <time>2024-07-17T18:16:47Z</time>
      </trkpt>
      <trkpt lat="44.79961" lon="2.56393">
        <ele>433</ele>
        <time>2024-07-17T18:16:48Z</time>
      </trkpt>
      <trkpt lat="44.79952" lon="2.56389">
        <ele>431</ele>
        <time>2024-07-17T18:16:49Z</time>
      </trkpt>
      <trkpt lat="44.79941" lon="2.56387">
        <ele>430</ele>
        <time>2024-07-17T18:16:50Z</time>
      </trkpt>
      <trkpt lat="44.79929" lon="2.56385">
        <ele>428</ele>
        <time>2024-07-17T18:16:51Z</time>
      </trkpt>
      <trkpt lat="44.79918" lon="2.56382">
        <ele>426</ele>
        <time>2024-07-17T18:16:52Z</time>
      </trkpt>
      <trkpt lat="44.79909" lon="2.56379">
        <ele>424</ele>
        <time>2024-07-17T18:16:53Z</time>
      </trkpt>
      <trkpt lat="44.79902" lon="2.56376">
        <ele>421</ele>
        <time>2024-07-17T18:16:54Z</time>
      </trkpt>
      <trkpt lat="44.79897" lon="2.56374">
        <ele>420</ele>
        <time>2024-07-17T18:16:55Z</time>
      </trkpt>
      <trkpt lat="44.79893" lon="2.56372">
        <ele>419</ele>
        <time>2024-07-17T18:16:56Z</time>
      </trkpt>
      <trkpt lat="44.79891" lon="2.56368">
        <ele>418</ele>
        <time>2024-07-17T18:16:57Z</time>
      </trkpt>
      <trkpt lat="44.7989" lon="2.56361">
        <ele>418</ele>
        <time>2024-07-17T18:16:58Z</time>
      </trkpt>
      <trkpt lat="44.79893" lon="2.56354">
        <ele>417</ele>
        <time>2024-07-17T18:16:59Z</time>
      </trkpt>
      <trkpt lat="44.79894" lon="2.56347">
        <ele>416</ele>
        <time>2024-07-17T18:17:00Z</time>
      </trkpt>
      <trkpt lat="44.79894" lon="2.56342">
        <ele>416</ele>
        <time>2024-07-17T18:17:01Z</time>
      </trkpt>
      <trkpt lat="44.79892" lon="2.56339">
        <ele>415</ele>
        <time>2024-07-17T18:17:02Z</time>
      </trkpt>
      <trkpt lat="44.79889" lon="2.56339">
        <ele>414</ele>
        <time>2024-07-17T18:17:03Z</time>
      </trkpt>
      <trkpt lat="44.79886" lon="2.5634">
        <ele>414</ele>
        <time>2024-07-17T18:17:04Z</time>
      </trkpt>
      <trkpt lat="44.79883" lon="2.56345">
        <ele>414</ele>
        <time>2024-07-17T18:17:05Z</time>
      </trkpt>
      <trkpt lat="44.79879" lon="2.56353">
        <ele>413</ele>
        <time>2024-07-17T18:17:07Z</time>
      </trkpt>
      <trkpt lat="44.79876" lon="2.56361">
        <ele>412</ele>
        <time>2024-07-17T18:17:08Z</time>
      </trkpt>
      <trkpt lat="44.79874" lon="2.56369">
        <ele>411</ele>
        <time>2024-07-17T18:17:09Z</time>
      </trkpt>
      <trkpt lat="44.79872" lon="2.56374">
        <ele>410</ele>
        <time>2024-07-17T18:17:10Z</time>
      </trkpt>
      <trkpt lat="44.7987" lon="2.5638">
        <ele>410</ele>
        <time>2024-07-17T18:17:12Z</time>
      </trkpt>
      <trkpt lat="44.79867" lon="2.56384">
        <ele>409</ele>
        <time>2024-07-17T18:17:15Z</time>
      </trkpt>
      <trkpt lat="44.79864" lon="2.56384">
        <ele>408</ele>
        <time>2024-07-17T18:17:22Z</time>
      </trkpt>
      <trkpt lat="44.79863" lon="2.56387">
        <ele>409</ele>
        <time>2024-07-17T18:17:23Z</time>
      </trkpt>
      <trkpt lat="44.79863" lon="2.56392">
        <ele>410</ele>
        <time>2024-07-17T18:17:27Z</time>
      </trkpt>
      <trkpt lat="44.79862" lon="2.56391">
        <ele>409</ele>
        <time>2024-07-17T18:17:32Z</time>
      </trkpt>
      <trkpt lat="44.79858" lon="2.56391">
        <ele>409</ele>
        <time>2024-07-17T18:17:37Z</time>
      </trkpt>
      <trkpt lat="44.79855" lon="2.56388">
        <ele>410</ele>
        <time>2024-07-17T18:17:39Z</time>
      </trkpt>
      <trkpt lat="44.79854" lon="2.56384">
        <ele>410</ele>
        <time>2024-07-17T18:17:40Z</time>
      </trkpt>
      <trkpt lat="44.79851" lon="2.56382">
        <ele>409</ele>
        <time>2024-07-17T18:17:42Z</time>
      </trkpt>
      <trkpt lat="44.79849" lon="2.5638">
        <ele>409</ele>
        <time>2024-07-17T18:17:45Z</time>
      </trkpt>
      <trkpt lat="44.79845" lon="2.56379">
        <ele>409</ele>
        <time>2024-07-17T18:17:48Z</time>
      </trkpt>
      <trkpt lat="44.79843" lon="2.56376">
        <ele>409</ele>
        <time>2024-07-17T18:17:52Z</time>
      </trkpt>
      <trkpt lat="44.7984" lon="2.56374">
        <ele>410</ele>
        <time>2024-07-17T18:17:54Z</time>
      </trkpt>
      <trkpt lat="44.79837" lon="2.56372">
        <ele>409</ele>
        <time>2024-07-17T18:17:57Z</time>
      </trkpt>
      <trkpt lat="44.79834" lon="2.56369">
        <ele>409</ele>
        <time>2024-07-17T18:17:59Z</time>
      </trkpt>
      <trkpt lat="44.79831" lon="2.56367">
        <ele>410</ele>
        <time>2024-07-17T18:18:01Z</time>
      </trkpt>
      <trkpt lat="44.79827" lon="2.56367">
        <ele>409</ele>
        <time>2024-07-17T18:18:04Z</time>
      </trkpt>
      <trkpt lat="44.79823" lon="2.56366">
        <ele>409</ele>
        <time>2024-07-17T18:18:07Z</time>
      </trkpt>
      <trkpt lat="44.79819" lon="2.56364">
        <ele>411</ele>
        <time>2024-07-17T18:18:12Z</time>
      </trkpt>
      <trkpt lat="44.79816" lon="2.56361">
        <ele>407</ele>
        <time>2024-07-17T18:18:16Z</time>
      </trkpt>
      <trkpt lat="44.79813" lon="2.56359">
        <ele>409</ele>
        <time>2024-07-17T18:18:20Z</time>
      </trkpt>
      <trkpt lat="44.7981" lon="2.56361">
        <ele>408</ele>
        <time>2024-07-17T18:18:37Z</time>
      </trkpt>
      <trkpt lat="44.7981" lon="2.56358">
        <ele>409</ele>
        <time>2024-07-17T18:18:45Z</time>
      </trkpt>
      <trkpt lat="44.79812" lon="2.56359">
        <ele>409</ele>
        <time>2024-07-17T18:18:48Z</time>
      </trkpt>
      <trkpt lat="44.79815" lon="2.56362">
        <ele>409</ele>
        <time>2024-07-17T18:18:49Z</time>
      </trkpt>
      <trkpt lat="44.79818" lon="2.56364">
        <ele>408</ele>
        <time>2024-07-17T18:18:53Z</time>
      </trkpt>
      <trkpt lat="44.79821" lon="2.56366">
        <ele>407</ele>
        <time>2024-07-17T18:18:56Z</time>
      </trkpt>
      <trkpt lat="44.79824" lon="2.56367">
        <ele>407</ele>
        <time>2024-07-17T18:18:59Z</time>
      </trkpt>
      <trkpt lat="44.79828" lon="2.56369">
        <ele>409</ele>
        <time>2024-07-17T18:19:02Z</time>
      </trkpt>
      <trkpt lat="44.79831" lon="2.56369">
        <ele>411</ele>
        <time>2024-07-17T18:19:07Z</time>
      </trkpt>
      <trkpt lat="44.79831" lon="2.56369">
        <ele>409</ele>
        <time>2024-07-17T18:19:09Z</time>
      </trkpt>
      <trkpt lat="44.79833" lon="2.56367">
        <ele>409</ele>
        <time>2024-07-17T18:19:11Z</time>
      </trkpt>
      <trkpt lat="44.79833" lon="2.56369">
        <ele>410</ele>
        <time>2024-07-17T18:19:15Z</time>
      </trkpt>
      <trkpt lat="44.79832" lon="2.56365">
        <ele>410</ele>
        <time>2024-07-17T18:19:34Z</time>
      </trkpt>
      <trkpt lat="44.79833" lon="2.56368">
        <ele>409</ele>
        <time>2024-07-17T18:19:36Z</time>
      </trkpt>
      <trkpt lat="44.79836" lon="2.56371">
        <ele>409</ele>
        <time>2024-07-17T18:19:39Z</time>
      </trkpt>
      <trkpt lat="44.79839" lon="2.56373">
        <ele>409</ele>
        <time>2024-07-17T18:19:43Z</time>
      </trkpt>
      <trkpt lat="44.79842" lon="2.56375">
        <ele>410</ele>
        <time>2024-07-17T18:19:46Z</time>
      </trkpt>
      <trkpt lat="44.79845" lon="2.56376">
        <ele>410</ele>
        <time>2024-07-17T18:19:48Z</time>
      </trkpt>
      <trkpt lat="44.79849" lon="2.56378">
        <ele>410</ele>
        <time>2024-07-17T18:19:51Z</time>
      </trkpt>
      <trkpt lat="44.79853" lon="2.56379">
        <ele>409</ele>
        <time>2024-07-17T18:19:53Z</time>
      </trkpt>
      <trkpt lat="44.79856" lon="2.56382">
        <ele>410</ele>
        <time>2024-07-17T18:19:55Z</time>
      </trkpt>
      <trkpt lat="44.79858" lon="2.56382">
        <ele>409</ele>
        <time>2024-07-17T18:19:57Z</time>
      </trkpt>
      <trkpt lat="44.79861" lon="2.56384">
        <ele>409</ele>
        <time>2024-07-17T18:20:00Z</time>
      </trkpt>
      <trkpt lat="44.79864" lon="2.56384">
        <ele>409</ele>
        <time>2024-07-17T18:20:15Z</time>
      </trkpt>
      <trkpt lat="44.79867" lon="2.56385">
        <ele>411</ele>
        <time>2024-07-17T18:20:25Z</time>
      </trkpt>
      <trkpt lat="44.79866" lon="2.56385">
        <ele>410</ele>
        <time>2024-07-17T18:20:26Z</time>
      </trkpt>
      <trkpt lat="44.79864" lon="2.56387">
        <ele>410</ele>
        <time>2024-07-17T18:20:29Z</time>
      </trkpt>
      <trkpt lat="44.79858" lon="2.56386">
        <ele>410</ele>
        <time>2024-07-17T18:20:32Z</time>
      </trkpt>
      <trkpt lat="44.79853" lon="2.56384">
        <ele>411</ele>
        <time>2024-07-17T18:20:33Z</time>
      </trkpt>
      <trkpt lat="44.79847" lon="2.56381">
        <ele>411</ele>
        <time>2024-07-17T18:20:34Z</time>
      </trkpt>
      <trkpt lat="44.79842" lon="2.56378">
        <ele>411</ele>
        <time>2024-07-17T18:20:35Z</time>
      </trkpt>
      <trkpt lat="44.79837" lon="2.56374">
        <ele>411</ele>
        <time>2024-07-17T18:20:36Z</time>
      </trkpt>
      <trkpt lat="44.79832" lon="2.5637">
        <ele>411</ele>
        <time>2024-07-17T18:20:37Z</time>
      </trkpt>
      <trkpt lat="44.79827" lon="2.56368">
        <ele>411</ele>
        <time>2024-07-17T18:20:38Z</time>
      </trkpt>
      <trkpt lat="44.79822" lon="2.56367">
        <ele>411</ele>
        <time>2024-07-17T18:20:39Z</time>
      </trkpt>
      <trkpt lat="44.79818" lon="2.56366">
        <ele>411</ele>
        <time>2024-07-17T18:20:41Z</time>
      </trkpt>
      <trkpt lat="44.79816" lon="2.56363">
        <ele>410</ele>
        <time>2024-07-17T18:20:50Z</time>
      </trkpt>
      <trkpt lat="44.79813" lon="2.56363">
        <ele>409</ele>
        <time>2024-07-17T18:21:12Z</time>
      </trkpt>
      <trkpt lat="44.79812" lon="2.56361">
        <ele>405</ele>
        <time>2024-07-17T18:21:25Z</time>
      </trkpt>
      <trkpt lat="44.7981" lon="2.56361">
        <ele>408</ele>
        <time>2024-07-17T18:21:52Z</time>
      </trkpt>
      <trkpt lat="44.79807" lon="2.56361">
        <ele>407</ele>
        <time>2024-07-17T18:22:21Z</time>
      </trkpt>
      <trkpt lat="44.79807" lon="2.56358">
        <ele>406</ele>
        <time>2024-07-17T18:22:24Z</time>
      </trkpt>
      <trkpt lat="44.79804" lon="2.56357">
        <ele>409</ele>
        <time>2024-07-17T18:22:33Z</time>
      </trkpt>
      <trkpt lat="44.79803" lon="2.56353">
        <ele>410</ele>
        <time>2024-07-17T18:22:45Z</time>
      </trkpt>
      <trkpt lat="44.798" lon="2.56349">
        <ele>410</ele>
        <time>2024-07-17T18:22:46Z</time>
      </trkpt>
      <trkpt lat="44.79797" lon="2.56346">
        <ele>411</ele>
        <time>2024-07-17T18:22:48Z</time>
      </trkpt>
      <trkpt lat="44.79793" lon="2.56343">
        <ele>411</ele>
        <time>2024-07-17T18:22:50Z</time>
      </trkpt>
      <trkpt lat="44.79789" lon="2.56341">
        <ele>412</ele>
        <time>2024-07-17T18:22:51Z</time>
      </trkpt>
      <trkpt lat="44.79786" lon="2.56339">
        <ele>412</ele>
        <time>2024-07-17T18:22:52Z</time>
      </trkpt>
      <trkpt lat="44.79781" lon="2.56338">
        <ele>413</ele>
        <time>2024-07-17T18:22:53Z</time>
      </trkpt>
      <trkpt lat="44.79776" lon="2.56338">
        <ele>413</ele>
        <time>2024-07-17T18:22:54Z</time>
      </trkpt>
      <trkpt lat="44.7977" lon="2.5634">
        <ele>413</ele>
        <time>2024-07-17T18:22:55Z</time>
      </trkpt>
      <trkpt lat="44.79764" lon="2.56343">
        <ele>413</ele>
        <time>2024-07-17T18:22:56Z</time>
      </trkpt>
      <trkpt lat="44.79757" lon="2.56348">
        <ele>414</ele>
        <time>2024-07-17T18:22:57Z</time>
      </trkpt>
      <trkpt lat="44.7975" lon="2.56356">
        <ele>413</ele>
        <time>2024-07-17T18:22:58Z</time>
      </trkpt>
      <trkpt lat="44.79743" lon="2.56363">
        <ele>413</ele>
        <time>2024-07-17T18:22:59Z</time>
      </trkpt>
      <trkpt lat="44.79737" lon="2.5637">
        <ele>411</ele>
        <time>2024-07-17T18:23:00Z</time>
      </trkpt>
      <trkpt lat="44.79732" lon="2.56376">
        <ele>411</ele>
        <time>2024-07-17T18:23:01Z</time>
      </trkpt>
      <trkpt lat="44.79726" lon="2.5638">
        <ele>410</ele>
        <time>2024-07-17T18:23:02Z</time>
      </trkpt>
      <trkpt lat="44.7972" lon="2.56382">
        <ele>410</ele>
        <time>2024-07-17T18:23:03Z</time>
      </trkpt>
      <trkpt lat="44.79714" lon="2.56383">
        <ele>410</ele>
        <time>2024-07-17T18:23:04Z</time>
      </trkpt>
      <trkpt lat="44.79706" lon="2.56383">
        <ele>410</ele>
        <time>2024-07-17T18:23:05Z</time>
      </trkpt>
      <trkpt lat="44.79697" lon="2.56383">
        <ele>410</ele>
        <time>2024-07-17T18:23:06Z</time>
      </trkpt>
      <trkpt lat="44.79688" lon="2.56381">
        <ele>411</ele>
        <time>2024-07-17T18:23:07Z</time>
      </trkpt>
      <trkpt lat="44.79679" lon="2.56378">
        <ele>411</ele>
        <time>2024-07-17T18:23:08Z</time>
      </trkpt>
      <trkpt lat="44.79669" lon="2.56375">
        <ele>411</ele>
        <time>2024-07-17T18:23:09Z</time>
      </trkpt>
      <trkpt lat="44.7966" lon="2.56372">
        <ele>410</ele>
        <time>2024-07-17T18:23:10Z</time>
      </trkpt>
      <trkpt lat="44.7965" lon="2.56369">
        <ele>409</ele>
        <time>2024-07-17T18:23:11Z</time>
      </trkpt>
      <trkpt lat="44.79642" lon="2.56367">
        <ele>409</ele>
        <time>2024-07-17T18:23:12Z</time>
      </trkpt>
      <trkpt lat="44.79634" lon="2.56368">
        <ele>409</ele>
        <time>2024-07-17T18:23:13Z</time>
      </trkpt>
      <trkpt lat="44.79625" lon="2.56369">
        <ele>408</ele>
        <time>2024-07-17T18:23:14Z</time>
      </trkpt>
      <trkpt lat="44.79617" lon="2.56371">
        <ele>407</ele>
        <time>2024-07-17T18:23:15Z</time>
      </trkpt>
      <trkpt lat="44.79609" lon="2.56373">
        <ele>405</ele>
        <time>2024-07-17T18:23:16Z</time>
      </trkpt>
      <trkpt lat="44.79602" lon="2.56376">
        <ele>403</ele>
        <time>2024-07-17T18:23:17Z</time>
      </trkpt>
      <trkpt lat="44.79595" lon="2.56379">
        <ele>403</ele>
        <time>2024-07-17T18:23:18Z</time>
      </trkpt>
      <trkpt lat="44.79588" lon="2.56381">
        <ele>402</ele>
        <time>2024-07-17T18:23:19Z</time>
      </trkpt>
      <trkpt lat="44.79582" lon="2.56381">
        <ele>402</ele>
        <time>2024-07-17T18:23:20Z</time>
      </trkpt>
      <trkpt lat="44.79576" lon="2.56379">
        <ele>403</ele>
        <time>2024-07-17T18:23:21Z</time>
      </trkpt>
      <trkpt lat="44.79569" lon="2.56375">
        <ele>404</ele>
        <time>2024-07-17T18:23:22Z</time>
      </trkpt>
      <trkpt lat="44.79563" lon="2.56368">
        <ele>403</ele>
        <time>2024-07-17T18:23:23Z</time>
      </trkpt>
      <trkpt lat="44.79558" lon="2.56356">
        <ele>403</ele>
        <time>2024-07-17T18:23:24Z</time>
      </trkpt>
      <trkpt lat="44.79555" lon="2.56341">
        <ele>403</ele>
        <time>2024-07-17T18:23:25Z</time>
      </trkpt>
      <trkpt lat="44.79553" lon="2.56328">
        <ele>404</ele>
        <time>2024-07-17T18:23:26Z</time>
      </trkpt>
      <trkpt lat="44.79551" lon="2.56315">
        <ele>403</ele>
        <time>2024-07-17T18:23:27Z</time>
      </trkpt>
      <trkpt lat="44.79549" lon="2.56303">
        <ele>400</ele>
        <time>2024-07-17T18:23:28Z</time>
      </trkpt>
      <trkpt lat="44.79547" lon="2.56292">
        <ele>399</ele>
        <time>2024-07-17T18:23:29Z</time>
      </trkpt>
      <trkpt lat="44.79544" lon="2.5628">
        <ele>399</ele>
        <time>2024-07-17T18:23:30Z</time>
      </trkpt>
      <trkpt lat="44.7954" lon="2.5627">
        <ele>402</ele>
        <time>2024-07-17T18:23:31Z</time>
      </trkpt>
      <trkpt lat="44.79537" lon="2.56259">
        <ele>403</ele>
        <time>2024-07-17T18:23:32Z</time>
      </trkpt>
      <trkpt lat="44.79533" lon="2.56246">
        <ele>404</ele>
        <time>2024-07-17T18:23:33Z</time>
      </trkpt>
      <trkpt lat="44.79529" lon="2.56234">
        <ele>404</ele>
        <time>2024-07-17T18:23:34Z</time>
      </trkpt>
      <trkpt lat="44.79525" lon="2.56222">
        <ele>405</ele>
        <time>2024-07-17T18:23:35Z</time>
      </trkpt>
      <trkpt lat="44.7952" lon="2.56209">
        <ele>409</ele>
        <time>2024-07-17T18:23:36Z</time>
      </trkpt>
      <trkpt lat="44.79514" lon="2.56197">
        <ele>411</ele>
        <time>2024-07-17T18:23:37Z</time>
      </trkpt>
      <trkpt lat="44.79507" lon="2.56183">
        <ele>416</ele>
        <time>2024-07-17T18:23:38Z</time>
      </trkpt>
      <trkpt lat="44.79498" lon="2.5617">
        <ele>417</ele>
        <time>2024-07-17T18:23:39Z</time>
      </trkpt>
      <trkpt lat="44.7949" lon="2.56157">
        <ele>418</ele>
        <time>2024-07-17T18:23:40Z</time>
      </trkpt>
      <trkpt lat="44.79483" lon="2.56144">
        <ele>417</ele>
        <time>2024-07-17T18:23:41Z</time>
      </trkpt>
      <trkpt lat="44.79477" lon="2.56134">
        <ele>416</ele>
        <time>2024-07-17T18:23:42Z</time>
      </trkpt>
      <trkpt lat="44.7947" lon="2.56128">
        <ele>417</ele>
        <time>2024-07-17T18:23:43Z</time>
      </trkpt>
      <trkpt lat="44.79463" lon="2.5612">
        <ele>420</ele>
        <time>2024-07-17T18:23:44Z</time>
      </trkpt>
      <trkpt lat="44.79455" lon="2.56111">
        <ele>419</ele>
        <time>2024-07-17T18:23:45Z</time>
      </trkpt>
      <trkpt lat="44.79447" lon="2.56104">
        <ele>418</ele>
        <time>2024-07-17T18:23:46Z</time>
      </trkpt>
      <trkpt lat="44.79439" lon="2.56097">
        <ele>416</ele>
        <time>2024-07-17T18:23:47Z</time>
      </trkpt>
      <trkpt lat="44.79432" lon="2.56089">
        <ele>414</ele>
        <time>2024-07-17T18:23:48Z</time>
      </trkpt>
      <trkpt lat="44.79425" lon="2.56085">
        <ele>413</ele>
        <time>2024-07-17T18:23:49Z</time>
      </trkpt>
      <trkpt lat="44.79418" lon="2.5608">
        <ele>413</ele>
        <time>2024-07-17T18:23:50Z</time>
      </trkpt>
      <trkpt lat="44.79409" lon="2.56077">
        <ele>412</ele>
        <time>2024-07-17T18:23:51Z</time>
      </trkpt>
      <trkpt lat="44.79397" lon="2.56074">
        <ele>410</ele>
        <time>2024-07-17T18:23:52Z</time>
      </trkpt>
      <trkpt lat="44.79386" lon="2.56071">
        <ele>409</ele>
        <time>2024-07-17T18:23:53Z</time>
      </trkpt>
      <trkpt lat="44.79374" lon="2.5607">
        <ele>407</ele>
        <time>2024-07-17T18:23:54Z</time>
      </trkpt>
      <trkpt lat="44.79362" lon="2.56064">
        <ele>406</ele>
        <time>2024-07-17T18:23:55Z</time>
      </trkpt>
      <trkpt lat="44.79352" lon="2.56057">
        <ele>406</ele>
        <time>2024-07-17T18:23:56Z</time>
      </trkpt>
      <trkpt lat="44.7934" lon="2.5605">
        <ele>407</ele>
        <time>2024-07-17T18:23:57Z</time>
      </trkpt>
      <trkpt lat="44.79329" lon="2.56045">
        <ele>408</ele>
        <time>2024-07-17T18:23:58Z</time>
      </trkpt>
      <trkpt lat="44.79317" lon="2.5604">
        <ele>409</ele>
        <time>2024-07-17T18:23:59Z</time>
      </trkpt>
      <trkpt lat="44.79306" lon="2.56036">
        <ele>409</ele>
        <time>2024-07-17T18:24:00Z</time>
      </trkpt>
      <trkpt lat="44.79295" lon="2.56031">
        <ele>408</ele>
        <time>2024-07-17T18:24:01Z</time>
      </trkpt>
      <trkpt lat="44.79286" lon="2.56027">
        <ele>407</ele>
        <time>2024-07-17T18:24:02Z</time>
      </trkpt>
      <trkpt lat="44.79277" lon="2.56024">
        <ele>406</ele>
        <time>2024-07-17T18:24:03Z</time>
      </trkpt>
      <trkpt lat="44.79269" lon="2.5602">
        <ele>405</ele>
        <time>2024-07-17T18:24:04Z</time>
      </trkpt>
      <trkpt lat="44.79259" lon="2.56015">
        <ele>404</ele>
        <time>2024-07-17T18:24:05Z</time>
      </trkpt>
      <trkpt lat="44.79249" lon="2.56008">
        <ele>403</ele>
        <time>2024-07-17T18:24:06Z</time>
      </trkpt>
      <trkpt lat="44.79239" lon="2.56001">
        <ele>405</ele>
        <time>2024-07-17T18:24:07Z</time>
      </trkpt>
      <trkpt lat="44.79228" lon="2.55993">
        <ele>404</ele>
        <time>2024-07-17T18:24:08Z</time>
      </trkpt>
      <trkpt lat="44.79217" lon="2.55984">
        <ele>405</ele>
        <time>2024-07-17T18:24:09Z</time>
      </trkpt>
      <trkpt lat="44.79206" lon="2.55976">
        <ele>404</ele>
        <time>2024-07-17T18:24:10Z</time>
      </trkpt>
      <trkpt lat="44.79195" lon="2.55968">
        <ele>405</ele>
        <time>2024-07-17T18:24:11Z</time>
      </trkpt>
      <trkpt lat="44.79183" lon="2.5596">
        <ele>405</ele>
        <time>2024-07-17T18:24:12Z</time>
      </trkpt>
      <trkpt lat="44.79172" lon="2.55953">
        <ele>405</ele>
        <time>2024-07-17T18:24:13Z</time>
      </trkpt>
      <trkpt lat="44.7916" lon="2.55948">
        <ele>405</ele>
        <time>2024-07-17T18:24:14Z</time>
      </trkpt>
      <trkpt lat="44.79147" lon="2.5594">
        <ele>403</ele>
        <time>2024-07-17T18:24:15Z</time>
      </trkpt>
      <trkpt lat="44.79134" lon="2.55931">
        <ele>404</ele>
        <time>2024-07-17T18:24:16Z</time>
      </trkpt>
      <trkpt lat="44.79123" lon="2.55921">
        <ele>404</ele>
        <time>2024-07-17T18:24:17Z</time>
      </trkpt>
      <trkpt lat="44.7911" lon="2.55909">
        <ele>406</ele>
        <time>2024-07-17T18:24:18Z</time>
      </trkpt>
      <trkpt lat="44.79098" lon="2.559">
        <ele>407</ele>
        <time>2024-07-17T18:24:19Z</time>
      </trkpt>
      <trkpt lat="44.79087" lon="2.55893">
        <ele>409</ele>
        <time>2024-07-17T18:24:20Z</time>
      </trkpt>
      <trkpt lat="44.79075" lon="2.55887">
        <ele>411</ele>
        <time>2024-07-17T18:24:21Z</time>
      </trkpt>
      <trkpt lat="44.79062" lon="2.55882">
        <ele>412</ele>
        <time>2024-07-17T18:24:22Z</time>
      </trkpt>
      <trkpt lat="44.7905" lon="2.55879">
        <ele>413</ele>
        <time>2024-07-17T18:24:23Z</time>
      </trkpt>
      <trkpt lat="44.79039" lon="2.55876">
        <ele>412</ele>
        <time>2024-07-17T18:24:24Z</time>
      </trkpt>
      <trkpt lat="44.79029" lon="2.55872">
        <ele>411</ele>
        <time>2024-07-17T18:24:25Z</time>
      </trkpt>
      <trkpt lat="44.7902" lon="2.55867">
        <ele>410</ele>
        <time>2024-07-17T18:24:26Z</time>
      </trkpt>
      <trkpt lat="44.79011" lon="2.55861">
        <ele>410</ele>
        <time>2024-07-17T18:24:27Z</time>
      </trkpt>
      <trkpt lat="44.79003" lon="2.55852">
        <ele>409</ele>
        <time>2024-07-17T18:24:28Z</time>
      </trkpt>
      <trkpt lat="44.78995" lon="2.55845">
        <ele>408</ele>
        <time>2024-07-17T18:24:29Z</time>
      </trkpt>
      <trkpt lat="44.78988" lon="2.5584">
        <ele>408</ele>
        <time>2024-07-17T18:24:30Z</time>
      </trkpt>
      <trkpt lat="44.78979" lon="2.55836">
        <ele>408</ele>
        <time>2024-07-17T18:24:31Z</time>
      </trkpt>
      <trkpt lat="44.78969" lon="2.55833">
        <ele>408</ele>
        <time>2024-07-17T18:24:32Z</time>
      </trkpt>
      <trkpt lat="44.78958" lon="2.55832">
        <ele>408</ele>
        <time>2024-07-17T18:24:33Z</time>
      </trkpt>
      <trkpt lat="44.78946" lon="2.55834">
        <ele>409</ele>
        <time>2024-07-17T18:24:34Z</time>
      </trkpt>
      <trkpt lat="44.78935" lon="2.55834">
        <ele>408</ele>
        <time>2024-07-17T18:24:35Z</time>
      </trkpt>
      <trkpt lat="44.78925" lon="2.55835">
        <ele>406</ele>
        <time>2024-07-17T18:24:36Z</time>
      </trkpt>
      <trkpt lat="44.78916" lon="2.55837">
        <ele>405</ele>
        <time>2024-07-17T18:24:37Z</time>
      </trkpt>
      <trkpt lat="44.78905" lon="2.5584">
        <ele>404</ele>
        <time>2024-07-17T18:24:38Z</time>
      </trkpt>
      <trkpt lat="44.78896" lon="2.55844">
        <ele>403</ele>
        <time>2024-07-17T18:24:39Z</time>
      </trkpt>
      <trkpt lat="44.78886" lon="2.55848">
        <ele>402</ele>
        <time>2024-07-17T18:24:40Z</time>
      </trkpt>
      <trkpt lat="44.78876" lon="2.55852">
        <ele>401</ele>
        <time>2024-07-17T18:24:41Z</time>
      </trkpt>
      <trkpt lat="44.78864" lon="2.55857">
        <ele>399</ele>
        <time>2024-07-17T18:24:42Z</time>
      </trkpt>
      <trkpt lat="44.78853" lon="2.55863">
        <ele>397</ele>
        <time>2024-07-17T18:24:43Z</time>
      </trkpt>
      <trkpt lat="44.78841" lon="2.55869">
        <ele>396</ele>
        <time>2024-07-17T18:24:44Z</time>
      </trkpt>
      <trkpt lat="44.7883" lon="2.55873">
        <ele>395</ele>
        <time>2024-07-17T18:24:45Z</time>
      </trkpt>
      <trkpt lat="44.78819" lon="2.5588">
        <ele>393</ele>
        <time>2024-07-17T18:24:46Z</time>
      </trkpt>
      <trkpt lat="44.78808" lon="2.55885">
        <ele>393</ele>
        <time>2024-07-17T18:24:47Z</time>
      </trkpt>
      <trkpt lat="44.78798" lon="2.55887">
        <ele>392</ele>
        <time>2024-07-17T18:24:48Z</time>
      </trkpt>
      <trkpt lat="44.78788" lon="2.55888">
        <ele>392</ele>
        <time>2024-07-17T18:24:49Z</time>
      </trkpt>
      <trkpt lat="44.78779" lon="2.55886">
        <ele>391</ele>
        <time>2024-07-17T18:24:50Z</time>
      </trkpt>
      <trkpt lat="44.78772" lon="2.55883">
        <ele>391</ele>
        <time>2024-07-17T18:24:51Z</time>
      </trkpt>
      <trkpt lat="44.78764" lon="2.55879">
        <ele>391</ele>
        <time>2024-07-17T18:24:52Z</time>
      </trkpt>
      <trkpt lat="44.78758" lon="2.55873">
        <ele>390</ele>
        <time>2024-07-17T18:24:53Z</time>
      </trkpt>
      <trkpt lat="44.78751" lon="2.55867">
        <ele>390</ele>
        <time>2024-07-17T18:24:54Z</time>
      </trkpt>
      <trkpt lat="44.78745" lon="2.55861">
        <ele>391</ele>
        <time>2024-07-17T18:24:55Z</time>
      </trkpt>
      <trkpt lat="44.78738" lon="2.55853">
        <ele>391</ele>
        <time>2024-07-17T18:24:56Z</time>
      </trkpt>
      <trkpt lat="44.78732" lon="2.55846">
        <ele>392</ele>
        <time>2024-07-17T18:24:57Z</time>
      </trkpt>
      <trkpt lat="44.78726" lon="2.5584">
        <ele>392</ele>
        <time>2024-07-17T18:24:58Z</time>
      </trkpt>
      <trkpt lat="44.78721" lon="2.55835">
        <ele>392</ele>
        <time>2024-07-17T18:24:59Z</time>
      </trkpt>
      <trkpt lat="44.78717" lon="2.55828">
        <ele>391</ele>
        <time>2024-07-17T18:25:00Z</time>
      </trkpt>
      <trkpt lat="44.78716" lon="2.55821">
        <ele>390</ele>
        <time>2024-07-17T18:25:01Z</time>
      </trkpt>
      <trkpt lat="44.78715" lon="2.55813">
        <ele>390</ele>
        <time>2024-07-17T18:25:02Z</time>
      </trkpt>
      <trkpt lat="44.78714" lon="2.55804">
        <ele>390</ele>
        <time>2024-07-17T18:25:03Z</time>
      </trkpt>
      <trkpt lat="44.78713" lon="2.55794">
        <ele>390</ele>
        <time>2024-07-17T18:25:04Z</time>
      </trkpt>
      <trkpt lat="44.78709" lon="2.55784">
        <ele>391</ele>
        <time>2024-07-17T18:25:05Z</time>
      </trkpt>
      <trkpt lat="44.78705" lon="2.55773">
        <ele>391</ele>
        <time>2024-07-17T18:25:06Z</time>
      </trkpt>
      <trkpt lat="44.78701" lon="2.55762">
        <ele>392</ele>
        <time>2024-07-17T18:25:07Z</time>
      </trkpt>
      <trkpt lat="44.78698" lon="2.55754">
        <ele>391</ele>
        <time>2024-07-17T18:25:08Z</time>
      </trkpt>
      <trkpt lat="44.78695" lon="2.55749">
        <ele>392</ele>
        <time>2024-07-17T18:25:09Z</time>
      </trkpt>
      <trkpt lat="44.7869" lon="2.55746">
        <ele>392</ele>
        <time>2024-07-17T18:25:10Z</time>
      </trkpt>
      <trkpt lat="44.78683" lon="2.55748">
        <ele>394</ele>
        <time>2024-07-17T18:25:12Z</time>
      </trkpt>
      <trkpt lat="44.78677" lon="2.55752">
        <ele>395</ele>
        <time>2024-07-17T18:25:13Z</time>
      </trkpt>
      <trkpt lat="44.78671" lon="2.55755">
        <ele>397</ele>
        <time>2024-07-17T18:25:14Z</time>
      </trkpt>
      <trkpt lat="44.78664" lon="2.55759">
        <ele>398</ele>
        <time>2024-07-17T18:25:15Z</time>
      </trkpt>
      <trkpt lat="44.78658" lon="2.55762">
        <ele>399</ele>
        <time>2024-07-17T18:25:16Z</time>
      </trkpt>
      <trkpt lat="44.78649" lon="2.55763">
        <ele>401</ele>
        <time>2024-07-17T18:25:17Z</time>
      </trkpt>
      <trkpt lat="44.7864" lon="2.55764">
        <ele>402</ele>
        <time>2024-07-17T18:25:18Z</time>
      </trkpt>
      <trkpt lat="44.78631" lon="2.55766">
        <ele>404</ele>
        <time>2024-07-17T18:25:19Z</time>
      </trkpt>
      <trkpt lat="44.78623" lon="2.55768">
        <ele>404</ele>
        <time>2024-07-17T18:25:20Z</time>
      </trkpt>
      <trkpt lat="44.78615" lon="2.55771">
        <ele>404</ele>
        <time>2024-07-17T18:25:21Z</time>
      </trkpt>
      <trkpt lat="44.78607" lon="2.55772">
        <ele>404</ele>
        <time>2024-07-17T18:25:22Z</time>
      </trkpt>
      <trkpt lat="44.78599" lon="2.55774">
        <ele>406</ele>
        <time>2024-07-17T18:25:23Z</time>
      </trkpt>
      <trkpt lat="44.7859" lon="2.55774">
        <ele>408</ele>
        <time>2024-07-17T18:25:24Z</time>
      </trkpt>
      <trkpt lat="44.78581" lon="2.55775">
        <ele>409</ele>
        <time>2024-07-17T18:25:25Z</time>
      </trkpt>
      <trkpt lat="44.78573" lon="2.55776">
        <ele>409</ele>
        <time>2024-07-17T18:25:26Z</time>
      </trkpt>
      <trkpt lat="44.78564" lon="2.55778">
        <ele>411</ele>
        <time>2024-07-17T18:25:27Z</time>
      </trkpt>
      <trkpt lat="44.78556" lon="2.55779">
        <ele>411</ele>
        <time>2024-07-17T18:25:28Z</time>
      </trkpt>
      <trkpt lat="44.78546" lon="2.55784">
        <ele>413</ele>
        <time>2024-07-17T18:25:29Z</time>
      </trkpt>
      <trkpt lat="44.78537" lon="2.55787">
        <ele>414</ele>
        <time>2024-07-17T18:25:30Z</time>
      </trkpt>
      <trkpt lat="44.78526" lon="2.55791">
        <ele>415</ele>
        <time>2024-07-17T18:25:31Z</time>
      </trkpt>
      <trkpt lat="44.78516" lon="2.55794">
        <ele>416</ele>
        <time>2024-07-17T18:25:32Z</time>
      </trkpt>
      <trkpt lat="44.78505" lon="2.55799">
        <ele>419</ele>
        <time>2024-07-17T18:25:33Z</time>
      </trkpt>
      <trkpt lat="44.78495" lon="2.55804">
        <ele>420</ele>
        <time>2024-07-17T18:25:34Z</time>
      </trkpt>
      <trkpt lat="44.78486" lon="2.55808">
        <ele>420</ele>
        <time>2024-07-17T18:25:35Z</time>
      </trkpt>
      <trkpt lat="44.78474" lon="2.55815">
        <ele>423</ele>
        <time>2024-07-17T18:25:36Z</time>
      </trkpt>
      <trkpt lat="44.78464" lon="2.55824">
        <ele>424</ele>
        <time>2024-07-17T18:25:37Z</time>
      </trkpt>
      <trkpt lat="44.78453" lon="2.55832">
        <ele>425</ele>
        <time>2024-07-17T18:25:38Z</time>
      </trkpt>
      <trkpt lat="44.78443" lon="2.55838">
        <ele>425</ele>
        <time>2024-07-17T18:25:39Z</time>
      </trkpt>
      <trkpt lat="44.78434" lon="2.55844">
        <ele>425</ele>
        <time>2024-07-17T18:25:40Z</time>
      </trkpt>
      <trkpt lat="44.78426" lon="2.5585">
        <ele>426</ele>
        <time>2024-07-17T18:25:41Z</time>
      </trkpt>
      <trkpt lat="44.7842" lon="2.55855">
        <ele>427</ele>
        <time>2024-07-17T18:25:42Z</time>
      </trkpt>
      <trkpt lat="44.78415" lon="2.55862">
        <ele>428</ele>
        <time>2024-07-17T18:25:43Z</time>
      </trkpt>
      <trkpt lat="44.78411" lon="2.55871">
        <ele>429</ele>
        <time>2024-07-17T18:25:44Z</time>
      </trkpt>
      <trkpt lat="44.78408" lon="2.55884">
        <ele>431</ele>
        <time>2024-07-17T18:25:45Z</time>
      </trkpt>
      <trkpt lat="44.78406" lon="2.55896">
        <ele>433</ele>
        <time>2024-07-17T18:25:46Z</time>
      </trkpt>
      <trkpt lat="44.78403" lon="2.55905">
        <ele>432</ele>
        <time>2024-07-17T18:25:47Z</time>
      </trkpt>
      <trkpt lat="44.78398" lon="2.55913">
        <ele>432</ele>
        <time>2024-07-17T18:25:48Z</time>
      </trkpt>
      <trkpt lat="44.78392" lon="2.55918">
        <ele>432</ele>
        <time>2024-07-17T18:25:49Z</time>
      </trkpt>
      <trkpt lat="44.78386" lon="2.55923">
        <ele>434</ele>
        <time>2024-07-17T18:25:50Z</time>
      </trkpt>
      <trkpt lat="44.78378" lon="2.55928">
        <ele>435</ele>
        <time>2024-07-17T18:25:51Z</time>
      </trkpt>
      <trkpt lat="44.7837" lon="2.55935">
        <ele>438</ele>
        <time>2024-07-17T18:25:52Z</time>
      </trkpt>
      <trkpt lat="44.78361" lon="2.55942">
        <ele>439</ele>
        <time>2024-07-17T18:25:53Z</time>
      </trkpt>
      <trkpt lat="44.78352" lon="2.5595">
        <ele>440</ele>
        <time>2024-07-17T18:25:54Z</time>
      </trkpt>
      <trkpt lat="44.78343" lon="2.55956">
        <ele>442</ele>
        <time>2024-07-17T18:25:55Z</time>
      </trkpt>
      <trkpt lat="44.78332" lon="2.55959">
        <ele>442</ele>
        <time>2024-07-17T18:25:56Z</time>
      </trkpt>
      <trkpt lat="44.78321" lon="2.55962">
        <ele>443</ele>
        <time>2024-07-17T18:25:57Z</time>
      </trkpt>
      <trkpt lat="44.7831" lon="2.55965">
        <ele>445</ele>
        <time>2024-07-17T18:25:58Z</time>
      </trkpt>
      <trkpt lat="44.78299" lon="2.55966">
        <ele>446</ele>
        <time>2024-07-17T18:25:59Z</time>
      </trkpt>
      <trkpt lat="44.78287" lon="2.55967">
        <ele>448</ele>
        <time>2024-07-17T18:26:00Z</time>
      </trkpt>
      <trkpt lat="44.78276" lon="2.55968">
        <ele>450</ele>
        <time>2024-07-17T18:26:01Z</time>
      </trkpt>
      <trkpt lat="44.78265" lon="2.55969">
        <ele>452</ele>
        <time>2024-07-17T18:26:02Z</time>
      </trkpt>
      <trkpt lat="44.78254" lon="2.55968">
        <ele>454</ele>
        <time>2024-07-17T18:26:03Z</time>
      </trkpt>
      <trkpt lat="44.78243" lon="2.55968">
        <ele>456</ele>
        <time>2024-07-17T18:26:04Z</time>
      </trkpt>
      <trkpt lat="44.78232" lon="2.55969">
        <ele>458</ele>
        <time>2024-07-17T18:26:05Z</time>
      </trkpt>
      <trkpt lat="44.78221" lon="2.55969">
        <ele>458</ele>
        <time>2024-07-17T18:26:06Z</time>
      </trkpt>
      <trkpt lat="44.7821" lon="2.55969">
        <ele>459</ele>
        <time>2024-07-17T18:26:07Z</time>
      </trkpt>
      <trkpt lat="44.78199" lon="2.55969">
        <ele>461</ele>
        <time>2024-07-17T18:26:08Z</time>
      </trkpt>
      <trkpt lat="44.78188" lon="2.55968">
        <ele>462</ele>
        <time>2024-07-17T18:26:09Z</time>
      </trkpt>
      <trkpt lat="44.78176" lon="2.55967">
        <ele>463</ele>
        <time>2024-07-17T18:26:10Z</time>
      </trkpt>
      <trkpt lat="44.78164" lon="2.55966">
        <ele>465</ele>
        <time>2024-07-17T18:26:11Z</time>
      </trkpt>
      <trkpt lat="44.78153" lon="2.55966">
        <ele>467</ele>
        <time>2024-07-17T18:26:12Z</time>
      </trkpt>
      <trkpt lat="44.78141" lon="2.55965">
        <ele>466</ele>
        <time>2024-07-17T18:26:13Z</time>
      </trkpt>
      <trkpt lat="44.78129" lon="2.55966">
        <ele>467</ele>
        <time>2024-07-17T18:26:14Z</time>
      </trkpt>
      <trkpt lat="44.78119" lon="2.55968">
        <ele>469</ele>
        <time>2024-07-17T18:26:15Z</time>
      </trkpt>
      <trkpt lat="44.78108" lon="2.55971">
        <ele>471</ele>
        <time>2024-07-17T18:26:16Z</time>
      </trkpt>
      <trkpt lat="44.78097" lon="2.55973">
        <ele>473</ele>
        <time>2024-07-17T18:26:17Z</time>
      </trkpt>
      <trkpt lat="44.78087" lon="2.55976">
        <ele>472</ele>
        <time>2024-07-17T18:26:18Z</time>
      </trkpt>
      <trkpt lat="44.78078" lon="2.55979">
        <ele>472</ele>
        <time>2024-07-17T18:26:19Z</time>
      </trkpt>
      <trkpt lat="44.78069" lon="2.55985">
        <ele>473</ele>
        <time>2024-07-17T18:26:20Z</time>
      </trkpt>
      <trkpt lat="44.78063" lon="2.55992">
        <ele>474</ele>
        <time>2024-07-17T18:26:21Z</time>
      </trkpt>
      <trkpt lat="44.78057" lon="2.56">
        <ele>474</ele>
        <time>2024-07-17T18:26:22Z</time>
      </trkpt>
      <trkpt lat="44.78052" lon="2.56006">
        <ele>475</ele>
        <time>2024-07-17T18:26:23Z</time>
      </trkpt>
      <trkpt lat="44.78046" lon="2.56009">
        <ele>475</ele>
        <time>2024-07-17T18:26:24Z</time>
      </trkpt>
      <trkpt lat="44.7804" lon="2.5601">
        <ele>476</ele>
        <time>2024-07-17T18:26:25Z</time>
      </trkpt>
      <trkpt lat="44.78033" lon="2.56007">
        <ele>477</ele>
        <time>2024-07-17T18:26:26Z</time>
      </trkpt>
      <trkpt lat="44.78026" lon="2.56004">
        <ele>478</ele>
        <time>2024-07-17T18:26:27Z</time>
      </trkpt>
      <trkpt lat="44.78018" lon="2.56001">
        <ele>479</ele>
        <time>2024-07-17T18:26:28Z</time>
      </trkpt>
      <trkpt lat="44.78009" lon="2.55999">
        <ele>480</ele>
        <time>2024-07-17T18:26:29Z</time>
      </trkpt>
      <trkpt lat="44.78002" lon="2.55996">
        <ele>480</ele>
        <time>2024-07-17T18:26:30Z</time>
      </trkpt>
      <trkpt lat="44.77996" lon="2.55993">
        <ele>480</ele>
        <time>2024-07-17T18:26:31Z</time>
      </trkpt>
      <trkpt lat="44.77992" lon="2.55989">
        <ele>480</ele>
        <time>2024-07-17T18:26:32Z</time>
      </trkpt>
      <trkpt lat="44.77991" lon="2.55983">
        <ele>482</ele>
        <time>2024-07-17T18:26:33Z</time>
      </trkpt>
      <trkpt lat="44.77992" lon="2.55975">
        <ele>483</ele>
        <time>2024-07-17T18:26:34Z</time>
      </trkpt>
      <trkpt lat="44.77994" lon="2.55967">
        <ele>484</ele>
        <time>2024-07-17T18:26:35Z</time>
      </trkpt>
      <trkpt lat="44.77999" lon="2.55959">
        <ele>484</ele>
        <time>2024-07-17T18:26:36Z</time>
      </trkpt>
      <trkpt lat="44.78005" lon="2.5595">
        <ele>484</ele>
        <time>2024-07-17T18:26:37Z</time>
      </trkpt>
      <trkpt lat="44.78012" lon="2.55942">
        <ele>486</ele>
        <time>2024-07-17T18:26:38Z</time>
      </trkpt>
      <trkpt lat="44.7802" lon="2.55934">
        <ele>486</ele>
        <time>2024-07-17T18:26:39Z</time>
      </trkpt>
      <trkpt lat="44.78029" lon="2.55927">
        <ele>488</ele>
        <time>2024-07-17T18:26:40Z</time>
      </trkpt>
      <trkpt lat="44.78039" lon="2.55919">
        <ele>489</ele>
        <time>2024-07-17T18:26:41Z</time>
      </trkpt>
      <trkpt lat="44.78049" lon="2.55911">
        <ele>489</ele>
        <time>2024-07-17T18:26:42Z</time>
      </trkpt>
      <trkpt lat="44.78058" lon="2.55902">
        <ele>489</ele>
        <time>2024-07-17T18:26:43Z</time>
      </trkpt>
      <trkpt lat="44.78066" lon="2.55895">
        <ele>490</ele>
        <time>2024-07-17T18:26:44Z</time>
      </trkpt>
      <trkpt lat="44.78074" lon="2.55888">
        <ele>491</ele>
        <time>2024-07-17T18:26:45Z</time>
      </trkpt>
      <trkpt lat="44.78084" lon="2.55882">
        <ele>493</ele>
        <time>2024-07-17T18:26:46Z</time>
      </trkpt>
      <trkpt lat="44.78094" lon="2.55876">
        <ele>495</ele>
        <time>2024-07-17T18:26:47Z</time>
      </trkpt>
      <trkpt lat="44.78105" lon="2.55869">
        <ele>498</ele>
        <time>2024-07-17T18:26:48Z</time>
      </trkpt>
      <trkpt lat="44.78116" lon="2.55861">
        <ele>498</ele>
        <time>2024-07-17T18:26:49Z</time>
      </trkpt>
      <trkpt lat="44.78126" lon="2.55852">
        <ele>499</ele>
        <time>2024-07-17T18:26:50Z</time>
      </trkpt>
      <trkpt lat="44.78135" lon="2.55843">
        <ele>500</ele>
        <time>2024-07-17T18:26:51Z</time>
      </trkpt>
      <trkpt lat="44.78144" lon="2.55834">
        <ele>501</ele>
        <time>2024-07-17T18:26:52Z</time>
      </trkpt>
      <trkpt lat="44.78153" lon="2.55827">
        <ele>501</ele>
        <time>2024-07-17T18:26:53Z</time>
      </trkpt>
      <trkpt lat="44.78159" lon="2.55821">
        <ele>501</ele>
        <time>2024-07-17T18:26:54Z</time>
      </trkpt>
      <trkpt lat="44.78164" lon="2.55817">
        <ele>502</ele>
        <time>2024-07-17T18:26:55Z</time>
      </trkpt>
      <trkpt lat="44.78167" lon="2.55812">
        <ele>502</ele>
        <time>2024-07-17T18:26:56Z</time>
      </trkpt>
      <trkpt lat="44.78167" lon="2.55806">
        <ele>504</ele>
        <time>2024-07-17T18:26:57Z</time>
      </trkpt>
      <trkpt lat="44.78163" lon="2.55802">
        <ele>505</ele>
        <time>2024-07-17T18:26:59Z</time>
      </trkpt>
      <trkpt lat="44.78159" lon="2.55801">
        <ele>506</ele>
        <time>2024-07-17T18:27:00Z</time>
      </trkpt>
      <trkpt lat="44.78153" lon="2.55799">
        <ele>507</ele>
        <time>2024-07-17T18:27:01Z</time>
      </trkpt>
      <trkpt lat="44.78146" lon="2.55796">
        <ele>508</ele>
        <time>2024-07-17T18:27:02Z</time>
      </trkpt>
      <trkpt lat="44.78138" lon="2.55791">
        <ele>510</ele>
        <time>2024-07-17T18:27:03Z</time>
      </trkpt>
      <trkpt lat="44.78129" lon="2.55783">
        <ele>512</ele>
        <time>2024-07-17T18:27:04Z</time>
      </trkpt>
      <trkpt lat="44.78119" lon="2.55775">
        <ele>514</ele>
        <time>2024-07-17T18:27:05Z</time>
      </trkpt>
      <trkpt lat="44.78109" lon="2.55766">
        <ele>515</ele>
        <time>2024-07-17T18:27:06Z</time>
      </trkpt>
      <trkpt lat="44.781" lon="2.55758">
        <ele>516</ele>
        <time>2024-07-17T18:27:07Z</time>
      </trkpt>
      <trkpt lat="44.78091" lon="2.55751">
        <ele>518</ele>
        <time>2024-07-17T18:27:08Z</time>
      </trkpt>
      <trkpt lat="44.78081" lon="2.55747">
        <ele>519</ele>
        <time>2024-07-17T18:27:09Z</time>
      </trkpt>
      <trkpt lat="44.78071" lon="2.55744">
        <ele>521</ele>
        <time>2024-07-17T18:27:10Z</time>
      </trkpt>
      <trkpt lat="44.7806" lon="2.55743">
        <ele>522</ele>
        <time>2024-07-17T18:27:11Z</time>
      </trkpt>
      <trkpt lat="44.7805" lon="2.55741">
        <ele>523</ele>
        <time>2024-07-17T18:27:12Z</time>
      </trkpt>
      <trkpt lat="44.7804" lon="2.5574">
        <ele>524</ele>
        <time>2024-07-17T18:27:13Z</time>
      </trkpt>
      <trkpt lat="44.78031" lon="2.55739">
        <ele>526</ele>
        <time>2024-07-17T18:27:14Z</time>
      </trkpt>
      <trkpt lat="44.78025" lon="2.55737">
        <ele>526</ele>
        <time>2024-07-17T18:27:15Z</time>
      </trkpt>
      <trkpt lat="44.78021" lon="2.55734">
        <ele>526</ele>
        <time>2024-07-17T18:27:16Z</time>
      </trkpt>
      <trkpt lat="44.78016" lon="2.55732">
        <ele>526</ele>
        <time>2024-07-17T18:27:18Z</time>
      </trkpt>
      <trkpt lat="44.78014" lon="2.55728">
        <ele>527</ele>
        <time>2024-07-17T18:27:19Z</time>
      </trkpt>
      <trkpt lat="44.78014" lon="2.55724">
        <ele>527</ele>
        <time>2024-07-17T18:27:20Z</time>
      </trkpt>
      <trkpt lat="44.78016" lon="2.55719">
        <ele>527</ele>
        <time>2024-07-17T18:27:21Z</time>
      </trkpt>
      <trkpt lat="44.7802" lon="2.55717">
        <ele>528</ele>
        <time>2024-07-17T18:27:22Z</time>
      </trkpt>
      <trkpt lat="44.78026" lon="2.55717">
        <ele>529</ele>
        <time>2024-07-17T18:27:23Z</time>
      </trkpt>
      <trkpt lat="44.78034" lon="2.55715">
        <ele>531</ele>
        <time>2024-07-17T18:27:24Z</time>
      </trkpt>
      <trkpt lat="44.78043" lon="2.55711">
        <ele>531</ele>
        <time>2024-07-17T18:27:25Z</time>
      </trkpt>
      <trkpt lat="44.78052" lon="2.55706">
        <ele>532</ele>
        <time>2024-07-17T18:27:26Z</time>
      </trkpt>
      <trkpt lat="44.78062" lon="2.55701">
        <ele>532</ele>
        <time>2024-07-17T18:27:27Z</time>
      </trkpt>
      <trkpt lat="44.78073" lon="2.55697">
        <ele>533</ele>
        <time>2024-07-17T18:27:28Z</time>
      </trkpt>
      <trkpt lat="44.78085" lon="2.55695">
        <ele>534</ele>
        <time>2024-07-17T18:27:29Z</time>
      </trkpt>
      <trkpt lat="44.78099" lon="2.55695">
        <ele>535</ele>
        <time>2024-07-17T18:27:30Z</time>
      </trkpt>
      <trkpt lat="44.78111" lon="2.55696">
        <ele>535</ele>
        <time>2024-07-17T18:27:31Z</time>
      </trkpt>
      <trkpt lat="44.78123" lon="2.55698">
        <ele>536</ele>
        <time>2024-07-17T18:27:32Z</time>
      </trkpt>
      <trkpt lat="44.78133" lon="2.55699">
        <ele>537</ele>
        <time>2024-07-17T18:27:33Z</time>
      </trkpt>
      <trkpt lat="44.78144" lon="2.55699">
        <ele>537</ele>
        <time>2024-07-17T18:27:34Z</time>
      </trkpt>
      <trkpt lat="44.78152" lon="2.55697">
        <ele>537</ele>
        <time>2024-07-17T18:27:35Z</time>
      </trkpt>
      <trkpt lat="44.7816" lon="2.55692">
        <ele>539</ele>
        <time>2024-07-17T18:27:36Z</time>
      </trkpt>
      <trkpt lat="44.78166" lon="2.55688">
        <ele>538</ele>
        <time>2024-07-17T18:27:37Z</time>
      </trkpt>
      <trkpt lat="44.7817" lon="2.55683">
        <ele>538</ele>
        <time>2024-07-17T18:27:38Z</time>
      </trkpt>
      <trkpt lat="44.7817" lon="2.55676">
        <ele>540</ele>
        <time>2024-07-17T18:27:40Z</time>
      </trkpt>
      <trkpt lat="44.78168" lon="2.55673">
        <ele>541</ele>
        <time>2024-07-17T18:27:41Z</time>
      </trkpt>
      <trkpt lat="44.78164" lon="2.55673">
        <ele>542</ele>
        <time>2024-07-17T18:27:42Z</time>
      </trkpt>
      <trkpt lat="44.78158" lon="2.55674">
        <ele>544</ele>
        <time>2024-07-17T18:27:43Z</time>
      </trkpt>
      <trkpt lat="44.7815" lon="2.55676">
        <ele>546</ele>
        <time>2024-07-17T18:27:44Z</time>
      </trkpt>
      <trkpt lat="44.78142" lon="2.55675">
        <ele>547</ele>
        <time>2024-07-17T18:27:45Z</time>
      </trkpt>
      <trkpt lat="44.78133" lon="2.55671">
        <ele>549</ele>
        <time>2024-07-17T18:27:46Z</time>
      </trkpt>
      <trkpt lat="44.78124" lon="2.55663">
        <ele>550</ele>
        <time>2024-07-17T18:27:47Z</time>
      </trkpt>
      <trkpt lat="44.78115" lon="2.55654">
        <ele>552</ele>
        <time>2024-07-17T18:27:48Z</time>
      </trkpt>
      <trkpt lat="44.78106" lon="2.55647">
        <ele>553</ele>
        <time>2024-07-17T18:27:49Z</time>
      </trkpt>
      <trkpt lat="44.78096" lon="2.55642">
        <ele>555</ele>
        <time>2024-07-17T18:27:50Z</time>
      </trkpt>
      <trkpt lat="44.78085" lon="2.55638">
        <ele>557</ele>
        <time>2024-07-17T18:27:51Z</time>
      </trkpt>
      <trkpt lat="44.78072" lon="2.55635">
        <ele>559</ele>
        <time>2024-07-17T18:27:52Z</time>
      </trkpt>
      <trkpt lat="44.78057" lon="2.55634">
        <ele>561</ele>
        <time>2024-07-17T18:27:53Z</time>
      </trkpt>
      <trkpt lat="44.78042" lon="2.55635">
        <ele>563</ele>
        <time>2024-07-17T18:27:54Z</time>
      </trkpt>
      <trkpt lat="44.78029" lon="2.55636">
        <ele>565</ele>
        <time>2024-07-17T18:27:55Z</time>
      </trkpt>
      <trkpt lat="44.78017" lon="2.55638">
        <ele>566</ele>
        <time>2024-07-17T18:27:56Z</time>
      </trkpt>
      <trkpt lat="44.78007" lon="2.5564">
        <ele>567</ele>
        <time>2024-07-17T18:27:57Z</time>
      </trkpt>
      <trkpt lat="44.77997" lon="2.55636">
        <ele>567</ele>
        <time>2024-07-17T18:27:58Z</time>
      </trkpt>
      <trkpt lat="44.77988" lon="2.55633">
        <ele>568</ele>
        <time>2024-07-17T18:27:59Z</time>
      </trkpt>
      <trkpt lat="44.77979" lon="2.55628">
        <ele>570</ele>
        <time>2024-07-17T18:28:00Z</time>
      </trkpt>
      <trkpt lat="44.77969" lon="2.55624">
        <ele>570</ele>
        <time>2024-07-17T18:28:01Z</time>
      </trkpt>
      <trkpt lat="44.7796" lon="2.55621">
        <ele>571</ele>
        <time>2024-07-17T18:28:02Z</time>
      </trkpt>
      <trkpt lat="44.77953" lon="2.5562">
        <ele>570</ele>
        <time>2024-07-17T18:28:03Z</time>
      </trkpt>
      <trkpt lat="44.77948" lon="2.5562">
        <ele>570</ele>
        <time>2024-07-17T18:28:04Z</time>
      </trkpt>
      <trkpt lat="44.77943" lon="2.5562">
        <ele>571</ele>
        <time>2024-07-17T18:28:05Z</time>
      </trkpt>
      <trkpt lat="44.7794" lon="2.55616">
        <ele>572</ele>
        <time>2024-07-17T18:28:07Z</time>
      </trkpt>
      <trkpt lat="44.7794" lon="2.55609">
        <ele>571</ele>
        <time>2024-07-17T18:28:08Z</time>
      </trkpt>
      <trkpt lat="44.77944" lon="2.55607">
        <ele>572</ele>
        <time>2024-07-17T18:28:09Z</time>
      </trkpt>
      <trkpt lat="44.77949" lon="2.55604">
        <ele>573</ele>
        <time>2024-07-17T18:28:10Z</time>
      </trkpt>
      <trkpt lat="44.77956" lon="2.55601">
        <ele>575</ele>
        <time>2024-07-17T18:28:11Z</time>
      </trkpt>
      <trkpt lat="44.77963" lon="2.55596">
        <ele>576</ele>
        <time>2024-07-17T18:28:12Z</time>
      </trkpt>
      <trkpt lat="44.77972" lon="2.55591">
        <ele>579</ele>
        <time>2024-07-17T18:28:13Z</time>
      </trkpt>
      <trkpt lat="44.77983" lon="2.55587">
        <ele>580</ele>
        <time>2024-07-17T18:28:14Z</time>
      </trkpt>
      <trkpt lat="44.77994" lon="2.55582">
        <ele>581</ele>
        <time>2024-07-17T18:28:15Z</time>
      </trkpt>
      <trkpt lat="44.78004" lon="2.55576">
        <ele>583</ele>
        <time>2024-07-17T18:28:16Z</time>
      </trkpt>
      <trkpt lat="44.78016" lon="2.5557">
        <ele>586</ele>
        <time>2024-07-17T18:28:17Z</time>
      </trkpt>
      <trkpt lat="44.78027" lon="2.55565">
        <ele>587</ele>
        <time>2024-07-17T18:28:18Z</time>
      </trkpt>
      <trkpt lat="44.78039" lon="2.55561">
        <ele>589</ele>
        <time>2024-07-17T18:28:19Z</time>
      </trkpt>
      <trkpt lat="44.78048" lon="2.55558">
        <ele>590</ele>
        <time>2024-07-17T18:28:20Z</time>
      </trkpt>
      <trkpt lat="44.78055" lon="2.55556">
        <ele>590</ele>
        <time>2024-07-17T18:28:21Z</time>
      </trkpt>
      <trkpt lat="44.78063" lon="2.55555">
        <ele>591</ele>
        <time>2024-07-17T18:28:22Z</time>
      </trkpt>
      <trkpt lat="44.78075" lon="2.55555">
        <ele>591</ele>
        <time>2024-07-17T18:28:23Z</time>
      </trkpt>
      <trkpt lat="44.78086" lon="2.5555">
        <ele>592</ele>
        <time>2024-07-17T18:28:24Z</time>
      </trkpt>
      <trkpt lat="44.781" lon="2.55539">
        <ele>593</ele>
        <time>2024-07-17T18:28:25Z</time>
      </trkpt>
      <trkpt lat="44.78111" lon="2.55529">
        <ele>594</ele>
        <time>2024-07-17T18:28:26Z</time>
      </trkpt>
      <trkpt lat="44.78122" lon="2.55517">
        <ele>595</ele>
        <time>2024-07-17T18:28:27Z</time>
      </trkpt>
      <trkpt lat="44.78131" lon="2.55505">
        <ele>595</ele>
        <time>2024-07-17T18:28:28Z</time>
      </trkpt>
      <trkpt lat="44.78138" lon="2.55493">
        <ele>594</ele>
        <time>2024-07-17T18:28:29Z</time>
      </trkpt>
      <trkpt lat="44.78142" lon="2.55486">
        <ele>595</ele>
        <time>2024-07-17T18:28:30Z</time>
      </trkpt>
      <trkpt lat="44.78142" lon="2.5547">
        <ele>595</ele>
        <time>2024-07-17T18:28:31Z</time>
      </trkpt>
      <trkpt lat="44.78138" lon="2.55458">
        <ele>596</ele>
        <time>2024-07-17T18:28:32Z</time>
      </trkpt>
      <trkpt lat="44.78129" lon="2.55457">
        <ele>596</ele>
        <time>2024-07-17T18:28:33Z</time>
      </trkpt>
      <trkpt lat="44.78123" lon="2.55456">
        <ele>598</ele>
        <time>2024-07-17T18:28:35Z</time>
      </trkpt>
      <trkpt lat="44.78117" lon="2.55454">
        <ele>598</ele>
        <time>2024-07-17T18:28:36Z</time>
      </trkpt>
      <trkpt lat="44.78111" lon="2.5545">
        <ele>600</ele>
        <time>2024-07-17T18:28:37Z</time>
      </trkpt>
      <trkpt lat="44.78105" lon="2.55445">
        <ele>601</ele>
        <time>2024-07-17T18:28:38Z</time>
      </trkpt>
      <trkpt lat="44.78099" lon="2.55439">
        <ele>603</ele>
        <time>2024-07-17T18:28:39Z</time>
      </trkpt>
      <trkpt lat="44.78093" lon="2.55433">
        <ele>605</ele>
        <time>2024-07-17T18:28:40Z</time>
      </trkpt>
      <trkpt lat="44.78087" lon="2.55425">
        <ele>606</ele>
        <time>2024-07-17T18:28:41Z</time>
      </trkpt>
      <trkpt lat="44.78081" lon="2.55414">
        <ele>607</ele>
        <time>2024-07-17T18:28:42Z</time>
      </trkpt>
      <trkpt lat="44.78075" lon="2.554">
        <ele>608</ele>
        <time>2024-07-17T18:28:43Z</time>
      </trkpt>
      <trkpt lat="44.78072" lon="2.55388">
        <ele>609</ele>
        <time>2024-07-17T18:28:44Z</time>
      </trkpt>
      <trkpt lat="44.78071" lon="2.55375">
        <ele>611</ele>
        <time>2024-07-17T18:28:45Z</time>
      </trkpt>
      <trkpt lat="44.78073" lon="2.55363">
        <ele>612</ele>
        <time>2024-07-17T18:28:46Z</time>
      </trkpt>
      <trkpt lat="44.78077" lon="2.55351">
        <ele>613</ele>
        <time>2024-07-17T18:28:47Z</time>
      </trkpt>
      <trkpt lat="44.78082" lon="2.55338">
        <ele>616</ele>
        <time>2024-07-17T18:28:48Z</time>
      </trkpt>
      <trkpt lat="44.78089" lon="2.55325">
        <ele>618</ele>
        <time>2024-07-17T18:28:49Z</time>
      </trkpt>
      <trkpt lat="44.78096" lon="2.55311">
        <ele>619</ele>
        <time>2024-07-17T18:28:50Z</time>
      </trkpt>
      <trkpt lat="44.78103" lon="2.55297">
        <ele>621</ele>
        <time>2024-07-17T18:28:51Z</time>
      </trkpt>
      <trkpt lat="44.78109" lon="2.55282">
        <ele>621</ele>
        <time>2024-07-17T18:28:52Z</time>
      </trkpt>
      <trkpt lat="44.78114" lon="2.55269">
        <ele>621</ele>
        <time>2024-07-17T18:28:53Z</time>
      </trkpt>
      <trkpt lat="44.78118" lon="2.55256">
        <ele>622</ele>
        <time>2024-07-17T18:28:54Z</time>
      </trkpt>
      <trkpt lat="44.78121" lon="2.55243">
        <ele>624</ele>
        <time>2024-07-17T18:28:55Z</time>
      </trkpt>
      <trkpt lat="44.78122" lon="2.55231">
        <ele>624</ele>
        <time>2024-07-17T18:28:56Z</time>
      </trkpt>
      <trkpt lat="44.78123" lon="2.55219">
        <ele>625</ele>
        <time>2024-07-17T18:28:57Z</time>
      </trkpt>
      <trkpt lat="44.78121" lon="2.55205">
        <ele>627</ele>
        <time>2024-07-17T18:28:58Z</time>
      </trkpt>
      <trkpt lat="44.78119" lon="2.55192">
        <ele>629</ele>
        <time>2024-07-17T18:28:59Z</time>
      </trkpt>
      <trkpt lat="44.78115" lon="2.55176">
        <ele>632</ele>
        <time>2024-07-17T18:29:00Z</time>
      </trkpt>
      <trkpt lat="44.7811" lon="2.55159">
        <ele>633</ele>
        <time>2024-07-17T18:29:01Z</time>
      </trkpt>
      <trkpt lat="44.78106" lon="2.55144">
        <ele>633</ele>
        <time>2024-07-17T18:29:02Z</time>
      </trkpt>
      <trkpt lat="44.781" lon="2.55128">
        <ele>634</ele>
        <time>2024-07-17T18:29:03Z</time>
      </trkpt>
      <trkpt lat="44.78094" lon="2.55112">
        <ele>636</ele>
        <time>2024-07-17T18:29:04Z</time>
      </trkpt>
      <trkpt lat="44.78086" lon="2.55095">
        <ele>638</ele>
        <time>2024-07-17T18:29:05Z</time>
      </trkpt>
      <trkpt lat="44.78079" lon="2.55079">
        <ele>637</ele>
        <time>2024-07-17T18:29:06Z</time>
      </trkpt>
      <trkpt lat="44.78073" lon="2.55065">
        <ele>639</ele>
        <time>2024-07-17T18:29:07Z</time>
      </trkpt>
      <trkpt lat="44.7807" lon="2.5505">
        <ele>638</ele>
        <time>2024-07-17T18:29:08Z</time>
      </trkpt>
      <trkpt lat="44.7807" lon="2.55034">
        <ele>638</ele>
        <time>2024-07-17T18:29:09Z</time>
      </trkpt>
      <trkpt lat="44.78071" lon="2.55021">
        <ele>639</ele>
        <time>2024-07-17T18:29:10Z</time>
      </trkpt>
      <trkpt lat="44.78074" lon="2.55012">
        <ele>639</ele>
        <time>2024-07-17T18:29:11Z</time>
      </trkpt>
      <trkpt lat="44.78078" lon="2.55003">
        <ele>639</ele>
        <time>2024-07-17T18:29:12Z</time>
      </trkpt>
      <trkpt lat="44.78083" lon="2.54993">
        <ele>641</ele>
        <time>2024-07-17T18:29:13Z</time>
      </trkpt>
      <trkpt lat="44.78088" lon="2.54983">
        <ele>641</ele>
        <time>2024-07-17T18:29:14Z</time>
      </trkpt>
      <trkpt lat="44.78095" lon="2.54972">
        <ele>641</ele>
        <time>2024-07-17T18:29:15Z</time>
      </trkpt>
      <trkpt lat="44.78102" lon="2.54959">
        <ele>642</ele>
        <time>2024-07-17T18:29:16Z</time>
      </trkpt>
      <trkpt lat="44.7811" lon="2.54944">
        <ele>644</ele>
        <time>2024-07-17T18:29:17Z</time>
      </trkpt>
      <trkpt lat="44.78118" lon="2.54929">
        <ele>646</ele>
        <time>2024-07-17T18:29:18Z</time>
      </trkpt>
      <trkpt lat="44.78126" lon="2.54916">
        <ele>647</ele>
        <time>2024-07-17T18:29:19Z</time>
      </trkpt>
      <trkpt lat="44.78135" lon="2.54901">
        <ele>649</ele>
        <time>2024-07-17T18:29:20Z</time>
      </trkpt>
      <trkpt lat="44.78143" lon="2.54885">
        <ele>650</ele>
        <time>2024-07-17T18:29:21Z</time>
      </trkpt>
      <trkpt lat="44.7815" lon="2.5487">
        <ele>650</ele>
        <time>2024-07-17T18:29:22Z</time>
      </trkpt>
      <trkpt lat="44.78157" lon="2.54857">
        <ele>650</ele>
        <time>2024-07-17T18:29:23Z</time>
      </trkpt>
      <trkpt lat="44.78163" lon="2.54843">
        <ele>650</ele>
        <time>2024-07-17T18:29:24Z</time>
      </trkpt>
      <trkpt lat="44.78167" lon="2.54829">
        <ele>650</ele>
        <time>2024-07-17T18:29:25Z</time>
      </trkpt>
      <trkpt lat="44.7817" lon="2.54816">
        <ele>650</ele>
        <time>2024-07-17T18:29:26Z</time>
      </trkpt>
      <trkpt lat="44.78174" lon="2.54805">
        <ele>650</ele>
        <time>2024-07-17T18:29:27Z</time>
      </trkpt>
      <trkpt lat="44.78178" lon="2.54798">
        <ele>650</ele>
        <time>2024-07-17T18:29:28Z</time>
      </trkpt>
      <trkpt lat="44.78183" lon="2.54794">
        <ele>652</ele>
        <time>2024-07-17T18:29:29Z</time>
      </trkpt>
      <trkpt lat="44.78191" lon="2.54792">
        <ele>653</ele>
        <time>2024-07-17T18:29:30Z</time>
      </trkpt>
      <trkpt lat="44.78199" lon="2.54791">
        <ele>653</ele>
        <time>2024-07-17T18:29:31Z</time>
      </trkpt>
      <trkpt lat="44.78208" lon="2.54787">
        <ele>652</ele>
        <time>2024-07-17T18:29:32Z</time>
      </trkpt>
      <trkpt lat="44.78217" lon="2.54779">
        <ele>652</ele>
        <time>2024-07-17T18:29:33Z</time>
      </trkpt>
      <trkpt lat="44.78223" lon="2.54769">
        <ele>653</ele>
        <time>2024-07-17T18:29:34Z</time>
      </trkpt>
      <trkpt lat="44.78225" lon="2.54757">
        <ele>654</ele>
        <time>2024-07-17T18:29:35Z</time>
      </trkpt>
      <trkpt lat="44.78224" lon="2.54747">
        <ele>656</ele>
        <time>2024-07-17T18:29:36Z</time>
      </trkpt>
      <trkpt lat="44.78222" lon="2.54738">
        <ele>657</ele>
        <time>2024-07-17T18:29:37Z</time>
      </trkpt>
      <trkpt lat="44.78219" lon="2.54728">
        <ele>658</ele>
        <time>2024-07-17T18:29:38Z</time>
      </trkpt>
      <trkpt lat="44.78217" lon="2.54718">
        <ele>659</ele>
        <time>2024-07-17T18:29:39Z</time>
      </trkpt>
      <trkpt lat="44.78218" lon="2.54708">
        <ele>659</ele>
        <time>2024-07-17T18:29:40Z</time>
      </trkpt>
      <trkpt lat="44.78221" lon="2.54699">
        <ele>659</ele>
        <time>2024-07-17T18:29:41Z</time>
      </trkpt>
      <trkpt lat="44.78226" lon="2.54691">
        <ele>660</ele>
        <time>2024-07-17T18:29:42Z</time>
      </trkpt>
      <trkpt lat="44.78233" lon="2.54683">
        <ele>662</ele>
        <time>2024-07-17T18:29:43Z</time>
      </trkpt>
      <trkpt lat="44.78242" lon="2.54674">
        <ele>663</ele>
        <time>2024-07-17T18:29:44Z</time>
      </trkpt>
      <trkpt lat="44.78251" lon="2.54665">
        <ele>665</ele>
        <time>2024-07-17T18:29:45Z</time>
      </trkpt>
      <trkpt lat="44.78261" lon="2.54655">
        <ele>667</ele>
        <time>2024-07-17T18:29:46Z</time>
      </trkpt>
      <trkpt lat="44.7827" lon="2.54643">
        <ele>668</ele>
        <time>2024-07-17T18:29:47Z</time>
      </trkpt>
      <trkpt lat="44.7828" lon="2.5463">
        <ele>671</ele>
        <time>2024-07-17T18:29:48Z</time>
      </trkpt>
      <trkpt lat="44.78291" lon="2.54616">
        <ele>673</ele>
        <time>2024-07-17T18:29:49Z</time>
      </trkpt>
      <trkpt lat="44.78301" lon="2.54602">
        <ele>674</ele>
        <time>2024-07-17T18:29:50Z</time>
      </trkpt>
      <trkpt lat="44.78311" lon="2.54589">
        <ele>674</ele>
        <time>2024-07-17T18:29:51Z</time>
      </trkpt>
      <trkpt lat="44.7832" lon="2.54576">
        <ele>676</ele>
        <time>2024-07-17T18:29:52Z</time>
      </trkpt>
      <trkpt lat="44.78328" lon="2.54565">
        <ele>678</ele>
        <time>2024-07-17T18:29:53Z</time>
      </trkpt>
      <trkpt lat="44.78335" lon="2.54556">
        <ele>677</ele>
        <time>2024-07-17T18:29:54Z</time>
      </trkpt>
      <trkpt lat="44.7834" lon="2.54547">
        <ele>677</ele>
        <time>2024-07-17T18:29:55Z</time>
      </trkpt>
      <trkpt lat="44.78345" lon="2.54534">
        <ele>678</ele>
        <time>2024-07-17T18:29:56Z</time>
      </trkpt>
      <trkpt lat="44.78351" lon="2.54517">
        <ele>678</ele>
        <time>2024-07-17T18:29:57Z</time>
      </trkpt>
      <trkpt lat="44.78356" lon="2.54501">
        <ele>680</ele>
        <time>2024-07-17T18:29:58Z</time>
      </trkpt>
      <trkpt lat="44.78362" lon="2.54487">
        <ele>679</ele>
        <time>2024-07-17T18:29:59Z</time>
      </trkpt>
      <trkpt lat="44.78369" lon="2.54476">
        <ele>679</ele>
        <time>2024-07-17T18:30:00Z</time>
      </trkpt>
      <trkpt lat="44.78377" lon="2.54467">
        <ele>680</ele>
        <time>2024-07-17T18:30:01Z</time>
      </trkpt>
      <trkpt lat="44.78387" lon="2.5446">
        <ele>680</ele>
        <time>2024-07-17T18:30:02Z</time>
      </trkpt>
      <trkpt lat="44.78396" lon="2.54452">
        <ele>681</ele>
        <time>2024-07-17T18:30:03Z</time>
      </trkpt>
      <trkpt lat="44.78404" lon="2.54445">
        <ele>680</ele>
        <time>2024-07-17T18:30:04Z</time>
      </trkpt>
      <trkpt lat="44.7841" lon="2.54437">
        <ele>680</ele>
        <time>2024-07-17T18:30:05Z</time>
      </trkpt>
      <trkpt lat="44.78416" lon="2.54427">
        <ele>681</ele>
        <time>2024-07-17T18:30:06Z</time>
      </trkpt>
      <trkpt lat="44.78421" lon="2.54416">
        <ele>681</ele>
        <time>2024-07-17T18:30:07Z</time>
      </trkpt>
      <trkpt lat="44.78424" lon="2.54404">
        <ele>680</ele>
        <time>2024-07-17T18:30:08Z</time>
      </trkpt>
      <trkpt lat="44.78425" lon="2.54392">
        <ele>681</ele>
        <time>2024-07-17T18:30:09Z</time>
      </trkpt>
      <trkpt lat="44.78425" lon="2.54378">
        <ele>681</ele>
        <time>2024-07-17T18:30:10Z</time>
      </trkpt>
      <trkpt lat="44.78424" lon="2.54364">
        <ele>682</ele>
        <time>2024-07-17T18:30:11Z</time>
      </trkpt>
      <trkpt lat="44.78422" lon="2.54348">
        <ele>682</ele>
        <time>2024-07-17T18:30:12Z</time>
      </trkpt>
      <trkpt lat="44.78421" lon="2.54332">
        <ele>680</ele>
        <time>2024-07-17T18:30:13Z</time>
      </trkpt>
      <trkpt lat="44.78423" lon="2.54319">
        <ele>680</ele>
        <time>2024-07-17T18:30:14Z</time>
      </trkpt>
      <trkpt lat="44.78425" lon="2.54308">
        <ele>680</ele>
        <time>2024-07-17T18:30:15Z</time>
      </trkpt>
      <trkpt lat="44.78428" lon="2.54299">
        <ele>677</ele>
        <time>2024-07-17T18:30:16Z</time>
      </trkpt>
      <trkpt lat="44.78429" lon="2.54293">
        <ele>676</ele>
        <time>2024-07-17T18:30:18Z</time>
      </trkpt>
      <trkpt lat="44.7843" lon="2.54287">
        <ele>677</ele>
        <time>2024-07-17T18:30:21Z</time>
      </trkpt>
      <trkpt lat="44.7842" lon="2.54287">
        <ele>679</ele>
        <time>2024-07-17T18:30:24Z</time>
      </trkpt>
      <trkpt lat="44.78411" lon="2.54288">
        <ele>679</ele>
        <time>2024-07-17T18:30:25Z</time>
      </trkpt>
      <trkpt lat="44.78404" lon="2.54291">
        <ele>679</ele>
        <time>2024-07-17T18:30:26Z</time>
      </trkpt>
      <trkpt lat="44.78398" lon="2.54296">
        <ele>678</ele>
        <time>2024-07-17T18:30:27Z</time>
      </trkpt>
      <trkpt lat="44.78391" lon="2.54298">
        <ele>679</ele>
        <time>2024-07-17T18:30:28Z</time>
      </trkpt>
      <trkpt lat="44.78384" lon="2.54303">
        <ele>679</ele>
        <time>2024-07-17T18:30:29Z</time>
      </trkpt>
      <trkpt lat="44.78377" lon="2.54306">
        <ele>679</ele>
        <time>2024-07-17T18:30:30Z</time>
      </trkpt>
      <trkpt lat="44.7837" lon="2.5431">
        <ele>679</ele>
        <time>2024-07-17T18:30:31Z</time>
      </trkpt>
      <trkpt lat="44.78362" lon="2.54314">
        <ele>680</ele>
        <time>2024-07-17T18:30:32Z</time>
      </trkpt>
      <trkpt lat="44.78355" lon="2.54319">
        <ele>680</ele>
        <time>2024-07-17T18:30:33Z</time>
      </trkpt>
      <trkpt lat="44.78347" lon="2.54324">
        <ele>680</ele>
        <time>2024-07-17T18:30:34Z</time>
      </trkpt>
      <trkpt lat="44.7834" lon="2.54329">
        <ele>681</ele>
        <time>2024-07-17T18:30:35Z</time>
      </trkpt>
      <trkpt lat="44.78333" lon="2.54334">
        <ele>681</ele>
        <time>2024-07-17T18:30:36Z</time>
      </trkpt>
      <trkpt lat="44.78327" lon="2.54341">
        <ele>681</ele>
        <time>2024-07-17T18:30:37Z</time>
      </trkpt>
      <trkpt lat="44.7832" lon="2.54346">
        <ele>681</ele>
        <time>2024-07-17T18:30:38Z</time>
      </trkpt>
      <trkpt lat="44.78313" lon="2.54355">
        <ele>681</ele>
        <time>2024-07-17T18:30:39Z</time>
      </trkpt>
      <trkpt lat="44.78306" lon="2.54362">
        <ele>681</ele>
        <time>2024-07-17T18:30:40Z</time>
      </trkpt>
      <trkpt lat="44.78299" lon="2.54369">
        <ele>682</ele>
        <time>2024-07-17T18:30:41Z</time>
      </trkpt>
      <trkpt lat="44.78293" lon="2.54376">
        <ele>681</ele>
        <time>2024-07-17T18:30:41Z</time>
      </trkpt>
      <trkpt lat="44.78286" lon="2.54383">
        <ele>682</ele>
        <time>2024-07-17T18:30:42Z</time>
      </trkpt>
      <trkpt lat="44.7828" lon="2.54391">
        <ele>682</ele>
        <time>2024-07-17T18:30:43Z</time>
      </trkpt>
      <trkpt lat="44.78274" lon="2.54398">
        <ele>681</ele>
        <time>2024-07-17T18:30:44Z</time>
      </trkpt>
      <trkpt lat="44.78268" lon="2.54406">
        <ele>682</ele>
        <time>2024-07-17T18:30:45Z</time>
      </trkpt>
      <trkpt lat="44.78262" lon="2.54414">
        <ele>682</ele>
        <time>2024-07-17T18:30:46Z</time>
      </trkpt>
      <trkpt lat="44.78256" lon="2.54423">
        <ele>682</ele>
        <time>2024-07-17T18:30:47Z</time>
      </trkpt>
      <trkpt lat="44.78251" lon="2.54432">
        <ele>683</ele>
        <time>2024-07-17T18:30:48Z</time>
      </trkpt>
      <trkpt lat="44.78247" lon="2.54442">
        <ele>683</ele>
        <time>2024-07-17T18:30:50Z</time>
      </trkpt>
      <trkpt lat="44.78244" lon="2.54452">
        <ele>684</ele>
        <time>2024-07-17T18:30:51Z</time>
      </trkpt>
      <trkpt lat="44.78241" lon="2.54463">
        <ele>685</ele>
        <time>2024-07-17T18:30:52Z</time>
      </trkpt>
      <trkpt lat="44.78238" lon="2.54474">
        <ele>686</ele>
        <time>2024-07-17T18:30:53Z</time>
      </trkpt>
      <trkpt lat="44.78234" lon="2.54483">
        <ele>686</ele>
        <time>2024-07-17T18:30:54Z</time>
      </trkpt>
      <trkpt lat="44.78231" lon="2.54491">
        <ele>687</ele>
        <time>2024-07-17T18:30:55Z</time>
      </trkpt>
      <trkpt lat="44.78228" lon="2.54496">
        <ele>687</ele>
        <time>2024-07-17T18:30:56Z</time>
      </trkpt>
      <trkpt lat="44.78224" lon="2.54501">
        <ele>687</ele>
        <time>2024-07-17T18:30:57Z</time>
      </trkpt>
      <trkpt lat="44.7822" lon="2.54504">
        <ele>687</ele>
        <time>2024-07-17T18:30:58Z</time>
      </trkpt>
      <trkpt lat="44.78216" lon="2.54507">
        <ele>688</ele>
        <time>2024-07-17T18:30:59Z</time>
      </trkpt>
      <trkpt lat="44.78212" lon="2.54511">
        <ele>688</ele>
        <time>2024-07-17T18:31:00Z</time>
      </trkpt>
      <trkpt lat="44.78207" lon="2.54517">
        <ele>689</ele>
        <time>2024-07-17T18:31:01Z</time>
      </trkpt>
      <trkpt lat="44.78202" lon="2.54522">
        <ele>690</ele>
        <time>2024-07-17T18:31:02Z</time>
      </trkpt>
      <trkpt lat="44.78198" lon="2.54529">
        <ele>690</ele>
        <time>2024-07-17T18:31:03Z</time>
      </trkpt>
      <trkpt lat="44.78193" lon="2.54536">
        <ele>691</ele>
        <time>2024-07-17T18:31:04Z</time>
      </trkpt>
      <trkpt lat="44.78189" lon="2.54543">
        <ele>692</ele>
        <time>2024-07-17T18:31:05Z</time>
      </trkpt>
      <trkpt lat="44.78184" lon="2.54549">
        <ele>691</ele>
        <time>2024-07-17T18:31:06Z</time>
      </trkpt>
      <trkpt lat="44.78179" lon="2.54554">
        <ele>692</ele>
        <time>2024-07-17T18:31:07Z</time>
      </trkpt>
      <trkpt lat="44.78175" lon="2.5456">
        <ele>692</ele>
        <time>2024-07-17T18:31:08Z</time>
      </trkpt>
      <trkpt lat="44.7817" lon="2.54566">
        <ele>692</ele>
        <time>2024-07-17T18:31:09Z</time>
      </trkpt>
      <trkpt lat="44.78164" lon="2.54572">
        <ele>692</ele>
        <time>2024-07-17T18:31:10Z</time>
      </trkpt>
      <trkpt lat="44.78159" lon="2.54579">
        <ele>691</ele>
        <time>2024-07-17T18:31:11Z</time>
      </trkpt>
      <trkpt lat="44.78153" lon="2.54586">
        <ele>691</ele>
        <time>2024-07-17T18:31:12Z</time>
      </trkpt>
      <trkpt lat="44.78147" lon="2.54591">
        <ele>690</ele>
        <time>2024-07-17T18:31:13Z</time>
      </trkpt>
      <trkpt lat="44.78141" lon="2.54598">
        <ele>691</ele>
        <time>2024-07-17T18:31:14Z</time>
      </trkpt>
      <trkpt lat="44.78136" lon="2.54605">
        <ele>691</ele>
        <time>2024-07-17T18:31:15Z</time>
      </trkpt>
      <trkpt lat="44.7813" lon="2.5461">
        <ele>690</ele>
        <time>2024-07-17T18:31:16Z</time>
      </trkpt>
      <trkpt lat="44.78124" lon="2.54616">
        <ele>690</ele>
        <time>2024-07-17T18:31:17Z</time>
      </trkpt>
      <trkpt lat="44.78118" lon="2.54623">
        <ele>689</ele>
        <time>2024-07-17T18:31:18Z</time>
      </trkpt>
      <trkpt lat="44.78111" lon="2.5463">
        <ele>690</ele>
        <time>2024-07-17T18:31:19Z</time>
      </trkpt>
      <trkpt lat="44.78105" lon="2.54638">
        <ele>690</ele>
        <time>2024-07-17T18:31:20Z</time>
      </trkpt>
      <trkpt lat="44.78099" lon="2.54644">
        <ele>690</ele>
        <time>2024-07-17T18:31:21Z</time>
      </trkpt>
      <trkpt lat="44.78093" lon="2.54652">
        <ele>690</ele>
        <time>2024-07-17T18:31:22Z</time>
      </trkpt>
      <trkpt lat="44.78087" lon="2.54658">
        <ele>690</ele>
        <time>2024-07-17T18:31:23Z</time>
      </trkpt>
      <trkpt lat="44.78081" lon="2.54665">
        <ele>690</ele>
        <time>2024-07-17T18:31:24Z</time>
      </trkpt>
      <trkpt lat="44.78075" lon="2.54672">
        <ele>690</ele>
        <time>2024-07-17T18:31:25Z</time>
      </trkpt>
      <trkpt lat="44.78068" lon="2.54677">
        <ele>691</ele>
        <time>2024-07-17T18:31:26Z</time>
      </trkpt>
      <trkpt lat="44.78061" lon="2.54682">
        <ele>691</ele>
        <time>2024-07-17T18:31:27Z</time>
      </trkpt>
      <trkpt lat="44.78054" lon="2.54687">
        <ele>691</ele>
        <time>2024-07-17T18:31:28Z</time>
      </trkpt>
      <trkpt lat="44.78048" lon="2.54693">
        <ele>692</ele>
        <time>2024-07-17T18:31:29Z</time>
      </trkpt>
      <trkpt lat="44.78041" lon="2.54698">
        <ele>692</ele>
        <time>2024-07-17T18:31:30Z</time>
      </trkpt>
      <trkpt lat="44.78035" lon="2.54702">
        <ele>693</ele>
        <time>2024-07-17T18:31:31Z</time>
      </trkpt>
      <trkpt lat="44.78028" lon="2.54707">
        <ele>693</ele>
        <time>2024-07-17T18:31:32Z</time>
      </trkpt>
      <trkpt lat="44.78022" lon="2.54712">
        <ele>694</ele>
        <time>2024-07-17T18:31:33Z</time>
      </trkpt>
      <trkpt lat="44.78015" lon="2.54717">
        <ele>694</ele>
        <time>2024-07-17T18:31:34Z</time>
      </trkpt>
      <trkpt lat="44.78009" lon="2.54722">
        <ele>694</ele>
        <time>2024-07-17T18:31:35Z</time>
      </trkpt>
      <trkpt lat="44.78002" lon="2.54727">
        <ele>695</ele>
        <time>2024-07-17T18:31:36Z</time>
      </trkpt>
      <trkpt lat="44.77995" lon="2.54731">
        <ele>695</ele>
        <time>2024-07-17T18:31:37Z</time>
      </trkpt>
      <trkpt lat="44.77989" lon="2.54738">
        <ele>696</ele>
        <time>2024-07-17T18:31:38Z</time>
      </trkpt>
      <trkpt lat="44.77981" lon="2.54743">
        <ele>696</ele>
        <time>2024-07-17T18:31:39Z</time>
      </trkpt>
      <trkpt lat="44.77974" lon="2.54748">
        <ele>697</ele>
        <time>2024-07-17T18:31:40Z</time>
      </trkpt>
      <trkpt lat="44.77968" lon="2.54754">
        <ele>697</ele>
        <time>2024-07-17T18:31:41Z</time>
      </trkpt>
      <trkpt lat="44.77961" lon="2.5476">
        <ele>697</ele>
        <time>2024-07-17T18:31:42Z</time>
      </trkpt>
      <trkpt lat="44.77955" lon="2.54768">
        <ele>698</ele>
        <time>2024-07-17T18:31:43Z</time>
      </trkpt>
      <trkpt lat="44.77949" lon="2.54775">
        <ele>698</ele>
        <time>2024-07-17T18:31:44Z</time>
      </trkpt>
      <trkpt lat="44.77943" lon="2.54784">
        <ele>698</ele>
        <time>2024-07-17T18:31:45Z</time>
      </trkpt>
      <trkpt lat="44.77937" lon="2.54792">
        <ele>698</ele>
        <time>2024-07-17T18:31:46Z</time>
      </trkpt>
      <trkpt lat="44.77931" lon="2.54801">
        <ele>698</ele>
        <time>2024-07-17T18:31:47Z</time>
      </trkpt>
      <trkpt lat="44.77925" lon="2.54811">
        <ele>698</ele>
        <time>2024-07-17T18:31:48Z</time>
      </trkpt>
      <trkpt lat="44.7792" lon="2.5482">
        <ele>698</ele>
        <time>2024-07-17T18:31:49Z</time>
      </trkpt>
      <trkpt lat="44.77914" lon="2.54829">
        <ele>698</ele>
        <time>2024-07-17T18:31:50Z</time>
      </trkpt>
      <trkpt lat="44.77908" lon="2.54836">
        <ele>698</ele>
        <time>2024-07-17T18:31:51Z</time>
      </trkpt>
      <trkpt lat="44.77902" lon="2.54845">
        <ele>698</ele>
        <time>2024-07-17T18:31:52Z</time>
      </trkpt>
      <trkpt lat="44.77897" lon="2.54854">
        <ele>698</ele>
        <time>2024-07-17T18:31:53Z</time>
      </trkpt>
      <trkpt lat="44.77891" lon="2.54863">
        <ele>698</ele>
        <time>2024-07-17T18:31:54Z</time>
      </trkpt>
      <trkpt lat="44.77885" lon="2.54872">
        <ele>698</ele>
        <time>2024-07-17T18:31:55Z</time>
      </trkpt>
      <trkpt lat="44.77879" lon="2.54881">
        <ele>698</ele>
        <time>2024-07-17T18:31:56Z</time>
      </trkpt>
      <trkpt lat="44.77873" lon="2.54889">
        <ele>698</ele>
        <time>2024-07-17T18:31:57Z</time>
      </trkpt>
      <trkpt lat="44.77867" lon="2.54897">
        <ele>698</ele>
        <time>2024-07-17T18:31:58Z</time>
      </trkpt>
      <trkpt lat="44.77861" lon="2.54905">
        <ele>698</ele>
        <time>2024-07-17T18:31:59Z</time>
      </trkpt>
      <trkpt lat="44.77854" lon="2.54913">
        <ele>698</ele>
        <time>2024-07-17T18:32:00Z</time>
      </trkpt>
      <trkpt lat="44.77847" lon="2.54921">
        <ele>698</ele>
        <time>2024-07-17T18:32:01Z</time>
      </trkpt>
      <trkpt lat="44.77841" lon="2.54929">
        <ele>698</ele>
        <time>2024-07-17T18:32:02Z</time>
      </trkpt>
      <trkpt lat="44.77834" lon="2.54937">
        <ele>698</ele>
        <time>2024-07-17T18:32:03Z</time>
      </trkpt>
      <trkpt lat="44.77827" lon="2.54945">
        <ele>698</ele>
        <time>2024-07-17T18:32:04Z</time>
      </trkpt>
      <trkpt lat="44.7782" lon="2.54952">
        <ele>698</ele>
        <time>2024-07-17T18:32:05Z</time>
      </trkpt>
      <trkpt lat="44.77814" lon="2.54959">
        <ele>697</ele>
        <time>2024-07-17T18:32:06Z</time>
      </trkpt>
      <trkpt lat="44.77807" lon="2.54966">
        <ele>697</ele>
        <time>2024-07-17T18:32:07Z</time>
      </trkpt>
      <trkpt lat="44.77801" lon="2.54975">
        <ele>696</ele>
        <time>2024-07-17T18:32:08Z</time>
      </trkpt>
      <trkpt lat="44.77795" lon="2.54983">
        <ele>695</ele>
        <time>2024-07-17T18:32:09Z</time>
      </trkpt>
      <trkpt lat="44.77789" lon="2.5499">
        <ele>695</ele>
        <time>2024-07-17T18:32:10Z</time>
      </trkpt>
      <trkpt lat="44.77784" lon="2.54997">
        <ele>695</ele>
        <time>2024-07-17T18:32:11Z</time>
      </trkpt>
      <trkpt lat="44.77778" lon="2.55004">
        <ele>695</ele>
        <time>2024-07-17T18:32:12Z</time>
      </trkpt>
      <trkpt lat="44.77772" lon="2.55009">
        <ele>695</ele>
        <time>2024-07-17T18:32:13Z</time>
      </trkpt>
      <trkpt lat="44.77765" lon="2.55015">
        <ele>694</ele>
        <time>2024-07-17T18:32:14Z</time>
      </trkpt>
      <trkpt lat="44.77759" lon="2.55022">
        <ele>694</ele>
        <time>2024-07-17T18:32:15Z</time>
      </trkpt>
      <trkpt lat="44.77751" lon="2.55028">
        <ele>693</ele>
        <time>2024-07-17T18:32:16Z</time>
      </trkpt>
      <trkpt lat="44.77743" lon="2.55033">
        <ele>693</ele>
        <time>2024-07-17T18:32:17Z</time>
      </trkpt>
      <trkpt lat="44.77735" lon="2.55037">
        <ele>693</ele>
        <time>2024-07-17T18:32:18Z</time>
      </trkpt>
      <trkpt lat="44.77727" lon="2.5504">
        <ele>692</ele>
        <time>2024-07-17T18:32:19Z</time>
      </trkpt>
      <trkpt lat="44.77719" lon="2.55043">
        <ele>691</ele>
        <time>2024-07-17T18:32:20Z</time>
      </trkpt>
      <trkpt lat="44.77711" lon="2.55045">
        <ele>691</ele>
        <time>2024-07-17T18:32:21Z</time>
      </trkpt>
      <trkpt lat="44.77703" lon="2.55048">
        <ele>690</ele>
        <time>2024-07-17T18:32:22Z</time>
      </trkpt>
      <trkpt lat="44.77695" lon="2.55049">
        <ele>690</ele>
        <time>2024-07-17T18:32:23Z</time>
      </trkpt>
      <trkpt lat="44.77688" lon="2.5505">
        <ele>690</ele>
        <time>2024-07-17T18:32:24Z</time>
      </trkpt>
      <trkpt lat="44.77682" lon="2.55049">
        <ele>689</ele>
        <time>2024-07-17T18:32:25Z</time>
      </trkpt>
      <trkpt lat="44.77676" lon="2.55048">
        <ele>689</ele>
        <time>2024-07-17T18:32:26Z</time>
      </trkpt>
      <trkpt lat="44.77671" lon="2.55046">
        <ele>689</ele>
        <time>2024-07-17T18:32:27Z</time>
      </trkpt>
      <trkpt lat="44.77666" lon="2.55044">
        <ele>689</ele>
        <time>2024-07-17T18:32:28Z</time>
      </trkpt>
      <trkpt lat="44.77663" lon="2.55042">
        <ele>690</ele>
        <time>2024-07-17T18:32:29Z</time>
      </trkpt>
      <trkpt lat="44.77659" lon="2.55039">
        <ele>690</ele>
        <time>2024-07-17T18:32:30Z</time>
      </trkpt>
      <trkpt lat="44.77653" lon="2.55036">
        <ele>690</ele>
        <time>2024-07-17T18:32:31Z</time>
      </trkpt>
      <trkpt lat="44.77649" lon="2.5503">
        <ele>690</ele>
        <time>2024-07-17T18:32:31Z</time>
      </trkpt>
      <trkpt lat="44.77645" lon="2.55022">
        <ele>689</ele>
        <time>2024-07-17T18:32:32Z</time>
      </trkpt>
      <trkpt lat="44.77641" lon="2.55013">
        <ele>688</ele>
        <time>2024-07-17T18:32:33Z</time>
      </trkpt>
      <trkpt lat="44.77638" lon="2.55004">
        <ele>687</ele>
        <time>2024-07-17T18:32:34Z</time>
      </trkpt>
      <trkpt lat="44.77635" lon="2.54994">
        <ele>686</ele>
        <time>2024-07-17T18:32:35Z</time>
      </trkpt>
      <trkpt lat="44.77634" lon="2.54984">
        <ele>686</ele>
        <time>2024-07-17T18:32:36Z</time>
      </trkpt>
      <trkpt lat="44.77632" lon="2.54974">
        <ele>685</ele>
        <time>2024-07-17T18:32:37Z</time>
      </trkpt>
      <trkpt lat="44.77631" lon="2.54964">
        <ele>684</ele>
        <time>2024-07-17T18:32:38Z</time>
      </trkpt>
      <trkpt lat="44.7763" lon="2.54954">
        <ele>683</ele>
        <time>2024-07-17T18:32:39Z</time>
      </trkpt>
      <trkpt lat="44.7763" lon="2.54946">
        <ele>682</ele>
        <time>2024-07-17T18:32:40Z</time>
      </trkpt>
      <trkpt lat="44.7763" lon="2.54936">
        <ele>681</ele>
        <time>2024-07-17T18:32:41Z</time>
      </trkpt>
      <trkpt lat="44.7763" lon="2.54927">
        <ele>680</ele>
        <time>2024-07-17T18:32:42Z</time>
      </trkpt>
      <trkpt lat="44.77631" lon="2.54918">
        <ele>679</ele>
        <time>2024-07-17T18:32:43Z</time>
      </trkpt>
      <trkpt lat="44.77632" lon="2.54909">
        <ele>678</ele>
        <time>2024-07-17T18:32:44Z</time>
      </trkpt>
      <trkpt lat="44.77634" lon="2.54899">
        <ele>678</ele>
        <time>2024-07-17T18:32:45Z</time>
      </trkpt>
      <trkpt lat="44.77636" lon="2.54889">
        <ele>677</ele>
        <time>2024-07-17T18:32:46Z</time>
      </trkpt>
      <trkpt lat="44.7764" lon="2.5488">
        <ele>676</ele>
        <time>2024-07-17T18:32:47Z</time>
      </trkpt>
      <trkpt lat="44.77643" lon="2.54871">
        <ele>675</ele>
        <time>2024-07-17T18:32:48Z</time>
      </trkpt>
      <trkpt lat="44.77647" lon="2.54863">
        <ele>674</ele>
        <time>2024-07-17T18:32:49Z</time>
      </trkpt>
      <trkpt lat="44.7765" lon="2.54855">
        <ele>674</ele>
        <time>2024-07-17T18:32:50Z</time>
      </trkpt>
      <trkpt lat="44.77655" lon="2.54845">
        <ele>673</ele>
        <time>2024-07-17T18:32:51Z</time>
      </trkpt>
      <trkpt lat="44.77659" lon="2.54835">
        <ele>673</ele>
        <time>2024-07-17T18:32:52Z</time>
      </trkpt>
      <trkpt lat="44.77663" lon="2.54824">
        <ele>671</ele>
        <time>2024-07-17T18:32:53Z</time>
      </trkpt>
      <trkpt lat="44.77666" lon="2.54811">
        <ele>670</ele>
        <time>2024-07-17T18:32:54Z</time>
      </trkpt>
      <trkpt lat="44.7767" lon="2.548">
        <ele>669</ele>
        <time>2024-07-17T18:32:56Z</time>
      </trkpt>
      <trkpt lat="44.77672" lon="2.54789">
        <ele>669</ele>
        <time>2024-07-17T18:32:57Z</time>
      </trkpt>
      <trkpt lat="44.77673" lon="2.54779">
        <ele>668</ele>
        <time>2024-07-17T18:32:58Z</time>
      </trkpt>
      <trkpt lat="44.77674" lon="2.54769">
        <ele>667</ele>
        <time>2024-07-17T18:32:59Z</time>
      </trkpt>
      <trkpt lat="44.77674" lon="2.5476">
        <ele>666</ele>
        <time>2024-07-17T18:33:00Z</time>
      </trkpt>
      <trkpt lat="44.77674" lon="2.54751">
        <ele>666</ele>
        <time>2024-07-17T18:33:01Z</time>
      </trkpt>
      <trkpt lat="44.77674" lon="2.54743">
        <ele>666</ele>
        <time>2024-07-17T18:33:02Z</time>
      </trkpt>
      <trkpt lat="44.77676" lon="2.54737">
        <ele>665</ele>
        <time>2024-07-17T18:33:03Z</time>
      </trkpt>
      <trkpt lat="44.77676" lon="2.54732">
        <ele>665</ele>
        <time>2024-07-17T18:33:04Z</time>
      </trkpt>
      <trkpt lat="44.77677" lon="2.54727">
        <ele>664</ele>
        <time>2024-07-17T18:33:05Z</time>
      </trkpt>
      <trkpt lat="44.77678" lon="2.54722">
        <ele>663</ele>
        <time>2024-07-17T18:33:06Z</time>
      </trkpt>
      <trkpt lat="44.77676" lon="2.54724">
        <ele>662</ele>
        <time>2024-07-17T18:33:09Z</time>
      </trkpt>
      <trkpt lat="44.77678" lon="2.54732">
        <ele>661</ele>
        <time>2024-07-17T18:33:10Z</time>
      </trkpt>
      <trkpt lat="44.77679" lon="2.54739">
        <ele>661</ele>
        <time>2024-07-17T18:33:11Z</time>
      </trkpt>
      <trkpt lat="44.7768" lon="2.54747">
        <ele>661</ele>
        <time>2024-07-17T18:33:12Z</time>
      </trkpt>
      <trkpt lat="44.77681" lon="2.54756">
        <ele>661</ele>
        <time>2024-07-17T18:33:13Z</time>
      </trkpt>
      <trkpt lat="44.77682" lon="2.54772">
        <ele>659</ele>
        <time>2024-07-17T18:33:14Z</time>
      </trkpt>
      <trkpt lat="44.77683" lon="2.54785">
        <ele>659</ele>
        <time>2024-07-17T18:33:15Z</time>
      </trkpt>
      <trkpt lat="44.77686" lon="2.54796">
        <ele>658</ele>
        <time>2024-07-17T18:33:16Z</time>
      </trkpt>
      <trkpt lat="44.77689" lon="2.54803">
        <ele>658</ele>
        <time>2024-07-17T18:33:17Z</time>
      </trkpt>
      <trkpt lat="44.77691" lon="2.54808">
        <ele>657</ele>
        <time>2024-07-17T18:33:18Z</time>
      </trkpt>
      <trkpt lat="44.77693" lon="2.54812">
        <ele>656</ele>
        <time>2024-07-17T18:33:19Z</time>
      </trkpt>
      <trkpt lat="44.777" lon="2.54813">
        <ele>655</ele>
        <time>2024-07-17T18:33:20Z</time>
      </trkpt>
      <trkpt lat="44.77705" lon="2.54813">
        <ele>655</ele>
        <time>2024-07-17T18:33:21Z</time>
      </trkpt>
      <trkpt lat="44.7771" lon="2.54811">
        <ele>655</ele>
        <time>2024-07-17T18:33:22Z</time>
      </trkpt>
      <trkpt lat="44.77714" lon="2.54807">
        <ele>654</ele>
        <time>2024-07-17T18:33:23Z</time>
      </trkpt>
      <trkpt lat="44.77718" lon="2.54802">
        <ele>654</ele>
        <time>2024-07-17T18:33:24Z</time>
      </trkpt>
      <trkpt lat="44.77721" lon="2.54798">
        <ele>653</ele>
        <time>2024-07-17T18:33:25Z</time>
      </trkpt>
      <trkpt lat="44.77721" lon="2.54793">
        <ele>652</ele>
        <time>2024-07-17T18:33:26Z</time>
      </trkpt>
      <trkpt lat="44.77723" lon="2.54789">
        <ele>651</ele>
        <time>2024-07-17T18:33:27Z</time>
      </trkpt>
      <trkpt lat="44.77725" lon="2.54784">
        <ele>651</ele>
        <time>2024-07-17T18:33:28Z</time>
      </trkpt>
      <trkpt lat="44.77729" lon="2.54779">
        <ele>651</ele>
        <time>2024-07-17T18:33:29Z</time>
      </trkpt>
      <trkpt lat="44.77733" lon="2.54772">
        <ele>651</ele>
        <time>2024-07-17T18:33:30Z</time>
      </trkpt>
      <trkpt lat="44.77737" lon="2.54764">
        <ele>651</ele>
        <time>2024-07-17T18:33:31Z</time>
      </trkpt>
      <trkpt lat="44.77741" lon="2.54755">
        <ele>650</ele>
        <time>2024-07-17T18:33:32Z</time>
      </trkpt>
      <trkpt lat="44.77744" lon="2.54747">
        <ele>650</ele>
        <time>2024-07-17T18:33:33Z</time>
      </trkpt>
      <trkpt lat="44.77748" lon="2.54739">
        <ele>649</ele>
        <time>2024-07-17T18:33:34Z</time>
      </trkpt>
      <trkpt lat="44.77752" lon="2.5473">
        <ele>648</ele>
        <time>2024-07-17T18:33:35Z</time>
      </trkpt>
      <trkpt lat="44.77756" lon="2.54722">
        <ele>647</ele>
        <time>2024-07-17T18:33:36Z</time>
      </trkpt>
      <trkpt lat="44.77759" lon="2.54715">
        <ele>646</ele>
        <time>2024-07-17T18:33:37Z</time>
      </trkpt>
      <trkpt lat="44.77763" lon="2.54708">
        <ele>645</ele>
        <time>2024-07-17T18:33:38Z</time>
      </trkpt>
      <trkpt lat="44.77765" lon="2.54702">
        <ele>644</ele>
        <time>2024-07-17T18:33:39Z</time>
      </trkpt>
      <trkpt lat="44.77767" lon="2.54695">
        <ele>644</ele>
        <time>2024-07-17T18:33:40Z</time>
      </trkpt>
      <trkpt lat="44.7777" lon="2.54688">
        <ele>643</ele>
        <time>2024-07-17T18:33:41Z</time>
      </trkpt>
      <trkpt lat="44.77772" lon="2.54679">
        <ele>642</ele>
        <time>2024-07-17T18:33:42Z</time>
      </trkpt>
      <trkpt lat="44.77775" lon="2.5467">
        <ele>642</ele>
        <time>2024-07-17T18:33:43Z</time>
      </trkpt>
      <trkpt lat="44.77777" lon="2.5466">
        <ele>641</ele>
        <time>2024-07-17T18:33:44Z</time>
      </trkpt>
      <trkpt lat="44.77778" lon="2.54651">
        <ele>640</ele>
        <time>2024-07-17T18:33:45Z</time>
      </trkpt>
      <trkpt lat="44.7778" lon="2.54642">
        <ele>640</ele>
        <time>2024-07-17T18:33:46Z</time>
      </trkpt>
      <trkpt lat="44.7778" lon="2.54633">
        <ele>639</ele>
        <time>2024-07-17T18:33:47Z</time>
      </trkpt>
      <trkpt lat="44.7778" lon="2.54624">
        <ele>637</ele>
        <time>2024-07-17T18:33:48Z</time>
      </trkpt>
      <trkpt lat="44.7778" lon="2.54616">
        <ele>636</ele>
        <time>2024-07-17T18:33:49Z</time>
      </trkpt>
      <trkpt lat="44.7778" lon="2.54607">
        <ele>635</ele>
        <time>2024-07-17T18:33:50Z</time>
      </trkpt>
      <trkpt lat="44.77779" lon="2.54598">
        <ele>634</ele>
        <time>2024-07-17T18:33:51Z</time>
      </trkpt>
      <trkpt lat="44.77777" lon="2.54588">
        <ele>633</ele>
        <time>2024-07-17T18:33:52Z</time>
      </trkpt>
      <trkpt lat="44.77776" lon="2.54578">
        <ele>631</ele>
        <time>2024-07-17T18:33:53Z</time>
      </trkpt>
      <trkpt lat="44.77774" lon="2.54566">
        <ele>630</ele>
        <time>2024-07-17T18:33:54Z</time>
      </trkpt>
      <trkpt lat="44.77771" lon="2.54559">
        <ele>629</ele>
        <time>2024-07-17T18:33:55Z</time>
      </trkpt>
      <trkpt lat="44.7777" lon="2.5455">
        <ele>628</ele>
        <time>2024-07-17T18:33:56Z</time>
      </trkpt>
      <trkpt lat="44.77767" lon="2.5454">
        <ele>627</ele>
        <time>2024-07-17T18:33:57Z</time>
      </trkpt>
      <trkpt lat="44.77764" lon="2.5453">
        <ele>627</ele>
        <time>2024-07-17T18:33:58Z</time>
      </trkpt>
      <trkpt lat="44.7776" lon="2.5452">
        <ele>627</ele>
        <time>2024-07-17T18:33:59Z</time>
      </trkpt>
      <trkpt lat="44.77755" lon="2.54509">
        <ele>626</ele>
        <time>2024-07-17T18:34:00Z</time>
      </trkpt>
      <trkpt lat="44.7775" lon="2.54499">
        <ele>624</ele>
        <time>2024-07-17T18:34:01Z</time>
      </trkpt>
      <trkpt lat="44.77746" lon="2.5449">
        <ele>623</ele>
        <time>2024-07-17T18:34:02Z</time>
      </trkpt>
      <trkpt lat="44.77743" lon="2.54483">
        <ele>622</ele>
        <time>2024-07-17T18:34:03Z</time>
      </trkpt>
      <trkpt lat="44.77741" lon="2.54475">
        <ele>621</ele>
        <time>2024-07-17T18:34:04Z</time>
      </trkpt>
      <trkpt lat="44.77739" lon="2.54468">
        <ele>620</ele>
        <time>2024-07-17T18:34:05Z</time>
      </trkpt>
      <trkpt lat="44.77738" lon="2.54462">
        <ele>618</ele>
        <time>2024-07-17T18:34:06Z</time>
      </trkpt>
      <trkpt lat="44.7774" lon="2.54456">
        <ele>617</ele>
        <time>2024-07-17T18:34:07Z</time>
      </trkpt>
      <trkpt lat="44.77742" lon="2.54449">
        <ele>617</ele>
        <time>2024-07-17T18:34:08Z</time>
      </trkpt>
      <trkpt lat="44.77746" lon="2.54442">
        <ele>617</ele>
        <time>2024-07-17T18:34:09Z</time>
      </trkpt>
      <trkpt lat="44.7775" lon="2.54436">
        <ele>616</ele>
        <time>2024-07-17T18:34:10Z</time>
      </trkpt>
      <trkpt lat="44.77754" lon="2.54428">
        <ele>617</ele>
        <time>2024-07-17T18:34:11Z</time>
      </trkpt>
      <trkpt lat="44.77759" lon="2.5442">
        <ele>616</ele>
        <time>2024-07-17T18:34:12Z</time>
      </trkpt>
      <trkpt lat="44.77765" lon="2.54413">
        <ele>616</ele>
        <time>2024-07-17T18:34:13Z</time>
      </trkpt>
      <trkpt lat="44.7777" lon="2.54406">
        <ele>615</ele>
        <time>2024-07-17T18:34:14Z</time>
      </trkpt>
      <trkpt lat="44.77774" lon="2.54401">
        <ele>615</ele>
        <time>2024-07-17T18:34:15Z</time>
      </trkpt>
      <trkpt lat="44.77778" lon="2.54397">
        <ele>615</ele>
        <time>2024-07-17T18:34:16Z</time>
      </trkpt>
      <trkpt lat="44.77782" lon="2.54392">
        <ele>614</ele>
        <time>2024-07-17T18:34:17Z</time>
      </trkpt>
      <trkpt lat="44.77787" lon="2.54388">
        <ele>614</ele>
        <time>2024-07-17T18:34:18Z</time>
      </trkpt>
      <trkpt lat="44.77793" lon="2.54387">
        <ele>613</ele>
        <time>2024-07-17T18:34:19Z</time>
      </trkpt>
      <trkpt lat="44.778" lon="2.54386">
        <ele>612</ele>
        <time>2024-07-17T18:34:20Z</time>
      </trkpt>
      <trkpt lat="44.77806" lon="2.54387">
        <ele>612</ele>
        <time>2024-07-17T18:34:21Z</time>
      </trkpt>
      <trkpt lat="44.77812" lon="2.54388">
        <ele>611</ele>
        <time>2024-07-17T18:34:22Z</time>
      </trkpt>
      <trkpt lat="44.77819" lon="2.54389">
        <ele>611</ele>
        <time>2024-07-17T18:34:23Z</time>
      </trkpt>
      <trkpt lat="44.77825" lon="2.54388">
        <ele>610</ele>
        <time>2024-07-17T18:34:24Z</time>
      </trkpt>
      <trkpt lat="44.77831" lon="2.54388">
        <ele>610</ele>
        <time>2024-07-17T18:34:25Z</time>
      </trkpt>
      <trkpt lat="44.77836" lon="2.54385">
        <ele>609</ele>
        <time>2024-07-17T18:34:26Z</time>
      </trkpt>
      <trkpt lat="44.7784" lon="2.54381">
        <ele>609</ele>
        <time>2024-07-17T18:34:27Z</time>
      </trkpt>
      <trkpt lat="44.77842" lon="2.54377">
        <ele>609</ele>
        <time>2024-07-17T18:34:28Z</time>
      </trkpt>
      <trkpt lat="44.77843" lon="2.54371">
        <ele>608</ele>
        <time>2024-07-17T18:34:29Z</time>
      </trkpt>
      <trkpt lat="44.77845" lon="2.54364">
        <ele>608</ele>
        <time>2024-07-17T18:34:30Z</time>
      </trkpt>
      <trkpt lat="44.77847" lon="2.54358">
        <ele>607</ele>
        <time>2024-07-17T18:34:31Z</time>
      </trkpt>
      <trkpt lat="44.7785" lon="2.54351">
        <ele>607</ele>
        <time>2024-07-17T18:34:32Z</time>
      </trkpt>
      <trkpt lat="44.77854" lon="2.54345">
        <ele>606</ele>
        <time>2024-07-17T18:34:33Z</time>
      </trkpt>
      <trkpt lat="44.77858" lon="2.5434">
        <ele>606</ele>
        <time>2024-07-17T18:34:34Z</time>
      </trkpt>
      <trkpt lat="44.77862" lon="2.54334">
        <ele>605</ele>
        <time>2024-07-17T18:34:35Z</time>
      </trkpt>
      <trkpt lat="44.77865" lon="2.54329">
        <ele>604</ele>
        <time>2024-07-17T18:34:35Z</time>
      </trkpt>
      <trkpt lat="44.77869" lon="2.54323">
        <ele>603</ele>
        <time>2024-07-17T18:34:36Z</time>
      </trkpt>
      <trkpt lat="44.77871" lon="2.54315">
        <ele>604</ele>
        <time>2024-07-17T18:34:37Z</time>
      </trkpt>
      <trkpt lat="44.77872" lon="2.5431">
        <ele>603</ele>
        <time>2024-07-17T18:34:38Z</time>
      </trkpt>
      <trkpt lat="44.77872" lon="2.54303">
        <ele>604</ele>
        <time>2024-07-17T18:34:39Z</time>
      </trkpt>
      <trkpt lat="44.7787" lon="2.54297">
        <ele>604</ele>
        <time>2024-07-17T18:34:40Z</time>
      </trkpt>
      <trkpt lat="44.77864" lon="2.5429">
        <ele>605</ele>
        <time>2024-07-17T18:34:41Z</time>
      </trkpt>
      <trkpt lat="44.77858" lon="2.54284">
        <ele>605</ele>
        <time>2024-07-17T18:34:42Z</time>
      </trkpt>
      <trkpt lat="44.77852" lon="2.54278">
        <ele>606</ele>
        <time>2024-07-17T18:34:43Z</time>
      </trkpt>
      <trkpt lat="44.77845" lon="2.54271">
        <ele>607</ele>
        <time>2024-07-17T18:34:44Z</time>
      </trkpt>
      <trkpt lat="44.77839" lon="2.54263">
        <ele>608</ele>
        <time>2024-07-17T18:34:45Z</time>
      </trkpt>
      <trkpt lat="44.77835" lon="2.54257">
        <ele>608</ele>
        <time>2024-07-17T18:34:46Z</time>
      </trkpt>
      <trkpt lat="44.77832" lon="2.54251">
        <ele>608</ele>
        <time>2024-07-17T18:34:47Z</time>
      </trkpt>
      <trkpt lat="44.77829" lon="2.54243">
        <ele>609</ele>
        <time>2024-07-17T18:34:48Z</time>
      </trkpt>
      <trkpt lat="44.77826" lon="2.54233">
        <ele>609</ele>
        <time>2024-07-17T18:34:49Z</time>
      </trkpt>
      <trkpt lat="44.77824" lon="2.54219">
        <ele>611</ele>
        <time>2024-07-17T18:34:50Z</time>
      </trkpt>
      <trkpt lat="44.77821" lon="2.54206">
        <ele>611</ele>
        <time>2024-07-17T18:34:51Z</time>
      </trkpt>
      <trkpt lat="44.77818" lon="2.54194">
        <ele>612</ele>
        <time>2024-07-17T18:34:52Z</time>
      </trkpt>
      <trkpt lat="44.77818" lon="2.54181">
        <ele>611</ele>
        <time>2024-07-17T18:34:53Z</time>
      </trkpt>
      <trkpt lat="44.77817" lon="2.54168">
        <ele>611</ele>
        <time>2024-07-17T18:34:54Z</time>
      </trkpt>
      <trkpt lat="44.77816" lon="2.54155">
        <ele>610</ele>
        <time>2024-07-17T18:34:55Z</time>
      </trkpt>
      <trkpt lat="44.77816" lon="2.54142">
        <ele>610</ele>
        <time>2024-07-17T18:34:56Z</time>
      </trkpt>
      <trkpt lat="44.77816" lon="2.54129">
        <ele>610</ele>
        <time>2024-07-17T18:34:57Z</time>
      </trkpt>
      <trkpt lat="44.77817" lon="2.54115">
        <ele>610</ele>
        <time>2024-07-17T18:34:58Z</time>
      </trkpt>
      <trkpt lat="44.77817" lon="2.54102">
        <ele>611</ele>
        <time>2024-07-17T18:34:59Z</time>
      </trkpt>
      <trkpt lat="44.77817" lon="2.5409">
        <ele>610</ele>
        <time>2024-07-17T18:35:00Z</time>
      </trkpt>
      <trkpt lat="44.77817" lon="2.5408">
        <ele>609</ele>
        <time>2024-07-17T18:35:02Z</time>
      </trkpt>
      <trkpt lat="44.77815" lon="2.54071">
        <ele>609</ele>
        <time>2024-07-17T18:35:03Z</time>
      </trkpt>
      <trkpt lat="44.77811" lon="2.54062">
        <ele>608</ele>
        <time>2024-07-17T18:35:04Z</time>
      </trkpt>
      <trkpt lat="44.77808" lon="2.54053">
        <ele>608</ele>
        <time>2024-07-17T18:35:05Z</time>
      </trkpt>
      <trkpt lat="44.77805" lon="2.54045">
        <ele>607</ele>
        <time>2024-07-17T18:35:06Z</time>
      </trkpt>
      <trkpt lat="44.77804" lon="2.54036">
        <ele>606</ele>
        <time>2024-07-17T18:35:07Z</time>
      </trkpt>
      <trkpt lat="44.77803" lon="2.54028">
        <ele>605</ele>
        <time>2024-07-17T18:35:08Z</time>
      </trkpt>
      <trkpt lat="44.77805" lon="2.54019">
        <ele>605</ele>
        <time>2024-07-17T18:35:09Z</time>
      </trkpt>
      <trkpt lat="44.77807" lon="2.54007">
        <ele>604</ele>
        <time>2024-07-17T18:35:10Z</time>
      </trkpt>
      <trkpt lat="44.77811" lon="2.53996">
        <ele>605</ele>
        <time>2024-07-17T18:35:11Z</time>
      </trkpt>
      <trkpt lat="44.77814" lon="2.53985">
        <ele>604</ele>
        <time>2024-07-17T18:35:12Z</time>
      </trkpt>
      <trkpt lat="44.77818" lon="2.53974">
        <ele>604</ele>
        <time>2024-07-17T18:35:13Z</time>
      </trkpt>
      <trkpt lat="44.77821" lon="2.53962">
        <ele>603</ele>
        <time>2024-07-17T18:35:14Z</time>
      </trkpt>
      <trkpt lat="44.77823" lon="2.53951">
        <ele>603</ele>
        <time>2024-07-17T18:35:15Z</time>
      </trkpt>
      <trkpt lat="44.77824" lon="2.53939">
        <ele>603</ele>
        <time>2024-07-17T18:35:16Z</time>
      </trkpt>
      <trkpt lat="44.77824" lon="2.53927">
        <ele>603</ele>
        <time>2024-07-17T18:35:17Z</time>
      </trkpt>
      <trkpt lat="44.77823" lon="2.53912">
        <ele>602</ele>
        <time>2024-07-17T18:35:18Z</time>
      </trkpt>
      <trkpt lat="44.77822" lon="2.53898">
        <ele>602</ele>
        <time>2024-07-17T18:35:19Z</time>
      </trkpt>
      <trkpt lat="44.77821" lon="2.53883">
        <ele>602</ele>
        <time>2024-07-17T18:35:20Z</time>
      </trkpt>
      <trkpt lat="44.77819" lon="2.53869">
        <ele>601</ele>
        <time>2024-07-17T18:35:21Z</time>
      </trkpt>
      <trkpt lat="44.77817" lon="2.53856">
        <ele>599</ele>
        <time>2024-07-17T18:35:22Z</time>
      </trkpt>
      <trkpt lat="44.77816" lon="2.53843">
        <ele>598</ele>
        <time>2024-07-17T18:35:23Z</time>
      </trkpt>
      <trkpt lat="44.77815" lon="2.5383">
        <ele>598</ele>
        <time>2024-07-17T18:35:24Z</time>
      </trkpt>
      <trkpt lat="44.77812" lon="2.53817">
        <ele>597</ele>
        <time>2024-07-17T18:35:25Z</time>
      </trkpt>
      <trkpt lat="44.7781" lon="2.53804">
        <ele>597</ele>
        <time>2024-07-17T18:35:26Z</time>
      </trkpt>
      <trkpt lat="44.77807" lon="2.53792">
        <ele>596</ele>
        <time>2024-07-17T18:35:27Z</time>
      </trkpt>
      <trkpt lat="44.77803" lon="2.53779">
        <ele>597</ele>
        <time>2024-07-17T18:35:28Z</time>
      </trkpt>
      <trkpt lat="44.77799" lon="2.53766">
        <ele>598</ele>
        <time>2024-07-17T18:35:29Z</time>
      </trkpt>
      <trkpt lat="44.77794" lon="2.53755">
        <ele>597</ele>
        <time>2024-07-17T18:35:30Z</time>
      </trkpt>
      <trkpt lat="44.7779" lon="2.53745">
        <ele>597</ele>
        <time>2024-07-17T18:35:31Z</time>
      </trkpt>
      <trkpt lat="44.77786" lon="2.53737">
        <ele>597</ele>
        <time>2024-07-17T18:35:32Z</time>
      </trkpt>
      <trkpt lat="44.77783" lon="2.53728">
        <ele>597</ele>
        <time>2024-07-17T18:35:33Z</time>
      </trkpt>
      <trkpt lat="44.77782" lon="2.53719">
        <ele>597</ele>
        <time>2024-07-17T18:35:34Z</time>
      </trkpt>
      <trkpt lat="44.77782" lon="2.53709">
        <ele>598</ele>
        <time>2024-07-17T18:35:35Z</time>
      </trkpt>
      <trkpt lat="44.77783" lon="2.537">
        <ele>599</ele>
        <time>2024-07-17T18:35:36Z</time>
      </trkpt>
      <trkpt lat="44.77785" lon="2.5369">
        <ele>600</ele>
        <time>2024-07-17T18:35:37Z</time>
      </trkpt>
      <trkpt lat="44.77787" lon="2.53679">
        <ele>599</ele>
        <time>2024-07-17T18:35:38Z</time>
      </trkpt>
      <trkpt lat="44.77789" lon="2.53672">
        <ele>600</ele>
        <time>2024-07-17T18:35:39Z</time>
      </trkpt>
      <trkpt lat="44.77792" lon="2.53664">
        <ele>600</ele>
        <time>2024-07-17T18:35:40Z</time>
      </trkpt>
      <trkpt lat="44.77794" lon="2.53657">
        <ele>601</ele>
        <time>2024-07-17T18:35:41Z</time>
      </trkpt>
      <trkpt lat="44.77798" lon="2.5365">
        <ele>601</ele>
        <time>2024-07-17T18:35:42Z</time>
      </trkpt>
      <trkpt lat="44.77802" lon="2.53642">
        <ele>602</ele>
        <time>2024-07-17T18:35:43Z</time>
      </trkpt>
      <trkpt lat="44.77808" lon="2.53635">
        <ele>601</ele>
        <time>2024-07-17T18:35:44Z</time>
      </trkpt>
      <trkpt lat="44.77815" lon="2.53627">
        <ele>602</ele>
        <time>2024-07-17T18:35:45Z</time>
      </trkpt>
      <trkpt lat="44.77823" lon="2.53619">
        <ele>601</ele>
        <time>2024-07-17T18:35:46Z</time>
      </trkpt>
      <trkpt lat="44.77831" lon="2.53611">
        <ele>601</ele>
        <time>2024-07-17T18:35:47Z</time>
      </trkpt>
      <trkpt lat="44.77839" lon="2.53603">
        <ele>601</ele>
        <time>2024-07-17T18:35:48Z</time>
      </trkpt>
      <trkpt lat="44.77847" lon="2.53594">
        <ele>601</ele>
        <time>2024-07-17T18:35:49Z</time>
      </trkpt>
      <trkpt lat="44.77854" lon="2.53584">
        <ele>600</ele>
        <time>2024-07-17T18:35:50Z</time>
      </trkpt>
      <trkpt lat="44.77861" lon="2.53572">
        <ele>600</ele>
        <time>2024-07-17T18:35:51Z</time>
      </trkpt>
      <trkpt lat="44.77868" lon="2.5356">
        <ele>600</ele>
        <time>2024-07-17T18:35:52Z</time>
      </trkpt>
      <trkpt lat="44.77876" lon="2.53549">
        <ele>601</ele>
        <time>2024-07-17T18:35:53Z</time>
      </trkpt>
      <trkpt lat="44.77883" lon="2.53538">
        <ele>600</ele>
        <time>2024-07-17T18:35:54Z</time>
      </trkpt>
      <trkpt lat="44.77889" lon="2.53528">
        <ele>599</ele>
        <time>2024-07-17T18:35:55Z</time>
      </trkpt>
      <trkpt lat="44.77895" lon="2.53517">
        <ele>599</ele>
        <time>2024-07-17T18:35:56Z</time>
      </trkpt>
      <trkpt lat="44.779" lon="2.53507">
        <ele>599</ele>
        <time>2024-07-17T18:35:57Z</time>
      </trkpt>
      <trkpt lat="44.77904" lon="2.53496">
        <ele>599</ele>
        <time>2024-07-17T18:35:58Z</time>
      </trkpt>
      <trkpt lat="44.77907" lon="2.53486">
        <ele>599</ele>
        <time>2024-07-17T18:35:59Z</time>
      </trkpt>
      <trkpt lat="44.77909" lon="2.53476">
        <ele>598</ele>
        <time>2024-07-17T18:36:00Z</time>
      </trkpt>
      <trkpt lat="44.7791" lon="2.53466">
        <ele>598</ele>
        <time>2024-07-17T18:36:01Z</time>
      </trkpt>
      <trkpt lat="44.77909" lon="2.53455">
        <ele>598</ele>
        <time>2024-07-17T18:36:02Z</time>
      </trkpt>
      <trkpt lat="44.77906" lon="2.53443">
        <ele>599</ele>
        <time>2024-07-17T18:36:03Z</time>
      </trkpt>
      <trkpt lat="44.77902" lon="2.53432">
        <ele>600</ele>
        <time>2024-07-17T18:36:04Z</time>
      </trkpt>
      <trkpt lat="44.77898" lon="2.53421">
        <ele>600</ele>
        <time>2024-07-17T18:36:05Z</time>
      </trkpt>
      <trkpt lat="44.77893" lon="2.53409">
        <ele>601</ele>
        <time>2024-07-17T18:36:06Z</time>
      </trkpt>
      <trkpt lat="44.77889" lon="2.53397">
        <ele>602</ele>
        <time>2024-07-17T18:36:07Z</time>
      </trkpt>
      <trkpt lat="44.77884" lon="2.53386">
        <ele>603</ele>
        <time>2024-07-17T18:36:08Z</time>
      </trkpt>
      <trkpt lat="44.77878" lon="2.53375">
        <ele>604</ele>
        <time>2024-07-17T18:36:09Z</time>
      </trkpt>
      <trkpt lat="44.77872" lon="2.53366">
        <ele>605</ele>
        <time>2024-07-17T18:36:10Z</time>
      </trkpt>
      <trkpt lat="44.77866" lon="2.53358">
        <ele>606</ele>
        <time>2024-07-17T18:36:11Z</time>
      </trkpt>
      <trkpt lat="44.7786" lon="2.53352">
        <ele>606</ele>
        <time>2024-07-17T18:36:12Z</time>
      </trkpt>
      <trkpt lat="44.77853" lon="2.53347">
        <ele>607</ele>
        <time>2024-07-17T18:36:13Z</time>
      </trkpt>
      <trkpt lat="44.77848" lon="2.53342">
        <ele>607</ele>
        <time>2024-07-17T18:36:14Z</time>
      </trkpt>
      <trkpt lat="44.77843" lon="2.53338">
        <ele>607</ele>
        <time>2024-07-17T18:36:15Z</time>
      </trkpt>
      <trkpt lat="44.7784" lon="2.53335">
        <ele>607</ele>
        <time>2024-07-17T18:36:16Z</time>
      </trkpt>
      <trkpt lat="44.77837" lon="2.53332">
        <ele>608</ele>
        <time>2024-07-17T18:36:18Z</time>
      </trkpt>
      <trkpt lat="44.77832" lon="2.53334">
        <ele>607</ele>
        <time>2024-07-17T18:36:20Z</time>
      </trkpt>
      <trkpt lat="44.77828" lon="2.53336">
        <ele>609</ele>
        <time>2024-07-17T18:36:27Z</time>
      </trkpt>
      <trkpt lat="44.77825" lon="2.53334">
        <ele>610</ele>
        <time>2024-07-17T18:36:28Z</time>
      </trkpt>
      <trkpt lat="44.77824" lon="2.53339">
        <ele>610</ele>
        <time>2024-07-17T18:36:37Z</time>
      </trkpt>
      <trkpt lat="44.77822" lon="2.53341">
        <ele>609</ele>
        <time>2024-07-17T18:36:46Z</time>
      </trkpt>
      <trkpt lat="44.77826" lon="2.53341">
        <ele>610</ele>
        <time>2024-07-17T19:36:16Z</time>
      </trkpt>
      <trkpt lat="44.77825" lon="2.53343">
        <ele>608</ele>
        <time>2024-07-17T19:36:17Z</time>
      </trkpt>
      <trkpt lat="44.77825" lon="2.53341">
        <ele>608</ele>
        <time>2024-07-17T19:36:18Z</time>
      </trkpt>
      <trkpt lat="44.77826" lon="2.53343">
        <ele>614</ele>
        <time>2024-07-17T19:36:20Z</time>
      </trkpt>
      <trkpt lat="44.77825" lon="2.53346">
        <ele>613</ele>
        <time>2024-07-17T19:36:27Z</time>
      </trkpt>
      <trkpt lat="44.77823" lon="2.53349">
        <ele>616</ele>
        <time>2024-07-17T19:36:32Z</time>
      </trkpt>
      <trkpt lat="44.77823" lon="2.53347">
        <ele>612</ele>
        <time>2024-07-17T19:36:54Z</time>
      </trkpt>
      <trkpt lat="44.77821" lon="2.53345">
        <ele>611</ele>
        <time>2024-07-17T19:37:12Z</time>
      </trkpt>
      <trkpt lat="44.77819" lon="2.53344">
        <ele>613</ele>
        <time>2024-07-17T19:37:15Z</time>
      </trkpt>
      <trkpt lat="44.77819" lon="2.53338">
        <ele>613</ele>
        <time>2024-07-17T19:37:17Z</time>
      </trkpt>
      <trkpt lat="44.77822" lon="2.53334">
        <ele>613</ele>
        <time>2024-07-17T19:37:19Z</time>
      </trkpt>
      <trkpt lat="44.77825" lon="2.53334">
        <ele>612</ele>
        <time>2024-07-17T19:37:20Z</time>
      </trkpt>
      <trkpt lat="44.77828" lon="2.53334">
        <ele>612</ele>
        <time>2024-07-17T19:37:20Z</time>
      </trkpt>
      <trkpt lat="44.77832" lon="2.53333">
        <ele>612</ele>
        <time>2024-07-17T19:37:21Z</time>
      </trkpt>
      <trkpt lat="44.77835" lon="2.53331">
        <ele>612</ele>
        <time>2024-07-17T19:37:22Z</time>
      </trkpt>
      <trkpt lat="44.77838" lon="2.53327">
        <ele>613</ele>
        <time>2024-07-17T19:37:23Z</time>
      </trkpt>
      <trkpt lat="44.77839" lon="2.53319">
        <ele>613</ele>
        <time>2024-07-17T19:37:24Z</time>
      </trkpt>
      <trkpt lat="44.77839" lon="2.53311">
        <ele>613</ele>
        <time>2024-07-17T19:37:25Z</time>
      </trkpt>
      <trkpt lat="44.77839" lon="2.53304">
        <ele>613</ele>
        <time>2024-07-17T19:37:26Z</time>
      </trkpt>
      <trkpt lat="44.77842" lon="2.53299">
        <ele>613</ele>
        <time>2024-07-17T19:37:27Z</time>
      </trkpt>
      <trkpt lat="44.77846" lon="2.53294">
        <ele>612</ele>
        <time>2024-07-17T19:37:28Z</time>
      </trkpt>
      <trkpt lat="44.7785" lon="2.53289">
        <ele>612</ele>
        <time>2024-07-17T19:37:29Z</time>
      </trkpt>
      <trkpt lat="44.77857" lon="2.53285">
        <ele>613</ele>
        <time>2024-07-17T19:37:30Z</time>
      </trkpt>
      <trkpt lat="44.77866" lon="2.53283">
        <ele>613</ele>
        <time>2024-07-17T19:37:31Z</time>
      </trkpt>
      <trkpt lat="44.77874" lon="2.53277">
        <ele>612</ele>
        <time>2024-07-17T19:37:32Z</time>
      </trkpt>
      <trkpt lat="44.77882" lon="2.53271">
        <ele>612</ele>
        <time>2024-07-17T19:37:33Z</time>
      </trkpt>
      <trkpt lat="44.7789" lon="2.53263">
        <ele>612</ele>
        <time>2024-07-17T19:37:34Z</time>
      </trkpt>
      <trkpt lat="44.77896" lon="2.53253">
        <ele>612</ele>
        <time>2024-07-17T19:37:35Z</time>
      </trkpt>
      <trkpt lat="44.77902" lon="2.53243">
        <ele>612</ele>
        <time>2024-07-17T19:37:36Z</time>
      </trkpt>
      <trkpt lat="44.77904" lon="2.5323">
        <ele>613</ele>
        <time>2024-07-17T19:37:37Z</time>
      </trkpt>
      <trkpt lat="44.77903" lon="2.53213">
        <ele>615</ele>
        <time>2024-07-17T19:37:38Z</time>
      </trkpt>
      <trkpt lat="44.77902" lon="2.53195">
        <ele>616</ele>
        <time>2024-07-17T19:37:39Z</time>
      </trkpt>
      <trkpt lat="44.77903" lon="2.53177">
        <ele>616</ele>
        <time>2024-07-17T19:37:40Z</time>
      </trkpt>
      <trkpt lat="44.77905" lon="2.5316">
        <ele>617</ele>
        <time>2024-07-17T19:37:41Z</time>
      </trkpt>
      <trkpt lat="44.77907" lon="2.53142">
        <ele>616</ele>
        <time>2024-07-17T19:37:42Z</time>
      </trkpt>
      <trkpt lat="44.77908" lon="2.53123">
        <ele>618</ele>
        <time>2024-07-17T19:37:43Z</time>
      </trkpt>
      <trkpt lat="44.7791" lon="2.53105">
        <ele>618</ele>
        <time>2024-07-17T19:37:44Z</time>
      </trkpt>
      <trkpt lat="44.77911" lon="2.53087">
        <ele>618</ele>
        <time>2024-07-17T19:37:45Z</time>
      </trkpt>
      <trkpt lat="44.77913" lon="2.5307">
        <ele>618</ele>
        <time>2024-07-17T19:37:46Z</time>
      </trkpt>
      <trkpt lat="44.77914" lon="2.53059">
        <ele>619</ele>
        <time>2024-07-17T19:37:47Z</time>
      </trkpt>
      <trkpt lat="44.77915" lon="2.53048">
        <ele>620</ele>
        <time>2024-07-17T19:37:48Z</time>
      </trkpt>
      <trkpt lat="44.77917" lon="2.53037">
        <ele>620</ele>
        <time>2024-07-17T19:37:49Z</time>
      </trkpt>
      <trkpt lat="44.77919" lon="2.53024">
        <ele>620</ele>
        <time>2024-07-17T19:37:50Z</time>
      </trkpt>
      <trkpt lat="44.77923" lon="2.53007">
        <ele>621</ele>
        <time>2024-07-17T19:37:51Z</time>
      </trkpt>
      <trkpt lat="44.77926" lon="2.52989">
        <ele>621</ele>
        <time>2024-07-17T19:37:52Z</time>
      </trkpt>
      <trkpt lat="44.7793" lon="2.5297">
        <ele>621</ele>
        <time>2024-07-17T19:37:53Z</time>
      </trkpt>
      <trkpt lat="44.77934" lon="2.52952">
        <ele>620</ele>
        <time>2024-07-17T19:37:54Z</time>
      </trkpt>
      <trkpt lat="44.77937" lon="2.52935">
        <ele>620</ele>
        <time>2024-07-17T19:37:55Z</time>
      </trkpt>
      <trkpt lat="44.77941" lon="2.52919">
        <ele>620</ele>
        <time>2024-07-17T19:37:56Z</time>
      </trkpt>
      <trkpt lat="44.77946" lon="2.52904">
        <ele>620</ele>
        <time>2024-07-17T19:37:57Z</time>
      </trkpt>
      <trkpt lat="44.77952" lon="2.52888">
        <ele>621</ele>
        <time>2024-07-17T19:37:58Z</time>
      </trkpt>
      <trkpt lat="44.77959" lon="2.52872">
        <ele>623</ele>
        <time>2024-07-17T19:37:59Z</time>
      </trkpt>
      <trkpt lat="44.77968" lon="2.52857">
        <ele>623</ele>
        <time>2024-07-17T19:38:00Z</time>
      </trkpt>
      <trkpt lat="44.77977" lon="2.52842">
        <ele>623</ele>
        <time>2024-07-17T19:38:01Z</time>
      </trkpt>
      <trkpt lat="44.77986" lon="2.52828">
        <ele>623</ele>
        <time>2024-07-17T19:38:02Z</time>
      </trkpt>
      <trkpt lat="44.77995" lon="2.52816">
        <ele>622</ele>
        <time>2024-07-17T19:38:03Z</time>
      </trkpt>
      <trkpt lat="44.78004" lon="2.52806">
        <ele>620</ele>
        <time>2024-07-17T19:38:04Z</time>
      </trkpt>
      <trkpt lat="44.78014" lon="2.52795">
        <ele>622</ele>
        <time>2024-07-17T19:38:05Z</time>
      </trkpt>
      <trkpt lat="44.78025" lon="2.52784">
        <ele>621</ele>
        <time>2024-07-17T19:38:06Z</time>
      </trkpt>
      <trkpt lat="44.78036" lon="2.52773">
        <ele>620</ele>
        <time>2024-07-17T19:38:07Z</time>
      </trkpt>
      <trkpt lat="44.78047" lon="2.52762">
        <ele>619</ele>
        <time>2024-07-17T19:38:08Z</time>
      </trkpt>
      <trkpt lat="44.78058" lon="2.52753">
        <ele>618</ele>
        <time>2024-07-17T19:38:09Z</time>
      </trkpt>
      <trkpt lat="44.7807" lon="2.52746">
        <ele>617</ele>
        <time>2024-07-17T19:38:10Z</time>
      </trkpt>
      <trkpt lat="44.78082" lon="2.5274">
        <ele>618</ele>
        <time>2024-07-17T19:38:11Z</time>
      </trkpt>
      <trkpt lat="44.78094" lon="2.52737">
        <ele>620</ele>
        <time>2024-07-17T19:38:12Z</time>
      </trkpt>
      <trkpt lat="44.78106" lon="2.52736">
        <ele>618</ele>
        <time>2024-07-17T19:38:13Z</time>
      </trkpt>
      <trkpt lat="44.78118" lon="2.52735">
        <ele>617</ele>
        <time>2024-07-17T19:38:14Z</time>
      </trkpt>
      <trkpt lat="44.7813" lon="2.52735">
        <ele>616</ele>
        <time>2024-07-17T19:38:15Z</time>
      </trkpt>
      <trkpt lat="44.78141" lon="2.52734">
        <ele>615</ele>
        <time>2024-07-17T19:38:16Z</time>
      </trkpt>
      <trkpt lat="44.78151" lon="2.52732">
        <ele>615</ele>
        <time>2024-07-17T19:38:17Z</time>
      </trkpt>
      <trkpt lat="44.78159" lon="2.52728">
        <ele>614</ele>
        <time>2024-07-17T19:38:18Z</time>
      </trkpt>
      <trkpt lat="44.78165" lon="2.52722">
        <ele>616</ele>
        <time>2024-07-17T19:38:19Z</time>
      </trkpt>
      <trkpt lat="44.78171" lon="2.52714">
        <ele>616</ele>
        <time>2024-07-17T19:38:20Z</time>
      </trkpt>
      <trkpt lat="44.78175" lon="2.52696">
        <ele>617</ele>
        <time>2024-07-17T19:38:21Z</time>
      </trkpt>
      <trkpt lat="44.78177" lon="2.52682">
        <ele>618</ele>
        <time>2024-07-17T19:38:22Z</time>
      </trkpt>
      <trkpt lat="44.7818" lon="2.52666">
        <ele>619</ele>
        <time>2024-07-17T19:38:23Z</time>
      </trkpt>
      <trkpt lat="44.78184" lon="2.52649">
        <ele>621</ele>
        <time>2024-07-17T19:38:24Z</time>
      </trkpt>
      <trkpt lat="44.78187" lon="2.52632">
        <ele>620</ele>
        <time>2024-07-17T19:38:25Z</time>
      </trkpt>
      <trkpt lat="44.78189" lon="2.52614">
        <ele>622</ele>
        <time>2024-07-17T19:38:26Z</time>
      </trkpt>
      <trkpt lat="44.78188" lon="2.52595">
        <ele>622</ele>
        <time>2024-07-17T19:38:28Z</time>
      </trkpt>
      <trkpt lat="44.78189" lon="2.52575">
        <ele>624</ele>
        <time>2024-07-17T19:38:29Z</time>
      </trkpt>
      <trkpt lat="44.7819" lon="2.52556">
        <ele>624</ele>
        <time>2024-07-17T19:38:30Z</time>
      </trkpt>
      <trkpt lat="44.78191" lon="2.52535">
        <ele>625</ele>
        <time>2024-07-17T19:38:31Z</time>
      </trkpt>
      <trkpt lat="44.78189" lon="2.52516">
        <ele>627</ele>
        <time>2024-07-17T19:38:32Z</time>
      </trkpt>
      <trkpt lat="44.78187" lon="2.52497">
        <ele>627</ele>
        <time>2024-07-17T19:38:33Z</time>
      </trkpt>
      <trkpt lat="44.78185" lon="2.52477">
        <ele>628</ele>
        <time>2024-07-17T19:38:34Z</time>
      </trkpt>
      <trkpt lat="44.78183" lon="2.52457">
        <ele>629</ele>
        <time>2024-07-17T19:38:35Z</time>
      </trkpt>
      <trkpt lat="44.78182" lon="2.52437">
        <ele>630</ele>
        <time>2024-07-17T19:38:36Z</time>
      </trkpt>
      <trkpt lat="44.78182" lon="2.52419">
        <ele>630</ele>
        <time>2024-07-17T19:38:37Z</time>
      </trkpt>
      <trkpt lat="44.7818" lon="2.52398">
        <ele>632</ele>
        <time>2024-07-17T19:38:38Z</time>
      </trkpt>
      <trkpt lat="44.78176" lon="2.52379">
        <ele>634</ele>
        <time>2024-07-17T19:38:39Z</time>
      </trkpt>
      <trkpt lat="44.78172" lon="2.52359">
        <ele>634</ele>
        <time>2024-07-17T19:38:40Z</time>
      </trkpt>
      <trkpt lat="44.78169" lon="2.5234">
        <ele>635</ele>
        <time>2024-07-17T19:38:41Z</time>
      </trkpt>
      <trkpt lat="44.78168" lon="2.52322">
        <ele>636</ele>
        <time>2024-07-17T19:38:42Z</time>
      </trkpt>
      <trkpt lat="44.78166" lon="2.52304">
        <ele>638</ele>
        <time>2024-07-17T19:38:43Z</time>
      </trkpt>
      <trkpt lat="44.78163" lon="2.52285">
        <ele>638</ele>
        <time>2024-07-17T19:38:44Z</time>
      </trkpt>
      <trkpt lat="44.78159" lon="2.52267">
        <ele>639</ele>
        <time>2024-07-17T19:38:45Z</time>
      </trkpt>
      <trkpt lat="44.78157" lon="2.52251">
        <ele>637</ele>
        <time>2024-07-17T19:38:46Z</time>
      </trkpt>
      <trkpt lat="44.78157" lon="2.52236">
        <ele>636</ele>
        <time>2024-07-17T19:38:47Z</time>
      </trkpt>
      <trkpt lat="44.78157" lon="2.52222">
        <ele>637</ele>
        <time>2024-07-17T19:38:48Z</time>
      </trkpt>
      <trkpt lat="44.78159" lon="2.52208">
        <ele>638</ele>
        <time>2024-07-17T19:38:49Z</time>
      </trkpt>
      <trkpt lat="44.78163" lon="2.52194">
        <ele>638</ele>
        <time>2024-07-17T19:38:50Z</time>
      </trkpt>
      <trkpt lat="44.78169" lon="2.52179">
        <ele>637</ele>
        <time>2024-07-17T19:38:51Z</time>
      </trkpt>
      <trkpt lat="44.78175" lon="2.52163">
        <ele>639</ele>
        <time>2024-07-17T19:38:52Z</time>
      </trkpt>
      <trkpt lat="44.78182" lon="2.52147">
        <ele>636</ele>
        <time>2024-07-17T19:38:53Z</time>
      </trkpt>
      <trkpt lat="44.78189" lon="2.52131">
        <ele>634</ele>
        <time>2024-07-17T19:38:54Z</time>
      </trkpt>
      <trkpt lat="44.78196" lon="2.52115">
        <ele>634</ele>
        <time>2024-07-17T19:38:55Z</time>
      </trkpt>
      <trkpt lat="44.78203" lon="2.521">
        <ele>632</ele>
        <time>2024-07-17T19:38:56Z</time>
      </trkpt>
      <trkpt lat="44.78209" lon="2.52084">
        <ele>631</ele>
        <time>2024-07-17T19:38:57Z</time>
      </trkpt>
      <trkpt lat="44.78216" lon="2.52069">
        <ele>632</ele>
        <time>2024-07-17T19:38:58Z</time>
      </trkpt>
      <trkpt lat="44.78226" lon="2.52058">
        <ele>634</ele>
        <time>2024-07-17T19:38:59Z</time>
      </trkpt>
      <trkpt lat="44.78237" lon="2.52047">
        <ele>635</ele>
        <time>2024-07-17T19:39:00Z</time>
      </trkpt>
      <trkpt lat="44.78249" lon="2.52035">
        <ele>637</ele>
        <time>2024-07-17T19:39:01Z</time>
      </trkpt>
      <trkpt lat="44.78261" lon="2.52023">
        <ele>637</ele>
        <time>2024-07-17T19:39:02Z</time>
      </trkpt>
      <trkpt lat="44.78273" lon="2.5201">
        <ele>638</ele>
        <time>2024-07-17T19:39:03Z</time>
      </trkpt>
      <trkpt lat="44.78284" lon="2.51995">
        <ele>639</ele>
        <time>2024-07-17T19:39:04Z</time>
      </trkpt>
      <trkpt lat="44.78293" lon="2.5198">
        <ele>638</ele>
        <time>2024-07-17T19:39:05Z</time>
      </trkpt>
      <trkpt lat="44.78301" lon="2.51967">
        <ele>639</ele>
        <time>2024-07-17T19:39:06Z</time>
      </trkpt>
      <trkpt lat="44.78309" lon="2.51953">
        <ele>638</ele>
        <time>2024-07-17T19:39:07Z</time>
      </trkpt>
      <trkpt lat="44.78318" lon="2.51939">
        <ele>638</ele>
        <time>2024-07-17T19:39:08Z</time>
      </trkpt>
      <trkpt lat="44.78322" lon="2.51919">
        <ele>640</ele>
        <time>2024-07-17T19:39:09Z</time>
      </trkpt>
      <trkpt lat="44.78326" lon="2.51898">
        <ele>641</ele>
        <time>2024-07-17T19:39:10Z</time>
      </trkpt>
      <trkpt lat="44.78327" lon="2.51876">
        <ele>642</ele>
        <time>2024-07-17T19:39:11Z</time>
      </trkpt>
      <trkpt lat="44.78329" lon="2.51854">
        <ele>642</ele>
        <time>2024-07-17T19:39:12Z</time>
      </trkpt>
      <trkpt lat="44.78331" lon="2.51834">
        <ele>642</ele>
        <time>2024-07-17T19:39:13Z</time>
      </trkpt>
      <trkpt lat="44.78333" lon="2.51815">
        <ele>641</ele>
        <time>2024-07-17T19:39:14Z</time>
      </trkpt>
      <trkpt lat="44.78336" lon="2.51799">
        <ele>641</ele>
        <time>2024-07-17T19:39:15Z</time>
      </trkpt>
      <trkpt lat="44.78341" lon="2.51786">
        <ele>640</ele>
        <time>2024-07-17T19:39:16Z</time>
      </trkpt>
      <trkpt lat="44.78346" lon="2.51774">
        <ele>640</ele>
        <time>2024-07-17T19:39:17Z</time>
      </trkpt>
      <trkpt lat="44.78353" lon="2.51766">
        <ele>640</ele>
        <time>2024-07-17T19:39:18Z</time>
      </trkpt>
      <trkpt lat="44.78362" lon="2.5176">
        <ele>639</ele>
        <time>2024-07-17T19:39:19Z</time>
      </trkpt>
      <trkpt lat="44.78372" lon="2.51756">
        <ele>638</ele>
        <time>2024-07-17T19:39:20Z</time>
      </trkpt>
      <trkpt lat="44.78385" lon="2.51752">
        <ele>639</ele>
        <time>2024-07-17T19:39:21Z</time>
      </trkpt>
      <trkpt lat="44.78399" lon="2.51749">
        <ele>638</ele>
        <time>2024-07-17T19:39:22Z</time>
      </trkpt>
      <trkpt lat="44.78412" lon="2.51746">
        <ele>638</ele>
        <time>2024-07-17T19:39:23Z</time>
      </trkpt>
      <trkpt lat="44.78424" lon="2.51743">
        <ele>635</ele>
        <time>2024-07-17T19:39:24Z</time>
      </trkpt>
      <trkpt lat="44.78437" lon="2.51738">
        <ele>633</ele>
        <time>2024-07-17T19:39:25Z</time>
      </trkpt>
      <trkpt lat="44.78449" lon="2.51729">
        <ele>633</ele>
        <time>2024-07-17T19:39:26Z</time>
      </trkpt>
      <trkpt lat="44.7846" lon="2.51717">
        <ele>634</ele>
        <time>2024-07-17T19:39:27Z</time>
      </trkpt>
      <trkpt lat="44.78469" lon="2.51701">
        <ele>635</ele>
        <time>2024-07-17T19:39:28Z</time>
      </trkpt>
      <trkpt lat="44.78478" lon="2.51685">
        <ele>635</ele>
        <time>2024-07-17T19:39:29Z</time>
      </trkpt>
      <trkpt lat="44.78488" lon="2.51669">
        <ele>634</ele>
        <time>2024-07-17T19:39:30Z</time>
      </trkpt>
      <trkpt lat="44.78497" lon="2.51652">
        <ele>634</ele>
        <time>2024-07-17T19:39:31Z</time>
      </trkpt>
      <trkpt lat="44.78506" lon="2.51637">
        <ele>634</ele>
        <time>2024-07-17T19:39:32Z</time>
      </trkpt>
      <trkpt lat="44.78513" lon="2.51623">
        <ele>632</ele>
        <time>2024-07-17T19:39:33Z</time>
      </trkpt>
      <trkpt lat="44.78521" lon="2.51611">
        <ele>632</ele>
        <time>2024-07-17T19:39:33Z</time>
      </trkpt>
      <trkpt lat="44.7853" lon="2.516">
        <ele>633</ele>
        <time>2024-07-17T19:39:34Z</time>
      </trkpt>
      <trkpt lat="44.7854" lon="2.51592">
        <ele>633</ele>
        <time>2024-07-17T19:39:35Z</time>
      </trkpt>
      <trkpt lat="44.78551" lon="2.51585">
        <ele>633</ele>
        <time>2024-07-17T19:39:36Z</time>
      </trkpt>
      <trkpt lat="44.78563" lon="2.51578">
        <ele>632</ele>
        <time>2024-07-17T19:39:37Z</time>
      </trkpt>
      <trkpt lat="44.78575" lon="2.51572">
        <ele>632</ele>
        <time>2024-07-17T19:39:38Z</time>
      </trkpt>
      <trkpt lat="44.78586" lon="2.51566">
        <ele>630</ele>
        <time>2024-07-17T19:39:39Z</time>
      </trkpt>
      <trkpt lat="44.78595" lon="2.51562">
        <ele>629</ele>
        <time>2024-07-17T19:39:40Z</time>
      </trkpt>
      <trkpt lat="44.78606" lon="2.5156">
        <ele>629</ele>
        <time>2024-07-17T19:39:41Z</time>
      </trkpt>
      <trkpt lat="44.78616" lon="2.51562">
        <ele>626</ele>
        <time>2024-07-17T19:39:42Z</time>
      </trkpt>
      <trkpt lat="44.78626" lon="2.51566">
        <ele>626</ele>
        <time>2024-07-17T19:39:43Z</time>
      </trkpt>
      <trkpt lat="44.78637" lon="2.5157">
        <ele>626</ele>
        <time>2024-07-17T19:39:44Z</time>
      </trkpt>
      <trkpt lat="44.78649" lon="2.5157">
        <ele>626</ele>
        <time>2024-07-17T19:39:45Z</time>
      </trkpt>
      <trkpt lat="44.78661" lon="2.51569">
        <ele>627</ele>
        <time>2024-07-17T19:39:46Z</time>
      </trkpt>
      <trkpt lat="44.78672" lon="2.51557">
        <ele>627</ele>
        <time>2024-07-17T19:39:47Z</time>
      </trkpt>
      <trkpt lat="44.78683" lon="2.51548">
        <ele>626</ele>
        <time>2024-07-17T19:39:48Z</time>
      </trkpt>
      <trkpt lat="44.78692" lon="2.51539">
        <ele>626</ele>
        <time>2024-07-17T19:39:49Z</time>
      </trkpt>
      <trkpt lat="44.787" lon="2.5153">
        <ele>626</ele>
        <time>2024-07-17T19:39:50Z</time>
      </trkpt>
      <trkpt lat="44.78707" lon="2.51519">
        <ele>628</ele>
        <time>2024-07-17T19:39:51Z</time>
      </trkpt>
      <trkpt lat="44.78706" lon="2.51501">
        <ele>632</ele>
        <time>2024-07-17T19:39:52Z</time>
      </trkpt>
      <trkpt lat="44.78702" lon="2.51486">
        <ele>633</ele>
        <time>2024-07-17T19:39:53Z</time>
      </trkpt>
      <trkpt lat="44.78696" lon="2.5147">
        <ele>635</ele>
        <time>2024-07-17T19:39:54Z</time>
      </trkpt>
      <trkpt lat="44.78689" lon="2.51454">
        <ele>637</ele>
        <time>2024-07-17T19:39:55Z</time>
      </trkpt>
      <trkpt lat="44.78683" lon="2.51435">
        <ele>639</ele>
        <time>2024-07-17T19:39:56Z</time>
      </trkpt>
      <trkpt lat="44.78677" lon="2.51416">
        <ele>638</ele>
        <time>2024-07-17T19:39:57Z</time>
      </trkpt>
      <trkpt lat="44.78671" lon="2.51397">
        <ele>639</ele>
        <time>2024-07-17T19:39:58Z</time>
      </trkpt>
      <trkpt lat="44.78664" lon="2.51381">
        <ele>640</ele>
        <time>2024-07-17T19:39:59Z</time>
      </trkpt>
      <trkpt lat="44.78656" lon="2.51366">
        <ele>641</ele>
        <time>2024-07-17T19:40:00Z</time>
      </trkpt>
      <trkpt lat="44.78647" lon="2.51355">
        <ele>645</ele>
        <time>2024-07-17T19:40:01Z</time>
      </trkpt>
      <trkpt lat="44.78635" lon="2.51347">
        <ele>646</ele>
        <time>2024-07-17T19:40:02Z</time>
      </trkpt>
      <trkpt lat="44.78621" lon="2.51339">
        <ele>646</ele>
        <time>2024-07-17T19:40:03Z</time>
      </trkpt>
      <trkpt lat="44.7861" lon="2.51334">
        <ele>645</ele>
        <time>2024-07-17T19:40:04Z</time>
      </trkpt>
      <trkpt lat="44.78602" lon="2.51324">
        <ele>645</ele>
        <time>2024-07-17T19:40:05Z</time>
      </trkpt>
      <trkpt lat="44.78597" lon="2.51313">
        <ele>647</ele>
        <time>2024-07-17T19:40:06Z</time>
      </trkpt>
      <trkpt lat="44.78594" lon="2.51299">
        <ele>649</ele>
        <time>2024-07-17T19:40:07Z</time>
      </trkpt>
      <trkpt lat="44.78591" lon="2.51283">
        <ele>650</ele>
        <time>2024-07-17T19:40:08Z</time>
      </trkpt>
      <trkpt lat="44.78587" lon="2.51264">
        <ele>653</ele>
        <time>2024-07-17T19:40:09Z</time>
      </trkpt>
      <trkpt lat="44.78581" lon="2.51242">
        <ele>655</ele>
        <time>2024-07-17T19:40:10Z</time>
      </trkpt>
      <trkpt lat="44.78575" lon="2.51219">
        <ele>657</ele>
        <time>2024-07-17T19:40:11Z</time>
      </trkpt>
      <trkpt lat="44.78567" lon="2.51198">
        <ele>657</ele>
        <time>2024-07-17T19:40:12Z</time>
      </trkpt>
      <trkpt lat="44.78563" lon="2.51178">
        <ele>656</ele>
        <time>2024-07-17T19:40:13Z</time>
      </trkpt>
      <trkpt lat="44.78561" lon="2.51157">
        <ele>658</ele>
        <time>2024-07-17T19:40:14Z</time>
      </trkpt>
      <trkpt lat="44.7856" lon="2.51136">
        <ele>660</ele>
        <time>2024-07-17T19:40:15Z</time>
      </trkpt>
      <trkpt lat="44.78558" lon="2.51116">
        <ele>663</ele>
        <time>2024-07-17T19:40:16Z</time>
      </trkpt>
      <trkpt lat="44.78558" lon="2.51094">
        <ele>665</ele>
        <time>2024-07-17T19:40:17Z</time>
      </trkpt>
      <trkpt lat="44.78557" lon="2.51068">
        <ele>666</ele>
        <time>2024-07-17T19:40:18Z</time>
      </trkpt>
      <trkpt lat="44.78557" lon="2.51041">
        <ele>667</ele>
        <time>2024-07-17T19:40:19Z</time>
      </trkpt>
      <trkpt lat="44.78554" lon="2.51009">
        <ele>667</ele>
        <time>2024-07-17T19:40:20Z</time>
      </trkpt>
      <trkpt lat="44.78549" lon="2.50979">
        <ele>667</ele>
        <time>2024-07-17T19:40:21Z</time>
      </trkpt>
      <trkpt lat="44.78542" lon="2.5095">
        <ele>667</ele>
        <time>2024-07-17T19:40:22Z</time>
      </trkpt>
      <trkpt lat="44.78535" lon="2.50924">
        <ele>667</ele>
        <time>2024-07-17T19:40:23Z</time>
      </trkpt>
      <trkpt lat="44.78525" lon="2.50894">
        <ele>669</ele>
        <time>2024-07-17T19:40:24Z</time>
      </trkpt>
      <trkpt lat="44.78517" lon="2.50866">
        <ele>670</ele>
        <time>2024-07-17T19:40:25Z</time>
      </trkpt>
      <trkpt lat="44.78508" lon="2.5084">
        <ele>670</ele>
        <time>2024-07-17T19:40:26Z</time>
      </trkpt>
      <trkpt lat="44.78498" lon="2.50817">
        <ele>670</ele>
        <time>2024-07-17T19:40:27Z</time>
      </trkpt>
      <trkpt lat="44.78488" lon="2.50796">
        <ele>670</ele>
        <time>2024-07-17T19:40:28Z</time>
      </trkpt>
      <trkpt lat="44.78476" lon="2.50776">
        <ele>668</ele>
        <time>2024-07-17T19:40:29Z</time>
      </trkpt>
      <trkpt lat="44.78465" lon="2.50763">
        <ele>669</ele>
        <time>2024-07-17T19:40:30Z</time>
      </trkpt>
      <trkpt lat="44.78451" lon="2.50751">
        <ele>671</ele>
        <time>2024-07-17T19:40:31Z</time>
      </trkpt>
      <trkpt lat="44.78438" lon="2.5074">
        <ele>671</ele>
        <time>2024-07-17T19:40:32Z</time>
      </trkpt>
      <trkpt lat="44.78427" lon="2.5073">
        <ele>671</ele>
        <time>2024-07-17T19:40:34Z</time>
      </trkpt>
      <trkpt lat="44.78416" lon="2.50718">
        <ele>671</ele>
        <time>2024-07-17T19:40:35Z</time>
      </trkpt>
      <trkpt lat="44.78407" lon="2.50704">
        <ele>670</ele>
        <time>2024-07-17T19:40:36Z</time>
      </trkpt>
      <trkpt lat="44.78398" lon="2.50687">
        <ele>670</ele>
        <time>2024-07-17T19:40:37Z</time>
      </trkpt>
      <trkpt lat="44.78391" lon="2.50665">
        <ele>670</ele>
        <time>2024-07-17T19:40:38Z</time>
      </trkpt>
      <trkpt lat="44.78385" lon="2.50643">
        <ele>671</ele>
        <time>2024-07-17T19:40:39Z</time>
      </trkpt>
      <trkpt lat="44.78379" lon="2.50618">
        <ele>671</ele>
        <time>2024-07-17T19:40:40Z</time>
      </trkpt>
      <trkpt lat="44.78372" lon="2.50593">
        <ele>671</ele>
        <time>2024-07-17T19:40:41Z</time>
      </trkpt>
      <trkpt lat="44.78366" lon="2.50568">
        <ele>670</ele>
        <time>2024-07-17T19:40:42Z</time>
      </trkpt>
      <trkpt lat="44.78361" lon="2.50545">
        <ele>669</ele>
        <time>2024-07-17T19:40:43Z</time>
      </trkpt>
      <trkpt lat="44.78355" lon="2.50523">
        <ele>668</ele>
        <time>2024-07-17T19:40:44Z</time>
      </trkpt>
      <trkpt lat="44.78347" lon="2.50503">
        <ele>669</ele>
        <time>2024-07-17T19:40:45Z</time>
      </trkpt>
      <trkpt lat="44.78337" lon="2.50483">
        <ele>669</ele>
        <time>2024-07-17T19:40:46Z</time>
      </trkpt>
      <trkpt lat="44.78324" lon="2.50467">
        <ele>671</ele>
        <time>2024-07-17T19:40:47Z</time>
      </trkpt>
      <trkpt lat="44.78308" lon="2.50452">
        <ele>673</ele>
        <time>2024-07-17T19:40:48Z</time>
      </trkpt>
      <trkpt lat="44.78293" lon="2.50438">
        <ele>674</ele>
        <time>2024-07-17T19:40:49Z</time>
      </trkpt>
      <trkpt lat="44.78278" lon="2.50426">
        <ele>675</ele>
        <time>2024-07-17T19:40:50Z</time>
      </trkpt>
      <trkpt lat="44.78266" lon="2.50417">
        <ele>676</ele>
        <time>2024-07-17T19:40:51Z</time>
      </trkpt>
      <trkpt lat="44.78255" lon="2.50408">
        <ele>677</ele>
        <time>2024-07-17T19:40:52Z</time>
      </trkpt>
      <trkpt lat="44.78246" lon="2.504">
        <ele>677</ele>
        <time>2024-07-17T19:40:53Z</time>
      </trkpt>
      <trkpt lat="44.78239" lon="2.50394">
        <ele>678</ele>
        <time>2024-07-17T19:40:54Z</time>
      </trkpt>
      <trkpt lat="44.78233" lon="2.50389">
        <ele>677</ele>
        <time>2024-07-17T19:40:55Z</time>
      </trkpt>
      <trkpt lat="44.78227" lon="2.50384">
        <ele>678</ele>
        <time>2024-07-17T19:40:56Z</time>
      </trkpt>
      <trkpt lat="44.78216" lon="2.50384">
        <ele>678</ele>
        <time>2024-07-17T19:40:57Z</time>
      </trkpt>
      <trkpt lat="44.78207" lon="2.50389">
        <ele>679</ele>
        <time>2024-07-17T19:40:58Z</time>
      </trkpt>
      <trkpt lat="44.78197" lon="2.50397">
        <ele>680</ele>
        <time>2024-07-17T19:40:59Z</time>
      </trkpt>
      <trkpt lat="44.78185" lon="2.50406">
        <ele>683</ele>
        <time>2024-07-17T19:41:00Z</time>
      </trkpt>
      <trkpt lat="44.78173" lon="2.50417">
        <ele>685</ele>
        <time>2024-07-17T19:41:01Z</time>
      </trkpt>
      <trkpt lat="44.78161" lon="2.50429">
        <ele>686</ele>
        <time>2024-07-17T19:41:02Z</time>
      </trkpt>
      <trkpt lat="44.78148" lon="2.5044">
        <ele>686</ele>
        <time>2024-07-17T19:41:03Z</time>
      </trkpt>
      <trkpt lat="44.78135" lon="2.50455">
        <ele>687</ele>
        <time>2024-07-17T19:41:04Z</time>
      </trkpt>
      <trkpt lat="44.7812" lon="2.50472">
        <ele>687</ele>
        <time>2024-07-17T19:41:05Z</time>
      </trkpt>
      <trkpt lat="44.78104" lon="2.50491">
        <ele>687</ele>
        <time>2024-07-17T19:41:06Z</time>
      </trkpt>
      <trkpt lat="44.78088" lon="2.5051">
        <ele>686</ele>
        <time>2024-07-17T19:41:07Z</time>
      </trkpt>
      <trkpt lat="44.78073" lon="2.50528">
        <ele>686</ele>
        <time>2024-07-17T19:41:08Z</time>
      </trkpt>
      <trkpt lat="44.78058" lon="2.50548">
        <ele>686</ele>
        <time>2024-07-17T19:41:09Z</time>
      </trkpt>
      <trkpt lat="44.78044" lon="2.5057">
        <ele>687</ele>
        <time>2024-07-17T19:41:10Z</time>
      </trkpt>
      <trkpt lat="44.7803" lon="2.50593">
        <ele>687</ele>
        <time>2024-07-17T19:41:11Z</time>
      </trkpt>
      <trkpt lat="44.78017" lon="2.50618">
        <ele>687</ele>
        <time>2024-07-17T19:41:12Z</time>
      </trkpt>
      <trkpt lat="44.78005" lon="2.50641">
        <ele>686</ele>
        <time>2024-07-17T19:41:13Z</time>
      </trkpt>
      <trkpt lat="44.77993" lon="2.50663">
        <ele>685</ele>
        <time>2024-07-17T19:41:14Z</time>
      </trkpt>
      <trkpt lat="44.77982" lon="2.50684">
        <ele>684</ele>
        <time>2024-07-17T19:41:15Z</time>
      </trkpt>
      <trkpt lat="44.77971" lon="2.50703">
        <ele>683</ele>
        <time>2024-07-17T19:41:16Z</time>
      </trkpt>
      <trkpt lat="44.77961" lon="2.50722">
        <ele>682</ele>
        <time>2024-07-17T19:41:17Z</time>
      </trkpt>
      <trkpt lat="44.77951" lon="2.50741">
        <ele>681</ele>
        <time>2024-07-17T19:41:18Z</time>
      </trkpt>
      <trkpt lat="44.77942" lon="2.5076">
        <ele>681</ele>
        <time>2024-07-17T19:41:19Z</time>
      </trkpt>
      <trkpt lat="44.77933" lon="2.50779">
        <ele>680</ele>
        <time>2024-07-17T19:41:20Z</time>
      </trkpt>
      <trkpt lat="44.77925" lon="2.508">
        <ele>678</ele>
        <time>2024-07-17T19:41:21Z</time>
      </trkpt>
      <trkpt lat="44.77919" lon="2.50825">
        <ele>677</ele>
        <time>2024-07-17T19:41:22Z</time>
      </trkpt>
      <trkpt lat="44.77915" lon="2.5085">
        <ele>676</ele>
        <time>2024-07-17T19:41:23Z</time>
      </trkpt>
      <trkpt lat="44.77912" lon="2.50873">
        <ele>674</ele>
        <time>2024-07-17T19:41:24Z</time>
      </trkpt>
      <trkpt lat="44.77908" lon="2.50895">
        <ele>672</ele>
        <time>2024-07-17T19:41:25Z</time>
      </trkpt>
      <trkpt lat="44.77902" lon="2.50916">
        <ele>672</ele>
        <time>2024-07-17T19:41:26Z</time>
      </trkpt>
      <trkpt lat="44.77894" lon="2.50938">
        <ele>671</ele>
        <time>2024-07-17T19:41:27Z</time>
      </trkpt>
      <trkpt lat="44.77885" lon="2.5096">
        <ele>669</ele>
        <time>2024-07-17T19:41:28Z</time>
      </trkpt>
      <trkpt lat="44.77877" lon="2.50981">
        <ele>668</ele>
        <time>2024-07-17T19:41:29Z</time>
      </trkpt>
      <trkpt lat="44.77869" lon="2.51003">
        <ele>666</ele>
        <time>2024-07-17T19:41:30Z</time>
      </trkpt>
      <trkpt lat="44.77861" lon="2.51025">
        <ele>666</ele>
        <time>2024-07-17T19:41:30Z</time>
      </trkpt>
      <trkpt lat="44.77855" lon="2.51045">
        <ele>665</ele>
        <time>2024-07-17T19:41:31Z</time>
      </trkpt>
      <trkpt lat="44.7785" lon="2.51065">
        <ele>664</ele>
        <time>2024-07-17T19:41:32Z</time>
      </trkpt>
      <trkpt lat="44.77847" lon="2.51085">
        <ele>663</ele>
        <time>2024-07-17T19:41:33Z</time>
      </trkpt>
      <trkpt lat="44.77844" lon="2.51102">
        <ele>662</ele>
        <time>2024-07-17T19:41:34Z</time>
      </trkpt>
      <trkpt lat="44.7784" lon="2.51118">
        <ele>661</ele>
        <time>2024-07-17T19:41:35Z</time>
      </trkpt>
      <trkpt lat="44.77835" lon="2.51133">
        <ele>660</ele>
        <time>2024-07-17T19:41:36Z</time>
      </trkpt>
      <trkpt lat="44.77826" lon="2.51147">
        <ele>660</ele>
        <time>2024-07-17T19:41:37Z</time>
      </trkpt>
      <trkpt lat="44.77816" lon="2.5116">
        <ele>660</ele>
        <time>2024-07-17T19:41:38Z</time>
      </trkpt>
      <trkpt lat="44.77808" lon="2.51171">
        <ele>660</ele>
        <time>2024-07-17T19:41:39Z</time>
      </trkpt>
      <trkpt lat="44.77803" lon="2.51179">
        <ele>659</ele>
        <time>2024-07-17T19:41:40Z</time>
      </trkpt>
      <trkpt lat="44.77799" lon="2.51188">
        <ele>658</ele>
        <time>2024-07-17T19:41:41Z</time>
      </trkpt>
      <trkpt lat="44.77797" lon="2.51198">
        <ele>658</ele>
        <time>2024-07-17T19:41:42Z</time>
      </trkpt>
      <trkpt lat="44.77796" lon="2.5121">
        <ele>657</ele>
        <time>2024-07-17T19:41:43Z</time>
      </trkpt>
      <trkpt lat="44.77796" lon="2.51223">
        <ele>655</ele>
        <time>2024-07-17T19:41:44Z</time>
      </trkpt>
      <trkpt lat="44.77797" lon="2.51233">
        <ele>654</ele>
        <time>2024-07-17T19:41:45Z</time>
      </trkpt>
      <trkpt lat="44.77795" lon="2.51244">
        <ele>653</ele>
        <time>2024-07-17T19:41:46Z</time>
      </trkpt>
      <trkpt lat="44.7779" lon="2.51252">
        <ele>652</ele>
        <time>2024-07-17T19:41:47Z</time>
      </trkpt>
      <trkpt lat="44.77783" lon="2.51258">
        <ele>652</ele>
        <time>2024-07-17T19:41:48Z</time>
      </trkpt>
      <trkpt lat="44.77775" lon="2.51263">
        <ele>651</ele>
        <time>2024-07-17T19:41:49Z</time>
      </trkpt>
      <trkpt lat="44.77764" lon="2.51269">
        <ele>651</ele>
        <time>2024-07-17T19:41:50Z</time>
      </trkpt>
      <trkpt lat="44.77752" lon="2.51273">
        <ele>650</ele>
        <time>2024-07-17T19:41:51Z</time>
      </trkpt>
      <trkpt lat="44.77738" lon="2.51281">
        <ele>649</ele>
        <time>2024-07-17T19:41:52Z</time>
      </trkpt>
      <trkpt lat="44.77724" lon="2.51292">
        <ele>649</ele>
        <time>2024-07-17T19:41:53Z</time>
      </trkpt>
      <trkpt lat="44.77711" lon="2.51304">
        <ele>648</ele>
        <time>2024-07-17T19:41:54Z</time>
      </trkpt>
      <trkpt lat="44.77698" lon="2.51313">
        <ele>647</ele>
        <time>2024-07-17T19:41:55Z</time>
      </trkpt>
      <trkpt lat="44.77685" lon="2.51321">
        <ele>646</ele>
        <time>2024-07-17T19:41:56Z</time>
      </trkpt>
      <trkpt lat="44.77673" lon="2.51326">
        <ele>646</ele>
        <time>2024-07-17T19:41:57Z</time>
      </trkpt>
      <trkpt lat="44.7766" lon="2.51325">
        <ele>646</ele>
        <time>2024-07-17T19:41:58Z</time>
      </trkpt>
      <trkpt lat="44.77646" lon="2.51325">
        <ele>646</ele>
        <time>2024-07-17T19:41:59Z</time>
      </trkpt>
      <trkpt lat="44.77631" lon="2.51328">
        <ele>646</ele>
        <time>2024-07-17T19:42:00Z</time>
      </trkpt>
      <trkpt lat="44.77616" lon="2.51334">
        <ele>647</ele>
        <time>2024-07-17T19:42:01Z</time>
      </trkpt>
      <trkpt lat="44.77602" lon="2.51341">
        <ele>647</ele>
        <time>2024-07-17T19:42:02Z</time>
      </trkpt>
      <trkpt lat="44.77588" lon="2.51352">
        <ele>647</ele>
        <time>2024-07-17T19:42:03Z</time>
      </trkpt>
      <trkpt lat="44.77574" lon="2.51365">
        <ele>648</ele>
        <time>2024-07-17T19:42:04Z</time>
      </trkpt>
      <trkpt lat="44.77561" lon="2.51379">
        <ele>648</ele>
        <time>2024-07-17T19:42:05Z</time>
      </trkpt>
      <trkpt lat="44.77551" lon="2.51392">
        <ele>648</ele>
        <time>2024-07-17T19:42:06Z</time>
      </trkpt>
      <trkpt lat="44.77539" lon="2.51402">
        <ele>648</ele>
        <time>2024-07-17T19:42:07Z</time>
      </trkpt>
      <trkpt lat="44.77526" lon="2.51409">
        <ele>649</ele>
        <time>2024-07-17T19:42:08Z</time>
      </trkpt>
      <trkpt lat="44.77511" lon="2.51411">
        <ele>650</ele>
        <time>2024-07-17T19:42:09Z</time>
      </trkpt>
      <trkpt lat="44.77496" lon="2.51414">
        <ele>651</ele>
        <time>2024-07-17T19:42:10Z</time>
      </trkpt>
      <trkpt lat="44.77481" lon="2.51418">
        <ele>652</ele>
        <time>2024-07-17T19:42:11Z</time>
      </trkpt>
      <trkpt lat="44.77467" lon="2.51419">
        <ele>652</ele>
        <time>2024-07-17T19:42:12Z</time>
      </trkpt>
      <trkpt lat="44.77452" lon="2.51415">
        <ele>654</ele>
        <time>2024-07-17T19:42:13Z</time>
      </trkpt>
      <trkpt lat="44.77435" lon="2.51411">
        <ele>654</ele>
        <time>2024-07-17T19:42:14Z</time>
      </trkpt>
      <trkpt lat="44.77418" lon="2.51405">
        <ele>655</ele>
        <time>2024-07-17T19:42:15Z</time>
      </trkpt>
      <trkpt lat="44.77403" lon="2.51399">
        <ele>656</ele>
        <time>2024-07-17T19:42:16Z</time>
      </trkpt>
      <trkpt lat="44.77389" lon="2.51394">
        <ele>656</ele>
        <time>2024-07-17T19:42:17Z</time>
      </trkpt>
      <trkpt lat="44.77379" lon="2.51391">
        <ele>657</ele>
        <time>2024-07-17T19:42:18Z</time>
      </trkpt>
      <trkpt lat="44.77368" lon="2.5139">
        <ele>657</ele>
        <time>2024-07-17T19:42:19Z</time>
      </trkpt>
      <trkpt lat="44.77358" lon="2.51393">
        <ele>656</ele>
        <time>2024-07-17T19:42:20Z</time>
      </trkpt>
      <trkpt lat="44.77347" lon="2.51399">
        <ele>657</ele>
        <time>2024-07-17T19:42:21Z</time>
      </trkpt>
      <trkpt lat="44.77338" lon="2.51405">
        <ele>655</ele>
        <time>2024-07-17T19:42:22Z</time>
      </trkpt>
      <trkpt lat="44.77329" lon="2.51409">
        <ele>655</ele>
        <time>2024-07-17T19:42:23Z</time>
      </trkpt>
      <trkpt lat="44.7732" lon="2.51412">
        <ele>654</ele>
        <time>2024-07-17T19:42:24Z</time>
      </trkpt>
      <trkpt lat="44.77311" lon="2.51409">
        <ele>653</ele>
        <time>2024-07-17T19:42:25Z</time>
      </trkpt>
      <trkpt lat="44.77302" lon="2.51404">
        <ele>653</ele>
        <time>2024-07-17T19:42:26Z</time>
      </trkpt>
      <trkpt lat="44.77293" lon="2.51396">
        <ele>653</ele>
        <time>2024-07-17T19:42:27Z</time>
      </trkpt>
      <trkpt lat="44.77284" lon="2.51385">
        <ele>653</ele>
        <time>2024-07-17T19:42:28Z</time>
      </trkpt>
      <trkpt lat="44.77275" lon="2.51373">
        <ele>652</ele>
        <time>2024-07-17T19:42:29Z</time>
      </trkpt>
      <trkpt lat="44.77267" lon="2.51362">
        <ele>652</ele>
        <time>2024-07-17T19:42:30Z</time>
      </trkpt>
      <trkpt lat="44.77257" lon="2.51351">
        <ele>652</ele>
        <time>2024-07-17T19:42:31Z</time>
      </trkpt>
      <trkpt lat="44.77246" lon="2.51342">
        <ele>652</ele>
        <time>2024-07-17T19:42:32Z</time>
      </trkpt>
      <trkpt lat="44.77234" lon="2.51336">
        <ele>652</ele>
        <time>2024-07-17T19:42:33Z</time>
      </trkpt>
      <trkpt lat="44.77221" lon="2.51331">
        <ele>652</ele>
        <time>2024-07-17T19:42:34Z</time>
      </trkpt>
      <trkpt lat="44.77207" lon="2.51324">
        <ele>653</ele>
        <time>2024-07-17T19:42:35Z</time>
      </trkpt>
      <trkpt lat="44.77194" lon="2.51317">
        <ele>653</ele>
        <time>2024-07-17T19:42:36Z</time>
      </trkpt>
      <trkpt lat="44.77182" lon="2.51311">
        <ele>653</ele>
        <time>2024-07-17T19:42:37Z</time>
      </trkpt>
      <trkpt lat="44.77171" lon="2.51306">
        <ele>653</ele>
        <time>2024-07-17T19:42:38Z</time>
      </trkpt>
      <trkpt lat="44.77159" lon="2.51304">
        <ele>653</ele>
        <time>2024-07-17T19:42:40Z</time>
      </trkpt>
      <trkpt lat="44.77145" lon="2.51305">
        <ele>652</ele>
        <time>2024-07-17T19:42:41Z</time>
      </trkpt>
      <trkpt lat="44.77131" lon="2.51306">
        <ele>652</ele>
        <time>2024-07-17T19:42:42Z</time>
      </trkpt>
      <trkpt lat="44.77117" lon="2.51309">
        <ele>650</ele>
        <time>2024-07-17T19:42:43Z</time>
      </trkpt>
      <trkpt lat="44.77103" lon="2.51311">
        <ele>650</ele>
        <time>2024-07-17T19:42:44Z</time>
      </trkpt>
      <trkpt lat="44.7709" lon="2.51313">
        <ele>648</ele>
        <time>2024-07-17T19:42:45Z</time>
      </trkpt>
      <trkpt lat="44.77077" lon="2.51315">
        <ele>648</ele>
        <time>2024-07-17T19:42:46Z</time>
      </trkpt>
      <trkpt lat="44.77065" lon="2.51318">
        <ele>647</ele>
        <time>2024-07-17T19:42:47Z</time>
      </trkpt>
      <trkpt lat="44.77052" lon="2.5132">
        <ele>646</ele>
        <time>2024-07-17T19:42:48Z</time>
      </trkpt>
      <trkpt lat="44.7704" lon="2.51324">
        <ele>645</ele>
        <time>2024-07-17T19:42:49Z</time>
      </trkpt>
      <trkpt lat="44.77028" lon="2.51328">
        <ele>644</ele>
        <time>2024-07-17T19:42:50Z</time>
      </trkpt>
      <trkpt lat="44.77016" lon="2.51334">
        <ele>642</ele>
        <time>2024-07-17T19:42:51Z</time>
      </trkpt>
      <trkpt lat="44.77004" lon="2.51342">
        <ele>641</ele>
        <time>2024-07-17T19:42:52Z</time>
      </trkpt>
      <trkpt lat="44.76991" lon="2.5135">
        <ele>641</ele>
        <time>2024-07-17T19:42:53Z</time>
      </trkpt>
      <trkpt lat="44.76978" lon="2.5136">
        <ele>639</ele>
        <time>2024-07-17T19:42:54Z</time>
      </trkpt>
      <trkpt lat="44.76966" lon="2.51371">
        <ele>637</ele>
        <time>2024-07-17T19:42:55Z</time>
      </trkpt>
      <trkpt lat="44.76953" lon="2.51381">
        <ele>636</ele>
        <time>2024-07-17T19:42:56Z</time>
      </trkpt>
      <trkpt lat="44.76941" lon="2.5139">
        <ele>635</ele>
        <time>2024-07-17T19:42:57Z</time>
      </trkpt>
      <trkpt lat="44.7693" lon="2.51397">
        <ele>634</ele>
        <time>2024-07-17T19:42:58Z</time>
      </trkpt>
      <trkpt lat="44.7692" lon="2.51405">
        <ele>632</ele>
        <time>2024-07-17T19:42:59Z</time>
      </trkpt>
      <trkpt lat="44.7691" lon="2.51414">
        <ele>632</ele>
        <time>2024-07-17T19:43:00Z</time>
      </trkpt>
      <trkpt lat="44.769" lon="2.51424">
        <ele>631</ele>
        <time>2024-07-17T19:43:01Z</time>
      </trkpt>
      <trkpt lat="44.76889" lon="2.51436">
        <ele>629</ele>
        <time>2024-07-17T19:43:02Z</time>
      </trkpt>
      <trkpt lat="44.76878" lon="2.51448">
        <ele>627</ele>
        <time>2024-07-17T19:43:03Z</time>
      </trkpt>
      <trkpt lat="44.76867" lon="2.51459">
        <ele>625</ele>
        <time>2024-07-17T19:43:04Z</time>
      </trkpt>
      <trkpt lat="44.76857" lon="2.51469">
        <ele>624</ele>
        <time>2024-07-17T19:43:05Z</time>
      </trkpt>
      <trkpt lat="44.76848" lon="2.51477">
        <ele>623</ele>
        <time>2024-07-17T19:43:06Z</time>
      </trkpt>
      <trkpt lat="44.7684" lon="2.51483">
        <ele>622</ele>
        <time>2024-07-17T19:43:07Z</time>
      </trkpt>
      <trkpt lat="44.76831" lon="2.51485">
        <ele>621</ele>
        <time>2024-07-17T19:43:08Z</time>
      </trkpt>
      <trkpt lat="44.76822" lon="2.51486">
        <ele>620</ele>
        <time>2024-07-17T19:43:09Z</time>
      </trkpt>
      <trkpt lat="44.76813" lon="2.51488">
        <ele>619</ele>
        <time>2024-07-17T19:43:10Z</time>
      </trkpt>
      <trkpt lat="44.76804" lon="2.51488">
        <ele>619</ele>
        <time>2024-07-17T19:43:11Z</time>
      </trkpt>
      <trkpt lat="44.76797" lon="2.51487">
        <ele>617</ele>
        <time>2024-07-17T19:43:12Z</time>
      </trkpt>
      <trkpt lat="44.7679" lon="2.51484">
        <ele>617</ele>
        <time>2024-07-17T19:43:13Z</time>
      </trkpt>
      <trkpt lat="44.76783" lon="2.51479">
        <ele>615</ele>
        <time>2024-07-17T19:43:14Z</time>
      </trkpt>
      <trkpt lat="44.76777" lon="2.51471">
        <ele>614</ele>
        <time>2024-07-17T19:43:15Z</time>
      </trkpt>
      <trkpt lat="44.76773" lon="2.51461">
        <ele>613</ele>
        <time>2024-07-17T19:43:16Z</time>
      </trkpt>
      <trkpt lat="44.76768" lon="2.5145">
        <ele>612</ele>
        <time>2024-07-17T19:43:17Z</time>
      </trkpt>
      <trkpt lat="44.76765" lon="2.51439">
        <ele>610</ele>
        <time>2024-07-17T19:43:18Z</time>
      </trkpt>
      <trkpt lat="44.76761" lon="2.51429">
        <ele>610</ele>
        <time>2024-07-17T19:43:19Z</time>
      </trkpt>
      <trkpt lat="44.76756" lon="2.5142">
        <ele>610</ele>
        <time>2024-07-17T19:43:20Z</time>
      </trkpt>
      <trkpt lat="44.7675" lon="2.51413">
        <ele>609</ele>
        <time>2024-07-17T19:43:21Z</time>
      </trkpt>
      <trkpt lat="44.76743" lon="2.51408">
        <ele>609</ele>
        <time>2024-07-17T19:43:22Z</time>
      </trkpt>
      <trkpt lat="44.76733" lon="2.51406">
        <ele>609</ele>
        <time>2024-07-17T19:43:23Z</time>
      </trkpt>
      <trkpt lat="44.76723" lon="2.51408">
        <ele>608</ele>
        <time>2024-07-17T19:43:24Z</time>
      </trkpt>
      <trkpt lat="44.76713" lon="2.51412">
        <ele>607</ele>
        <time>2024-07-17T19:43:25Z</time>
      </trkpt>
      <trkpt lat="44.76703" lon="2.51418">
        <ele>606</ele>
        <time>2024-07-17T19:43:26Z</time>
      </trkpt>
      <trkpt lat="44.76693" lon="2.51423">
        <ele>604</ele>
        <time>2024-07-17T19:43:27Z</time>
      </trkpt>
      <trkpt lat="44.76683" lon="2.5143">
        <ele>603</ele>
        <time>2024-07-17T19:43:28Z</time>
      </trkpt>
      <trkpt lat="44.76673" lon="2.51437">
        <ele>602</ele>
        <time>2024-07-17T19:43:29Z</time>
      </trkpt>
      <trkpt lat="44.76663" lon="2.51444">
        <ele>600</ele>
        <time>2024-07-17T19:43:30Z</time>
      </trkpt>
      <trkpt lat="44.76653" lon="2.51452">
        <ele>599</ele>
        <time>2024-07-17T19:43:31Z</time>
      </trkpt>
      <trkpt lat="44.76645" lon="2.5146">
        <ele>597</ele>
        <time>2024-07-17T19:43:32Z</time>
      </trkpt>
      <trkpt lat="44.76637" lon="2.51467">
        <ele>596</ele>
        <time>2024-07-17T19:43:33Z</time>
      </trkpt>
      <trkpt lat="44.7663" lon="2.51475">
        <ele>594</ele>
        <time>2024-07-17T19:43:34Z</time>
      </trkpt>
      <trkpt lat="44.76621" lon="2.5148">
        <ele>593</ele>
        <time>2024-07-17T19:43:35Z</time>
      </trkpt>
      <trkpt lat="44.76613" lon="2.51483">
        <ele>592</ele>
        <time>2024-07-17T19:43:36Z</time>
      </trkpt>
      <trkpt lat="44.76603" lon="2.51485">
        <ele>592</ele>
        <time>2024-07-17T19:43:37Z</time>
      </trkpt>
      <trkpt lat="44.76592" lon="2.51488">
        <ele>591</ele>
        <time>2024-07-17T19:43:38Z</time>
      </trkpt>
      <trkpt lat="44.7658" lon="2.51491">
        <ele>591</ele>
        <time>2024-07-17T19:43:39Z</time>
      </trkpt>
      <trkpt lat="44.76568" lon="2.51496">
        <ele>590</ele>
        <time>2024-07-17T19:43:40Z</time>
      </trkpt>
      <trkpt lat="44.76559" lon="2.51501">
        <ele>588</ele>
        <time>2024-07-17T19:43:41Z</time>
      </trkpt>
      <trkpt lat="44.7655" lon="2.51506">
        <ele>587</ele>
        <time>2024-07-17T19:43:42Z</time>
      </trkpt>
      <trkpt lat="44.76542" lon="2.51509">
        <ele>586</ele>
        <time>2024-07-17T19:43:43Z</time>
      </trkpt>
      <trkpt lat="44.76533" lon="2.51511">
        <ele>585</ele>
        <time>2024-07-17T19:43:44Z</time>
      </trkpt>
      <trkpt lat="44.76522" lon="2.51511">
        <ele>584</ele>
        <time>2024-07-17T19:43:45Z</time>
      </trkpt>
      <trkpt lat="44.76511" lon="2.51511">
        <ele>583</ele>
        <time>2024-07-17T19:43:46Z</time>
      </trkpt>
      <trkpt lat="44.76501" lon="2.5151">
        <ele>582</ele>
        <time>2024-07-17T19:43:47Z</time>
      </trkpt>
      <trkpt lat="44.7649" lon="2.51509">
        <ele>581</ele>
        <time>2024-07-17T19:43:48Z</time>
      </trkpt>
      <trkpt lat="44.76479" lon="2.51508">
        <ele>579</ele>
        <time>2024-07-17T19:43:49Z</time>
      </trkpt>
      <trkpt lat="44.76469" lon="2.51507">
        <ele>577</ele>
        <time>2024-07-17T19:43:50Z</time>
      </trkpt>
      <trkpt lat="44.7646" lon="2.51506">
        <ele>576</ele>
        <time>2024-07-17T19:43:51Z</time>
      </trkpt>
      <trkpt lat="44.76452" lon="2.51506">
        <ele>574</ele>
        <time>2024-07-17T19:43:51Z</time>
      </trkpt>
      <trkpt lat="44.76444" lon="2.51506">
        <ele>574</ele>
        <time>2024-07-17T19:43:52Z</time>
      </trkpt>
      <trkpt lat="44.76438" lon="2.51509">
        <ele>573</ele>
        <time>2024-07-17T19:43:53Z</time>
      </trkpt>
      <trkpt lat="44.76431" lon="2.51514">
        <ele>572</ele>
        <time>2024-07-17T19:43:54Z</time>
      </trkpt>
      <trkpt lat="44.76425" lon="2.51521">
        <ele>571</ele>
        <time>2024-07-17T19:43:55Z</time>
      </trkpt>
      <trkpt lat="44.7642" lon="2.51529">
        <ele>571</ele>
        <time>2024-07-17T19:43:56Z</time>
      </trkpt>
      <trkpt lat="44.76417" lon="2.5154">
        <ele>570</ele>
        <time>2024-07-17T19:43:57Z</time>
      </trkpt>
      <trkpt lat="44.76415" lon="2.51551">
        <ele>569</ele>
        <time>2024-07-17T19:43:58Z</time>
      </trkpt>
      <trkpt lat="44.76413" lon="2.51561">
        <ele>568</ele>
        <time>2024-07-17T19:43:59Z</time>
      </trkpt>
      <trkpt lat="44.76411" lon="2.51567">
        <ele>567</ele>
        <time>2024-07-17T19:44:00Z</time>
      </trkpt>
      <trkpt lat="44.7641" lon="2.51572">
        <ele>566</ele>
        <time>2024-07-17T19:44:01Z</time>
      </trkpt>
      <trkpt lat="44.76408" lon="2.51576">
        <ele>565</ele>
        <time>2024-07-17T19:44:02Z</time>
      </trkpt>
      <trkpt lat="44.76404" lon="2.51578">
        <ele>564</ele>
        <time>2024-07-17T19:44:03Z</time>
      </trkpt>
      <trkpt lat="44.76401" lon="2.51578">
        <ele>564</ele>
        <time>2024-07-17T19:44:04Z</time>
      </trkpt>
      <trkpt lat="44.76398" lon="2.51571">
        <ele>564</ele>
        <time>2024-07-17T19:44:05Z</time>
      </trkpt>
      <trkpt lat="44.76397" lon="2.51562">
        <ele>563</ele>
        <time>2024-07-17T19:44:06Z</time>
      </trkpt>
      <trkpt lat="44.76395" lon="2.5155">
        <ele>563</ele>
        <time>2024-07-17T19:44:07Z</time>
      </trkpt>
      <trkpt lat="44.76391" lon="2.51534">
        <ele>563</ele>
        <time>2024-07-17T19:44:08Z</time>
      </trkpt>
      <trkpt lat="44.76386" lon="2.51516">
        <ele>562</ele>
        <time>2024-07-17T19:44:09Z</time>
      </trkpt>
      <trkpt lat="44.7638" lon="2.51497">
        <ele>560</ele>
        <time>2024-07-17T19:44:10Z</time>
      </trkpt>
      <trkpt lat="44.76373" lon="2.51479">
        <ele>559</ele>
        <time>2024-07-17T19:44:11Z</time>
      </trkpt>
      <trkpt lat="44.76367" lon="2.51461">
        <ele>558</ele>
        <time>2024-07-17T19:44:12Z</time>
      </trkpt>
      <trkpt lat="44.7636" lon="2.51444">
        <ele>556</ele>
        <time>2024-07-17T19:44:13Z</time>
      </trkpt>
      <trkpt lat="44.76353" lon="2.51429">
        <ele>555</ele>
        <time>2024-07-17T19:44:14Z</time>
      </trkpt>
      <trkpt lat="44.76347" lon="2.51415">
        <ele>554</ele>
        <time>2024-07-17T19:44:15Z</time>
      </trkpt>
      <trkpt lat="44.76341" lon="2.51403">
        <ele>554</ele>
        <time>2024-07-17T19:44:16Z</time>
      </trkpt>
      <trkpt lat="44.76335" lon="2.51394">
        <ele>553</ele>
        <time>2024-07-17T19:44:17Z</time>
      </trkpt>
      <trkpt lat="44.7633" lon="2.51386">
        <ele>553</ele>
        <time>2024-07-17T19:44:18Z</time>
      </trkpt>
      <trkpt lat="44.76325" lon="2.51379">
        <ele>553</ele>
        <time>2024-07-17T19:44:19Z</time>
      </trkpt>
      <trkpt lat="44.76318" lon="2.51376">
        <ele>554</ele>
        <time>2024-07-17T19:44:20Z</time>
      </trkpt>
      <trkpt lat="44.7631" lon="2.51377">
        <ele>555</ele>
        <time>2024-07-17T19:44:21Z</time>
      </trkpt>
      <trkpt lat="44.76302" lon="2.51385">
        <ele>556</ele>
        <time>2024-07-17T19:44:22Z</time>
      </trkpt>
      <trkpt lat="44.76295" lon="2.51394">
        <ele>558</ele>
        <time>2024-07-17T19:44:23Z</time>
      </trkpt>
      <trkpt lat="44.76286" lon="2.51404">
        <ele>559</ele>
        <time>2024-07-17T19:44:24Z</time>
      </trkpt>
      <trkpt lat="44.76276" lon="2.51413">
        <ele>561</ele>
        <time>2024-07-17T19:44:25Z</time>
      </trkpt>
      <trkpt lat="44.76265" lon="2.51421">
        <ele>563</ele>
        <time>2024-07-17T19:44:26Z</time>
      </trkpt>
      <trkpt lat="44.76254" lon="2.51428">
        <ele>564</ele>
        <time>2024-07-17T19:44:27Z</time>
      </trkpt>
      <trkpt lat="44.76243" lon="2.51434">
        <ele>566</ele>
        <time>2024-07-17T19:44:28Z</time>
      </trkpt>
      <trkpt lat="44.76233" lon="2.51439">
        <ele>567</ele>
        <time>2024-07-17T19:44:29Z</time>
      </trkpt>
      <trkpt lat="44.76223" lon="2.51441">
        <ele>567</ele>
        <time>2024-07-17T19:44:30Z</time>
      </trkpt>
      <trkpt lat="44.76214" lon="2.51441">
        <ele>568</ele>
        <time>2024-07-17T19:44:31Z</time>
      </trkpt>
      <trkpt lat="44.76207" lon="2.51436">
        <ele>568</ele>
        <time>2024-07-17T19:44:32Z</time>
      </trkpt>
      <trkpt lat="44.762" lon="2.5143">
        <ele>569</ele>
        <time>2024-07-17T19:44:33Z</time>
      </trkpt>
      <trkpt lat="44.7619" lon="2.51425">
        <ele>570</ele>
        <time>2024-07-17T19:44:34Z</time>
      </trkpt>
      <trkpt lat="44.7618" lon="2.51423">
        <ele>571</ele>
        <time>2024-07-17T19:44:35Z</time>
      </trkpt>
      <trkpt lat="44.76169" lon="2.51427">
        <ele>572</ele>
        <time>2024-07-17T19:44:36Z</time>
      </trkpt>
      <trkpt lat="44.76159" lon="2.51434">
        <ele>573</ele>
        <time>2024-07-17T19:44:37Z</time>
      </trkpt>
      <trkpt lat="44.7615" lon="2.51446">
        <ele>574</ele>
        <time>2024-07-17T19:44:38Z</time>
      </trkpt>
      <trkpt lat="44.76139" lon="2.51459">
        <ele>576</ele>
        <time>2024-07-17T19:44:39Z</time>
      </trkpt>
      <trkpt lat="44.76128" lon="2.51473">
        <ele>576</ele>
        <time>2024-07-17T19:44:40Z</time>
      </trkpt>
      <trkpt lat="44.76116" lon="2.51487">
        <ele>577</ele>
        <time>2024-07-17T19:44:41Z</time>
      </trkpt>
      <trkpt lat="44.76105" lon="2.51501">
        <ele>576</ele>
        <time>2024-07-17T19:44:42Z</time>
      </trkpt>
      <trkpt lat="44.76095" lon="2.51515">
        <ele>577</ele>
        <time>2024-07-17T19:44:43Z</time>
      </trkpt>
      <trkpt lat="44.76086" lon="2.5153">
        <ele>577</ele>
        <time>2024-07-17T19:44:44Z</time>
      </trkpt>
      <trkpt lat="44.76079" lon="2.51544">
        <ele>577</ele>
        <time>2024-07-17T19:44:46Z</time>
      </trkpt>
      <trkpt lat="44.76069" lon="2.51556">
        <ele>577</ele>
        <time>2024-07-17T19:44:47Z</time>
      </trkpt>
      <trkpt lat="44.76057" lon="2.51566">
        <ele>578</ele>
        <time>2024-07-17T19:44:48Z</time>
      </trkpt>
      <trkpt lat="44.76044" lon="2.51575">
        <ele>579</ele>
        <time>2024-07-17T19:44:49Z</time>
      </trkpt>
      <trkpt lat="44.7603" lon="2.51585">
        <ele>581</ele>
        <time>2024-07-17T19:44:50Z</time>
      </trkpt>
      <trkpt lat="44.76015" lon="2.51596">
        <ele>582</ele>
        <time>2024-07-17T19:44:51Z</time>
      </trkpt>
      <trkpt lat="44.76001" lon="2.51608">
        <ele>582</ele>
        <time>2024-07-17T19:44:52Z</time>
      </trkpt>
      <trkpt lat="44.75989" lon="2.51619">
        <ele>582</ele>
        <time>2024-07-17T19:44:53Z</time>
      </trkpt>
      <trkpt lat="44.75978" lon="2.51634">
        <ele>582</ele>
        <time>2024-07-17T19:44:54Z</time>
      </trkpt>
      <trkpt lat="44.75967" lon="2.5165">
        <ele>582</ele>
        <time>2024-07-17T19:44:55Z</time>
      </trkpt>
      <trkpt lat="44.75958" lon="2.51664">
        <ele>583</ele>
        <time>2024-07-17T19:44:56Z</time>
      </trkpt>
      <trkpt lat="44.75948" lon="2.5168">
        <ele>584</ele>
        <time>2024-07-17T19:44:57Z</time>
      </trkpt>
      <trkpt lat="44.75939" lon="2.51696">
        <ele>583</ele>
        <time>2024-07-17T19:44:58Z</time>
      </trkpt>
      <trkpt lat="44.75929" lon="2.51712">
        <ele>583</ele>
        <time>2024-07-17T19:44:59Z</time>
      </trkpt>
      <trkpt lat="44.75921" lon="2.51724">
        <ele>582</ele>
        <time>2024-07-17T19:45:00Z</time>
      </trkpt>
      <trkpt lat="44.75913" lon="2.51733">
        <ele>582</ele>
        <time>2024-07-17T19:45:01Z</time>
      </trkpt>
      <trkpt lat="44.75903" lon="2.5174">
        <ele>583</ele>
        <time>2024-07-17T19:45:02Z</time>
      </trkpt>
      <trkpt lat="44.7589" lon="2.51745">
        <ele>585</ele>
        <time>2024-07-17T19:45:03Z</time>
      </trkpt>
      <trkpt lat="44.75876" lon="2.51749">
        <ele>587</ele>
        <time>2024-07-17T19:45:04Z</time>
      </trkpt>
      <trkpt lat="44.7586" lon="2.51753">
        <ele>588</ele>
        <time>2024-07-17T19:45:05Z</time>
      </trkpt>
      <trkpt lat="44.75842" lon="2.51757">
        <ele>589</ele>
        <time>2024-07-17T19:45:06Z</time>
      </trkpt>
      <trkpt lat="44.75823" lon="2.51764">
        <ele>590</ele>
        <time>2024-07-17T19:45:07Z</time>
      </trkpt>
      <trkpt lat="44.75807" lon="2.51777">
        <ele>591</ele>
        <time>2024-07-17T19:45:08Z</time>
      </trkpt>
      <trkpt lat="44.75794" lon="2.51788">
        <ele>591</ele>
        <time>2024-07-17T19:45:09Z</time>
      </trkpt>
      <trkpt lat="44.75783" lon="2.51799">
        <ele>591</ele>
        <time>2024-07-17T19:45:10Z</time>
      </trkpt>
      <trkpt lat="44.75774" lon="2.51805">
        <ele>591</ele>
        <time>2024-07-17T19:45:11Z</time>
      </trkpt>
      <trkpt lat="44.75764" lon="2.51809">
        <ele>591</ele>
        <time>2024-07-17T19:45:12Z</time>
      </trkpt>
      <trkpt lat="44.75752" lon="2.51811">
        <ele>591</ele>
        <time>2024-07-17T19:45:13Z</time>
      </trkpt>
      <trkpt lat="44.75739" lon="2.51809">
        <ele>592</ele>
        <time>2024-07-17T19:45:14Z</time>
      </trkpt>
      <trkpt lat="44.75726" lon="2.51807">
        <ele>592</ele>
        <time>2024-07-17T19:45:15Z</time>
      </trkpt>
      <trkpt lat="44.75712" lon="2.51808">
        <ele>593</ele>
        <time>2024-07-17T19:45:16Z</time>
      </trkpt>
      <trkpt lat="44.757" lon="2.51814">
        <ele>595</ele>
        <time>2024-07-17T19:45:17Z</time>
      </trkpt>
      <trkpt lat="44.75689" lon="2.51822">
        <ele>596</ele>
        <time>2024-07-17T19:45:18Z</time>
      </trkpt>
      <trkpt lat="44.75678" lon="2.51828">
        <ele>597</ele>
        <time>2024-07-17T19:45:19Z</time>
      </trkpt>
      <trkpt lat="44.75668" lon="2.51831">
        <ele>598</ele>
        <time>2024-07-17T19:45:20Z</time>
      </trkpt>
      <trkpt lat="44.75657" lon="2.51831">
        <ele>598</ele>
        <time>2024-07-17T19:45:21Z</time>
      </trkpt>
      <trkpt lat="44.75647" lon="2.51829">
        <ele>599</ele>
        <time>2024-07-17T19:45:22Z</time>
      </trkpt>
      <trkpt lat="44.75637" lon="2.51824">
        <ele>601</ele>
        <time>2024-07-17T19:45:23Z</time>
      </trkpt>
      <trkpt lat="44.75628" lon="2.51817">
        <ele>602</ele>
        <time>2024-07-17T19:45:24Z</time>
      </trkpt>
      <trkpt lat="44.7562" lon="2.51808">
        <ele>602</ele>
        <time>2024-07-17T19:45:25Z</time>
      </trkpt>
      <trkpt lat="44.75612" lon="2.51799">
        <ele>603</ele>
        <time>2024-07-17T19:45:26Z</time>
      </trkpt>
      <trkpt lat="44.75606" lon="2.51787">
        <ele>604</ele>
        <time>2024-07-17T19:45:27Z</time>
      </trkpt>
      <trkpt lat="44.75602" lon="2.51772">
        <ele>605</ele>
        <time>2024-07-17T19:45:28Z</time>
      </trkpt>
      <trkpt lat="44.75598" lon="2.51756">
        <ele>605</ele>
        <time>2024-07-17T19:45:29Z</time>
      </trkpt>
      <trkpt lat="44.75594" lon="2.51737">
        <ele>606</ele>
        <time>2024-07-17T19:45:30Z</time>
      </trkpt>
      <trkpt lat="44.7559" lon="2.51716">
        <ele>607</ele>
        <time>2024-07-17T19:45:31Z</time>
      </trkpt>
      <trkpt lat="44.75585" lon="2.51695">
        <ele>607</ele>
        <time>2024-07-17T19:45:32Z</time>
      </trkpt>
      <trkpt lat="44.7558" lon="2.51674">
        <ele>607</ele>
        <time>2024-07-17T19:45:33Z</time>
      </trkpt>
      <trkpt lat="44.75576" lon="2.51655">
        <ele>607</ele>
        <time>2024-07-17T19:45:34Z</time>
      </trkpt>
      <trkpt lat="44.75571" lon="2.51638">
        <ele>607</ele>
        <time>2024-07-17T19:45:35Z</time>
      </trkpt>
      <trkpt lat="44.75568" lon="2.51621">
        <ele>607</ele>
        <time>2024-07-17T19:45:36Z</time>
      </trkpt>
      <trkpt lat="44.75565" lon="2.51604">
        <ele>608</ele>
        <time>2024-07-17T19:45:37Z</time>
      </trkpt>
      <trkpt lat="44.75564" lon="2.51588">
        <ele>608</ele>
        <time>2024-07-17T19:45:38Z</time>
      </trkpt>
      <trkpt lat="44.75565" lon="2.51571">
        <ele>608</ele>
        <time>2024-07-17T19:45:39Z</time>
      </trkpt>
      <trkpt lat="44.75566" lon="2.51555">
        <ele>608</ele>
        <time>2024-07-17T19:45:40Z</time>
      </trkpt>
      <trkpt lat="44.75566" lon="2.51541">
        <ele>609</ele>
        <time>2024-07-17T19:45:41Z</time>
      </trkpt>
      <trkpt lat="44.75565" lon="2.51527">
        <ele>608</ele>
        <time>2024-07-17T19:45:42Z</time>
      </trkpt>
      <trkpt lat="44.75563" lon="2.51514">
        <ele>609</ele>
        <time>2024-07-17T19:45:43Z</time>
      </trkpt>
      <trkpt lat="44.7556" lon="2.515">
        <ele>609</ele>
        <time>2024-07-17T19:45:44Z</time>
      </trkpt>
      <trkpt lat="44.75556" lon="2.51484">
        <ele>610</ele>
        <time>2024-07-17T19:45:45Z</time>
      </trkpt>
      <trkpt lat="44.75552" lon="2.51469">
        <ele>611</ele>
        <time>2024-07-17T19:45:46Z</time>
      </trkpt>
      <trkpt lat="44.75549" lon="2.51455">
        <ele>611</ele>
        <time>2024-07-17T19:45:47Z</time>
      </trkpt>
      <trkpt lat="44.75547" lon="2.51442">
        <ele>611</ele>
        <time>2024-07-17T19:45:48Z</time>
      </trkpt>
      <trkpt lat="44.75547" lon="2.5143">
        <ele>611</ele>
        <time>2024-07-17T19:45:49Z</time>
      </trkpt>
      <trkpt lat="44.75548" lon="2.51417">
        <ele>612</ele>
        <time>2024-07-17T19:45:50Z</time>
      </trkpt>
      <trkpt lat="44.75551" lon="2.51405">
        <ele>614</ele>
        <time>2024-07-17T19:45:51Z</time>
      </trkpt>
      <trkpt lat="44.75555" lon="2.5139">
        <ele>614</ele>
        <time>2024-07-17T19:45:52Z</time>
      </trkpt>
      <trkpt lat="44.7556" lon="2.51376">
        <ele>615</ele>
        <time>2024-07-17T19:45:53Z</time>
      </trkpt>
      <trkpt lat="44.75563" lon="2.51362">
        <ele>614</ele>
        <time>2024-07-17T19:45:54Z</time>
      </trkpt>
      <trkpt lat="44.75564" lon="2.51347">
        <ele>614</ele>
        <time>2024-07-17T19:45:55Z</time>
      </trkpt>
      <trkpt lat="44.75564" lon="2.51332">
        <ele>615</ele>
        <time>2024-07-17T19:45:56Z</time>
      </trkpt>
      <trkpt lat="44.75564" lon="2.51316">
        <ele>615</ele>
        <time>2024-07-17T19:45:56Z</time>
      </trkpt>
      <trkpt lat="44.75564" lon="2.51299">
        <ele>616</ele>
        <time>2024-07-17T19:45:57Z</time>
      </trkpt>
      <trkpt lat="44.75564" lon="2.51283">
        <ele>616</ele>
        <time>2024-07-17T19:45:58Z</time>
      </trkpt>
      <trkpt lat="44.75566" lon="2.51269">
        <ele>616</ele>
        <time>2024-07-17T19:45:59Z</time>
      </trkpt>
      <trkpt lat="44.75569" lon="2.51255">
        <ele>616</ele>
        <time>2024-07-17T19:46:00Z</time>
      </trkpt>
      <trkpt lat="44.75574" lon="2.5124">
        <ele>617</ele>
        <time>2024-07-17T19:46:01Z</time>
      </trkpt>
      <trkpt lat="44.75579" lon="2.51226">
        <ele>617</ele>
        <time>2024-07-17T19:46:02Z</time>
      </trkpt>
      <trkpt lat="44.75583" lon="2.51213">
        <ele>616</ele>
        <time>2024-07-17T19:46:03Z</time>
      </trkpt>
      <trkpt lat="44.75586" lon="2.51202">
        <ele>616</ele>
        <time>2024-07-17T19:46:04Z</time>
      </trkpt>
      <trkpt lat="44.75588" lon="2.51192">
        <ele>615</ele>
        <time>2024-07-17T19:46:05Z</time>
      </trkpt>
      <trkpt lat="44.75588" lon="2.51183">
        <ele>615</ele>
        <time>2024-07-17T19:46:06Z</time>
      </trkpt>
      <trkpt lat="44.75588" lon="2.51175">
        <ele>615</ele>
        <time>2024-07-17T19:46:07Z</time>
      </trkpt>
      <trkpt lat="44.75587" lon="2.51167">
        <ele>615</ele>
        <time>2024-07-17T19:46:08Z</time>
      </trkpt>
      <trkpt lat="44.75583" lon="2.51159">
        <ele>616</ele>
        <time>2024-07-17T19:46:09Z</time>
      </trkpt>
      <trkpt lat="44.75576" lon="2.51153">
        <ele>616</ele>
        <time>2024-07-17T19:46:10Z</time>
      </trkpt>
      <trkpt lat="44.75569" lon="2.51147">
        <ele>617</ele>
        <time>2024-07-17T19:46:11Z</time>
      </trkpt>
      <trkpt lat="44.75563" lon="2.5114">
        <ele>617</ele>
        <time>2024-07-17T19:46:12Z</time>
      </trkpt>
      <trkpt lat="44.75558" lon="2.51132">
        <ele>616</ele>
        <time>2024-07-17T19:46:13Z</time>
      </trkpt>
      <trkpt lat="44.75554" lon="2.51123">
        <ele>616</ele>
        <time>2024-07-17T19:46:14Z</time>
      </trkpt>
      <trkpt lat="44.7555" lon="2.51112">
        <ele>616</ele>
        <time>2024-07-17T19:46:15Z</time>
      </trkpt>
      <trkpt lat="44.75547" lon="2.51099">
        <ele>616</ele>
        <time>2024-07-17T19:46:16Z</time>
      </trkpt>
      <trkpt lat="44.75544" lon="2.51083">
        <ele>616</ele>
        <time>2024-07-17T19:46:17Z</time>
      </trkpt>
      <trkpt lat="44.7554" lon="2.51068">
        <ele>616</ele>
        <time>2024-07-17T19:46:18Z</time>
      </trkpt>
      <trkpt lat="44.75537" lon="2.51053">
        <ele>616</ele>
        <time>2024-07-17T19:46:19Z</time>
      </trkpt>
      <trkpt lat="44.75533" lon="2.5104">
        <ele>615</ele>
        <time>2024-07-17T19:46:20Z</time>
      </trkpt>
      <trkpt lat="44.7553" lon="2.51028">
        <ele>614</ele>
        <time>2024-07-17T19:46:21Z</time>
      </trkpt>
      <trkpt lat="44.75529" lon="2.51016">
        <ele>614</ele>
        <time>2024-07-17T19:46:22Z</time>
      </trkpt>
      <trkpt lat="44.75529" lon="2.51004">
        <ele>614</ele>
        <time>2024-07-17T19:46:23Z</time>
      </trkpt>
      <trkpt lat="44.75532" lon="2.50991">
        <ele>614</ele>
        <time>2024-07-17T19:46:24Z</time>
      </trkpt>
      <trkpt lat="44.75536" lon="2.50979">
        <ele>614</ele>
        <time>2024-07-17T19:46:25Z</time>
      </trkpt>
      <trkpt lat="44.7554" lon="2.50969">
        <ele>614</ele>
        <time>2024-07-17T19:46:26Z</time>
      </trkpt>
      <trkpt lat="44.75542" lon="2.5096">
        <ele>613</ele>
        <time>2024-07-17T19:46:27Z</time>
      </trkpt>
      <trkpt lat="44.75543" lon="2.50953">
        <ele>613</ele>
        <time>2024-07-17T19:46:28Z</time>
      </trkpt>
      <trkpt lat="44.75543" lon="2.50945">
        <ele>613</ele>
        <time>2024-07-17T19:46:29Z</time>
      </trkpt>
      <trkpt lat="44.75542" lon="2.50939">
        <ele>613</ele>
        <time>2024-07-17T19:46:30Z</time>
      </trkpt>
      <trkpt lat="44.7554" lon="2.50932">
        <ele>613</ele>
        <time>2024-07-17T19:46:31Z</time>
      </trkpt>
      <trkpt lat="44.75538" lon="2.50926">
        <ele>614</ele>
        <time>2024-07-17T19:46:32Z</time>
      </trkpt>
      <trkpt lat="44.75535" lon="2.50923">
        <ele>614</ele>
        <time>2024-07-17T19:46:34Z</time>
      </trkpt>
    </trkseg>
  </trk>
</gpx>